<?xml version="1.0" encoding="UTF-8" standalone="no" ?>
<gpx xmlns="http://www.topografix.com/GPX/1/1" xmlns:xsi="http://www.w3.org/2001/XMLSchema-instance" xsi:schemaLocation="http://www.topografix.com/GPX/1/1 http://www.topografix.com/GPX/1/1/gpx.xsd" version="1.1" creator="VisuGPX - https://www.visugpx.com">
  <metadata>
    <name>RANDO MONT BAR 31 KM</name>
    <desc><![CDATA[RANDO MONT BAR 31 KM.DEPART ARRIVEE BELLEVUE LA MONTAGNE.SOULHAC.LE MAZEL.CHAMBEYRAC.LANGLADE.CEAUX D ALLEGRE.COURBIERE.MONTBAR.ALLEGRE.CHARDON.CAIRE.SOUFLEIX.LIGOUZAC.THEMEYS]]></desc>
  </metadata>
  <trk>
    <name><![CDATA[20180917104454-TqADN]]></name>
    <trkseg>
      <trkpt lat="45.22015" lon="3.81977">
        <ele>976.3</ele>
      </trkpt>
      <trkpt lat="45.22015" lon="3.81975">
        <ele>976.4</ele>
      </trkpt>
      <trkpt lat="45.22013" lon="3.81972">
        <ele>976.4</ele>
      </trkpt>
      <trkpt lat="45.22015" lon="3.81952">
        <ele>976.8</ele>
      </trkpt>
      <trkpt lat="45.22019" lon="3.8195">
        <ele>976.9</ele>
      </trkpt>
      <trkpt lat="45.22023" lon="3.81948">
        <ele>976.9</ele>
      </trkpt>
      <trkpt lat="45.22026" lon="3.81948">
        <ele>977</ele>
      </trkpt>
      <trkpt lat="45.22052" lon="3.81953">
        <ele>977.2</ele>
      </trkpt>
      <trkpt lat="45.22057" lon="3.81952">
        <ele>977.3</ele>
      </trkpt>
      <trkpt lat="45.22055" lon="3.81943">
        <ele>977.4</ele>
      </trkpt>
      <trkpt lat="45.22049" lon="3.81925">
        <ele>977.5</ele>
      </trkpt>
      <trkpt lat="45.22044" lon="3.81914">
        <ele>977.9</ele>
      </trkpt>
      <trkpt lat="45.22039" lon="3.81909">
        <ele>977.8</ele>
      </trkpt>
      <trkpt lat="45.22036" lon="3.81908">
        <ele>977.7</ele>
      </trkpt>
      <trkpt lat="45.22017" lon="3.81902">
        <ele>977.4</ele>
      </trkpt>
      <trkpt lat="45.22019" lon="3.81893">
        <ele>977.5</ele>
      </trkpt>
      <trkpt lat="45.22034" lon="3.81833">
        <ele>978.1</ele>
      </trkpt>
      <trkpt lat="45.22035" lon="3.81827">
        <ele>978.1</ele>
      </trkpt>
      <trkpt lat="45.22038" lon="3.81816">
        <ele>978.3</ele>
      </trkpt>
      <trkpt lat="45.22039" lon="3.81809">
        <ele>978.5</ele>
      </trkpt>
      <trkpt lat="45.22044" lon="3.8179">
        <ele>978.8</ele>
      </trkpt>
      <trkpt lat="45.22049" lon="3.81752">
        <ele>979.4</ele>
      </trkpt>
      <trkpt lat="45.22056" lon="3.81686">
        <ele>981.7</ele>
      </trkpt>
      <trkpt lat="45.2206" lon="3.81637">
        <ele>984.1</ele>
      </trkpt>
      <trkpt lat="45.2206" lon="3.81606">
        <ele>985</ele>
      </trkpt>
      <trkpt lat="45.22064" lon="3.81598">
        <ele>985.3</ele>
      </trkpt>
      <trkpt lat="45.2206" lon="3.81549">
        <ele>986.9</ele>
      </trkpt>
      <trkpt lat="45.22058" lon="3.81497">
        <ele>988.2</ele>
      </trkpt>
      <trkpt lat="45.22056" lon="3.81463">
        <ele>988.5</ele>
      </trkpt>
      <trkpt lat="45.22055" lon="3.81447">
        <ele>988.6</ele>
      </trkpt>
      <trkpt lat="45.22053" lon="3.81408">
        <ele>990</ele>
      </trkpt>
      <trkpt lat="45.22052" lon="3.81383">
        <ele>990.3</ele>
      </trkpt>
      <trkpt lat="45.22049" lon="3.81332">
        <ele>991.4</ele>
      </trkpt>
      <trkpt lat="45.22046" lon="3.81275">
        <ele>991.5</ele>
      </trkpt>
      <trkpt lat="45.22045" lon="3.81256">
        <ele>991.5</ele>
      </trkpt>
      <trkpt lat="45.22052" lon="3.81222">
        <ele>991.2</ele>
      </trkpt>
      <trkpt lat="45.22059" lon="3.81173">
        <ele>990.9</ele>
      </trkpt>
      <trkpt lat="45.22067" lon="3.81116">
        <ele>989.5</ele>
      </trkpt>
      <trkpt lat="45.22068" lon="3.81099">
        <ele>989.5</ele>
      </trkpt>
      <trkpt lat="45.22071" lon="3.81098">
        <ele>989.6</ele>
      </trkpt>
      <trkpt lat="45.22098" lon="3.81082">
        <ele>990.2</ele>
      </trkpt>
      <trkpt lat="45.22149" lon="3.81041">
        <ele>990.8</ele>
      </trkpt>
      <trkpt lat="45.2216" lon="3.81031">
        <ele>990.8</ele>
      </trkpt>
      <trkpt lat="45.22182" lon="3.81007">
        <ele>993.1</ele>
      </trkpt>
      <trkpt lat="45.22183" lon="3.81008">
        <ele>996.06</ele>
        <time>2018-09-16T15:22:35Z</time>
      </trkpt>
      <trkpt lat="45.22202" lon="3.80992">
        <ele>996.06</ele>
        <time>2018-09-16T15:22:19Z</time>
      </trkpt>
      <trkpt lat="45.2222" lon="3.80977">
        <ele>995.58</ele>
        <time>2018-09-16T15:22:02Z</time>
      </trkpt>
      <trkpt lat="45.22239" lon="3.80964">
        <ele>992.7</ele>
        <time>2018-09-16T15:21:45Z</time>
      </trkpt>
      <trkpt lat="45.22246" lon="3.80959">
        <ele>992.22</ele>
        <time>2018-09-16T15:21:39Z</time>
      </trkpt>
      <trkpt lat="45.22264" lon="3.80949">
        <ele>991.74</ele>
        <time>2018-09-16T15:21:23Z</time>
      </trkpt>
      <trkpt lat="45.22278" lon="3.80942">
        <ele>990.78</ele>
        <time>2018-09-16T15:21:09Z</time>
      </trkpt>
      <trkpt lat="45.22284" lon="3.80938">
        <ele>991.26</ele>
        <time>2018-09-16T15:20:55Z</time>
      </trkpt>
      <trkpt lat="45.22305" lon="3.80926">
        <ele>993.18</ele>
        <time>2018-09-16T15:20:38Z</time>
      </trkpt>
      <trkpt lat="45.22312" lon="3.80923">
        <ele>993.66</ele>
        <time>2018-09-16T15:20:34Z</time>
      </trkpt>
      <trkpt lat="45.22329" lon="3.80917">
        <ele>993.18</ele>
        <time>2018-09-16T15:20:20Z</time>
      </trkpt>
      <trkpt lat="45.22347" lon="3.8091">
        <ele>988.85</ele>
        <time>2018-09-16T15:20:04Z</time>
      </trkpt>
      <trkpt lat="45.22361" lon="3.809">
        <ele>987.41</ele>
        <time>2018-09-16T15:19:49Z</time>
      </trkpt>
      <trkpt lat="45.22378" lon="3.80889">
        <ele>988.85</ele>
        <time>2018-09-16T15:19:34Z</time>
      </trkpt>
      <trkpt lat="45.22397" lon="3.80873">
        <ele>988.85</ele>
        <time>2018-09-16T15:19:16Z</time>
      </trkpt>
      <trkpt lat="45.2241" lon="3.80861">
        <ele>986.45</ele>
        <time>2018-09-16T15:19:01Z</time>
      </trkpt>
      <trkpt lat="45.22425" lon="3.80847">
        <ele>984.05</ele>
        <time>2018-09-16T15:18:45Z</time>
      </trkpt>
      <trkpt lat="45.22444" lon="3.8083">
        <ele>982.12</ele>
        <time>2018-09-16T15:18:27Z</time>
      </trkpt>
      <trkpt lat="45.22463" lon="3.80815">
        <ele>981.16</ele>
        <time>2018-09-16T15:18:10Z</time>
      </trkpt>
      <trkpt lat="45.22485" lon="3.80799">
        <ele>981.16</ele>
        <time>2018-09-16T15:17:51Z</time>
      </trkpt>
      <trkpt lat="45.22488" lon="3.80796">
        <ele>980.2</ele>
        <time>2018-09-16T15:17:47Z</time>
      </trkpt>
      <trkpt lat="45.22498" lon="3.80788">
        <ele>980.2</ele>
        <time>2018-09-16T15:17:38Z</time>
      </trkpt>
      <trkpt lat="45.22518" lon="3.80773">
        <ele>980.2</ele>
        <time>2018-09-16T15:17:20Z</time>
      </trkpt>
      <trkpt lat="45.22536" lon="3.80757">
        <ele>979.72</ele>
        <time>2018-09-16T15:17:03Z</time>
      </trkpt>
      <trkpt lat="45.22557" lon="3.80741">
        <ele>980.68</ele>
        <time>2018-09-16T15:16:45Z</time>
      </trkpt>
      <trkpt lat="45.22578" lon="3.80723">
        <ele>982.6</ele>
        <time>2018-09-16T15:16:27Z</time>
      </trkpt>
      <trkpt lat="45.22586" lon="3.80717">
        <ele>982.6</ele>
        <time>2018-09-16T15:16:19Z</time>
      </trkpt>
      <trkpt lat="45.22595" lon="3.80708">
        <ele>985.49</ele>
        <time>2018-09-16T15:16:04Z</time>
      </trkpt>
      <trkpt lat="45.226" lon="3.80704">
        <ele>985.49</ele>
        <time>2018-09-16T15:15:59Z</time>
      </trkpt>
      <trkpt lat="45.22601" lon="3.80703">
        <ele>985.97</ele>
        <time>2018-09-16T15:15:55Z</time>
      </trkpt>
      <trkpt lat="45.22613" lon="3.80692">
        <ele>987.89</ele>
        <time>2018-09-16T15:15:42Z</time>
      </trkpt>
      <trkpt lat="45.22614" lon="3.8069">
        <ele>992.22</ele>
        <time>2018-09-16T15:15:29Z</time>
      </trkpt>
      <trkpt lat="45.22617" lon="3.80685">
        <ele>996.06</ele>
        <time>2018-09-16T15:15:16Z</time>
      </trkpt>
      <trkpt lat="45.22627" lon="3.80674">
        <ele>1000.39</ele>
        <time>2018-09-16T15:15:03Z</time>
      </trkpt>
      <trkpt lat="45.22639" lon="3.80665">
        <ele>998.95</ele>
        <time>2018-09-16T15:14:52Z</time>
      </trkpt>
      <trkpt lat="45.22648" lon="3.80656">
        <ele>997.02</ele>
        <time>2018-09-16T15:14:40Z</time>
      </trkpt>
      <trkpt lat="45.2267" lon="3.80642">
        <ele>993.66</ele>
        <time>2018-09-16T15:14:24Z</time>
      </trkpt>
      <trkpt lat="45.22688" lon="3.80635">
        <ele>991.26</ele>
        <time>2018-09-16T15:14:09Z</time>
      </trkpt>
      <trkpt lat="45.22703" lon="3.80625">
        <ele>987.89</ele>
        <time>2018-09-16T15:13:51Z</time>
      </trkpt>
      <trkpt lat="45.22715" lon="3.80613">
        <ele>986.45</ele>
        <time>2018-09-16T15:13:38Z</time>
      </trkpt>
      <trkpt lat="45.22732" lon="3.80598">
        <ele>988.37</ele>
        <time>2018-09-16T15:13:21Z</time>
      </trkpt>
      <trkpt lat="45.22733" lon="3.80596">
        <ele>988.37</ele>
        <time>2018-09-16T15:13:19Z</time>
      </trkpt>
      <trkpt lat="45.2275" lon="3.80582">
        <ele>987.89</ele>
        <time>2018-09-16T15:13:01Z</time>
      </trkpt>
      <trkpt lat="45.22758" lon="3.80573">
        <ele>987.41</ele>
        <time>2018-09-16T15:12:49Z</time>
      </trkpt>
      <trkpt lat="45.22759" lon="3.80571">
        <ele>985.97</ele>
        <time>2018-09-16T15:12:38Z</time>
      </trkpt>
      <trkpt lat="45.22762" lon="3.80567">
        <ele>985.49</ele>
        <time>2018-09-16T15:12:25Z</time>
      </trkpt>
      <trkpt lat="45.22763" lon="3.80566">
        <ele>983.57</ele>
        <time>2018-09-16T15:12:14Z</time>
      </trkpt>
      <trkpt lat="45.22761" lon="3.80565">
        <ele>981.16</ele>
        <time>2018-09-16T15:12:06Z</time>
      </trkpt>
      <trkpt lat="45.2276" lon="3.80568">
        <ele>981.16</ele>
        <time>2018-09-16T15:12:04Z</time>
      </trkpt>
      <trkpt lat="45.22764" lon="3.80562">
        <ele>982.12</ele>
        <time>2018-09-16T15:11:52Z</time>
      </trkpt>
      <trkpt lat="45.22768" lon="3.80559">
        <ele>983.09</ele>
        <time>2018-09-16T15:11:47Z</time>
      </trkpt>
      <trkpt lat="45.22774" lon="3.80553">
        <ele>985.01</ele>
        <time>2018-09-16T15:11:35Z</time>
      </trkpt>
      <trkpt lat="45.22777" lon="3.80558">
        <ele>985.97</ele>
        <time>2018-09-16T15:11:31Z</time>
      </trkpt>
      <trkpt lat="45.22773" lon="3.80571">
        <ele>985.97</ele>
        <time>2018-09-16T15:11:22Z</time>
      </trkpt>
      <trkpt lat="45.22772" lon="3.80576">
        <ele>986.45</ele>
        <time>2018-09-16T15:11:18Z</time>
      </trkpt>
      <trkpt lat="45.22777" lon="3.80576">
        <ele>986.93</ele>
        <time>2018-09-16T15:11:14Z</time>
      </trkpt>
      <trkpt lat="45.22784" lon="3.8056">
        <ele>988.37</ele>
        <time>2018-09-16T15:11:03Z</time>
      </trkpt>
      <trkpt lat="45.22804" lon="3.80543">
        <ele>989.33</ele>
        <time>2018-09-16T15:10:46Z</time>
      </trkpt>
      <trkpt lat="45.22827" lon="3.8053">
        <ele>989.33</ele>
        <time>2018-09-16T15:10:28Z</time>
      </trkpt>
      <trkpt lat="45.22852" lon="3.80511">
        <ele>989.33</ele>
        <time>2018-09-16T15:10:08Z</time>
      </trkpt>
      <trkpt lat="45.22874" lon="3.80498">
        <ele>988.85</ele>
        <time>2018-09-16T15:09:50Z</time>
      </trkpt>
      <trkpt lat="45.22886" lon="3.8049">
        <ele>987.89</ele>
        <time>2018-09-16T15:09:40Z</time>
      </trkpt>
      <trkpt lat="45.22897" lon="3.80483">
        <ele>988.85</ele>
        <time>2018-09-16T15:09:32Z</time>
      </trkpt>
      <trkpt lat="45.22926" lon="3.80475">
        <ele>987.41</ele>
        <time>2018-09-16T15:09:12Z</time>
      </trkpt>
      <trkpt lat="45.22955" lon="3.80467">
        <ele>985.97</ele>
        <time>2018-09-16T15:08:51Z</time>
      </trkpt>
      <trkpt lat="45.22979" lon="3.80461">
        <ele>986.45</ele>
        <time>2018-09-16T15:08:33Z</time>
      </trkpt>
      <trkpt lat="45.22976" lon="3.80463">
        <ele>980.1</ele>
      </trkpt>
      <trkpt lat="45.22968" lon="3.80465">
        <ele>980.2</ele>
      </trkpt>
      <trkpt lat="45.2298" lon="3.80485">
        <ele>980.2</ele>
      </trkpt>
      <trkpt lat="45.22994" lon="3.80509">
        <ele>980.7</ele>
      </trkpt>
      <trkpt lat="45.23003" lon="3.80518">
        <ele>979.3</ele>
      </trkpt>
      <trkpt lat="45.23011" lon="3.80522">
        <ele>979.1</ele>
      </trkpt>
      <trkpt lat="45.23027" lon="3.80525">
        <ele>978.7</ele>
      </trkpt>
      <trkpt lat="45.23086" lon="3.8053">
        <ele>975.8</ele>
      </trkpt>
      <trkpt lat="45.23104" lon="3.80533">
        <ele>975.6</ele>
      </trkpt>
      <trkpt lat="45.23131" lon="3.80542">
        <ele>975.2</ele>
      </trkpt>
      <trkpt lat="45.23155" lon="3.8055">
        <ele>974.7</ele>
      </trkpt>
      <trkpt lat="45.23166" lon="3.80558">
        <ele>974.2</ele>
      </trkpt>
      <trkpt lat="45.23181" lon="3.80571">
        <ele>973.6</ele>
      </trkpt>
      <trkpt lat="45.23196" lon="3.80585">
        <ele>970.7</ele>
      </trkpt>
      <trkpt lat="45.2324" lon="3.80622">
        <ele>969.2</ele>
      </trkpt>
      <trkpt lat="45.23268" lon="3.80641">
        <ele>963.3</ele>
      </trkpt>
      <trkpt lat="45.23304" lon="3.80669">
        <ele>956.1</ele>
      </trkpt>
      <trkpt lat="45.23338" lon="3.80694">
        <ele>952.1</ele>
      </trkpt>
      <trkpt lat="45.23376" lon="3.8072">
        <ele>951.5</ele>
      </trkpt>
      <trkpt lat="45.2339" lon="3.80729">
        <ele>951.3</ele>
      </trkpt>
      <trkpt lat="45.23399" lon="3.8073">
        <ele>951.1</ele>
      </trkpt>
      <trkpt lat="45.23408" lon="3.80729">
        <ele>951.1</ele>
      </trkpt>
      <trkpt lat="45.23428" lon="3.80726">
        <ele>955</ele>
      </trkpt>
      <trkpt lat="45.23455" lon="3.80726">
        <ele>956.9</ele>
      </trkpt>
      <trkpt lat="45.2348" lon="3.80729">
        <ele>958.3</ele>
      </trkpt>
      <trkpt lat="45.23512" lon="3.80736">
        <ele>961.2</ele>
      </trkpt>
      <trkpt lat="45.2354" lon="3.80743">
        <ele>961.9</ele>
      </trkpt>
      <trkpt lat="45.23564" lon="3.80749">
        <ele>961.6</ele>
      </trkpt>
      <trkpt lat="45.23601" lon="3.80756">
        <ele>957.2</ele>
      </trkpt>
      <trkpt lat="45.23643" lon="3.80761">
        <ele>955.5</ele>
      </trkpt>
      <trkpt lat="45.2368" lon="3.80769">
        <ele>955</ele>
      </trkpt>
      <trkpt lat="45.23732" lon="3.80777">
        <ele>955.4</ele>
      </trkpt>
      <trkpt lat="45.23766" lon="3.80779">
        <ele>954.7</ele>
      </trkpt>
      <trkpt lat="45.23791" lon="3.80775">
        <ele>954.1</ele>
      </trkpt>
      <trkpt lat="45.23833" lon="3.80766">
        <ele>953.3</ele>
      </trkpt>
      <trkpt lat="45.23858" lon="3.80759">
        <ele>951</ele>
      </trkpt>
      <trkpt lat="45.23885" lon="3.80751">
        <ele>950</ele>
      </trkpt>
      <trkpt lat="45.23905" lon="3.8075">
        <ele>950.5</ele>
      </trkpt>
      <trkpt lat="45.23918" lon="3.80751">
        <ele>949</ele>
      </trkpt>
      <trkpt lat="45.23932" lon="3.80754">
        <ele>948.7</ele>
      </trkpt>
      <trkpt lat="45.23942" lon="3.80754">
        <ele>948.7</ele>
      </trkpt>
      <trkpt lat="45.23964" lon="3.80749">
        <ele>951.1</ele>
      </trkpt>
      <trkpt lat="45.23982" lon="3.80736">
        <ele>951.2</ele>
      </trkpt>
      <trkpt lat="45.23984" lon="3.80744">
        <ele>950.9</ele>
      </trkpt>
      <trkpt lat="45.23987" lon="3.80754">
        <ele>949.3</ele>
      </trkpt>
      <trkpt lat="45.23984" lon="3.80744">
        <ele>950.9</ele>
      </trkpt>
      <trkpt lat="45.23982" lon="3.80736">
        <ele>951.2</ele>
      </trkpt>
      <trkpt lat="45.23975" lon="3.80698">
        <ele>952.6</ele>
      </trkpt>
      <trkpt lat="45.23965" lon="3.80646">
        <ele>958</ele>
      </trkpt>
      <trkpt lat="45.23957" lon="3.80598">
        <ele>960.3</ele>
      </trkpt>
      <trkpt lat="45.23948" lon="3.80558">
        <ele>965.2</ele>
      </trkpt>
      <trkpt lat="45.23934" lon="3.8048">
        <ele>968.3</ele>
      </trkpt>
      <trkpt lat="45.23928" lon="3.80442">
        <ele>968.5</ele>
      </trkpt>
      <trkpt lat="45.23922" lon="3.80375">
        <ele>970.9</ele>
      </trkpt>
      <trkpt lat="45.23915" lon="3.80295">
        <ele>972.7</ele>
      </trkpt>
      <trkpt lat="45.23914" lon="3.80277">
        <ele>972.5</ele>
      </trkpt>
      <trkpt lat="45.23918" lon="3.80234">
        <ele>972.7</ele>
      </trkpt>
      <trkpt lat="45.23926" lon="3.80173">
        <ele>974.4</ele>
      </trkpt>
      <trkpt lat="45.23928" lon="3.8016">
        <ele>975.7</ele>
      </trkpt>
      <trkpt lat="45.23899" lon="3.80128">
        <ele>977.5</ele>
      </trkpt>
      <trkpt lat="45.23887" lon="3.8012">
        <ele>977.8</ele>
      </trkpt>
      <trkpt lat="45.23874" lon="3.80115">
        <ele>978</ele>
      </trkpt>
      <trkpt lat="45.23838" lon="3.80108">
        <ele>978.8</ele>
      </trkpt>
      <trkpt lat="45.23813" lon="3.80108">
        <ele>980.4</ele>
      </trkpt>
      <trkpt lat="45.23799" lon="3.80109">
        <ele>980.6</ele>
      </trkpt>
      <trkpt lat="45.23772" lon="3.80116">
        <ele>981.1</ele>
      </trkpt>
      <trkpt lat="45.23754" lon="3.80119">
        <ele>981.2</ele>
      </trkpt>
      <trkpt lat="45.23753" lon="3.80119">
        <ele>981.2</ele>
      </trkpt>
      <trkpt lat="45.23754" lon="3.80119">
        <ele>981.2</ele>
      </trkpt>
      <trkpt lat="45.2376" lon="3.80105">
        <ele>982.1</ele>
      </trkpt>
      <trkpt lat="45.23762" lon="3.80093">
        <ele>982.8</ele>
      </trkpt>
      <trkpt lat="45.23763" lon="3.80071">
        <ele>984.7</ele>
      </trkpt>
      <trkpt lat="45.23763" lon="3.8005">
        <ele>984.9</ele>
      </trkpt>
      <trkpt lat="45.23763" lon="3.80027">
        <ele>985.6</ele>
      </trkpt>
      <trkpt lat="45.23764" lon="3.80009">
        <ele>986.3</ele>
      </trkpt>
      <trkpt lat="45.23769" lon="3.79982">
        <ele>987.8</ele>
      </trkpt>
      <trkpt lat="45.23775" lon="3.79949">
        <ele>988.3</ele>
      </trkpt>
      <trkpt lat="45.23781" lon="3.79921">
        <ele>988.7</ele>
      </trkpt>
      <trkpt lat="45.23789" lon="3.79893">
        <ele>990.1</ele>
      </trkpt>
      <trkpt lat="45.23799" lon="3.79859">
        <ele>990.4</ele>
      </trkpt>
      <trkpt lat="45.23808" lon="3.79827">
        <ele>992.2</ele>
      </trkpt>
      <trkpt lat="45.23812" lon="3.79809">
        <ele>992.6</ele>
      </trkpt>
      <trkpt lat="45.23811" lon="3.798">
        <ele>992.9</ele>
      </trkpt>
      <trkpt lat="45.2381" lon="3.79792">
        <ele>993.2</ele>
      </trkpt>
      <trkpt lat="45.23805" lon="3.7978">
        <ele>993.5</ele>
      </trkpt>
      <trkpt lat="45.23797" lon="3.79763">
        <ele>993.8</ele>
      </trkpt>
      <trkpt lat="45.23793" lon="3.79751">
        <ele>993.8</ele>
      </trkpt>
      <trkpt lat="45.23797" lon="3.79763">
        <ele>993.8</ele>
      </trkpt>
      <trkpt lat="45.23806" lon="3.79757">
        <ele>994.3</ele>
      </trkpt>
      <trkpt lat="45.23823" lon="3.79754">
        <ele>995.6</ele>
      </trkpt>
      <trkpt lat="45.23845" lon="3.79751">
        <ele>996.6</ele>
      </trkpt>
      <trkpt lat="45.23866" lon="3.79746">
        <ele>1000</ele>
      </trkpt>
      <trkpt lat="45.23878" lon="3.79742">
        <ele>1000.6</ele>
      </trkpt>
      <trkpt lat="45.2393" lon="3.79715">
        <ele>1004.5</ele>
      </trkpt>
      <trkpt lat="45.23993" lon="3.79678">
        <ele>1008.2</ele>
      </trkpt>
      <trkpt lat="45.2402" lon="3.79658">
        <ele>1009.7</ele>
      </trkpt>
      <trkpt lat="45.24037" lon="3.7964">
        <ele>1009.6</ele>
      </trkpt>
      <trkpt lat="45.24043" lon="3.79637">
        <ele>1009.6</ele>
      </trkpt>
      <trkpt lat="45.24058" lon="3.79628">
        <ele>1009.5</ele>
      </trkpt>
      <trkpt lat="45.24079" lon="3.79628">
        <ele>1009.2</ele>
      </trkpt>
      <trkpt lat="45.24089" lon="3.79628">
        <ele>1007.8</ele>
      </trkpt>
      <trkpt lat="45.24102" lon="3.79629">
        <ele>1007.7</ele>
      </trkpt>
      <trkpt lat="45.24158" lon="3.79627">
        <ele>1007.2</ele>
      </trkpt>
      <trkpt lat="45.24154" lon="3.79581">
        <ele>1006.7</ele>
      </trkpt>
      <trkpt lat="45.2415" lon="3.79553">
        <ele>1007.1</ele>
      </trkpt>
      <trkpt lat="45.24145" lon="3.79526">
        <ele>1007.1</ele>
      </trkpt>
      <trkpt lat="45.24139" lon="3.79498">
        <ele>1006.3</ele>
      </trkpt>
      <trkpt lat="45.24138" lon="3.79487">
        <ele>1006.3</ele>
      </trkpt>
      <trkpt lat="45.24139" lon="3.7948">
        <ele>1006.2</ele>
      </trkpt>
      <trkpt lat="45.24153" lon="3.79461">
        <ele>1005.9</ele>
      </trkpt>
      <trkpt lat="45.24159" lon="3.79449">
        <ele>1005.6</ele>
      </trkpt>
      <trkpt lat="45.24163" lon="3.79439">
        <ele>1005.3</ele>
      </trkpt>
      <trkpt lat="45.24179" lon="3.79413">
        <ele>1004.7</ele>
      </trkpt>
      <trkpt lat="45.24195" lon="3.79386">
        <ele>1005.4</ele>
      </trkpt>
      <trkpt lat="45.24207" lon="3.79357">
        <ele>1005.4</ele>
      </trkpt>
      <trkpt lat="45.24221" lon="3.79321">
        <ele>1005</ele>
      </trkpt>
      <trkpt lat="45.24233" lon="3.79292">
        <ele>1005</ele>
      </trkpt>
      <trkpt lat="45.24236" lon="3.79285">
        <ele>1005.1</ele>
      </trkpt>
      <trkpt lat="45.24242" lon="3.79273">
        <ele>1005.1</ele>
      </trkpt>
      <trkpt lat="45.24247" lon="3.79263">
        <ele>1005.1</ele>
      </trkpt>
      <trkpt lat="45.2426" lon="3.79236">
        <ele>1006.6</ele>
      </trkpt>
      <trkpt lat="45.24292" lon="3.79186">
        <ele>1008.5</ele>
      </trkpt>
      <trkpt lat="45.24311" lon="3.79158">
        <ele>1009.2</ele>
      </trkpt>
      <trkpt lat="45.24334" lon="3.79125">
        <ele>1006.8</ele>
      </trkpt>
      <trkpt lat="45.24343" lon="3.79111">
        <ele>1006.6</ele>
      </trkpt>
      <trkpt lat="45.24353" lon="3.79091">
        <ele>1006.5</ele>
      </trkpt>
      <trkpt lat="45.24365" lon="3.79074">
        <ele>1006.9</ele>
      </trkpt>
      <trkpt lat="45.24378" lon="3.79055">
        <ele>1006.9</ele>
      </trkpt>
      <trkpt lat="45.24392" lon="3.79039">
        <ele>1007</ele>
      </trkpt>
      <trkpt lat="45.24411" lon="3.79023">
        <ele>1007.3</ele>
      </trkpt>
      <trkpt lat="45.24412" lon="3.79021">
        <ele>1007.4</ele>
      </trkpt>
      <trkpt lat="45.24412" lon="3.79021">
        <ele>1007.4</ele>
      </trkpt>
      <trkpt lat="45.24414" lon="3.79003">
        <ele>1007.8</ele>
      </trkpt>
      <trkpt lat="45.24419" lon="3.78975">
        <ele>1007</ele>
      </trkpt>
      <trkpt lat="45.24424" lon="3.78951">
        <ele>1006.9</ele>
      </trkpt>
      <trkpt lat="45.24429" lon="3.78921">
        <ele>1007.7</ele>
      </trkpt>
      <trkpt lat="45.24439" lon="3.78851">
        <ele>1009.1</ele>
      </trkpt>
      <trkpt lat="45.24439" lon="3.78849">
        <ele>1009.1</ele>
      </trkpt>
      <trkpt lat="45.24451" lon="3.78774">
        <ele>1012</ele>
      </trkpt>
      <trkpt lat="45.24454" lon="3.78751">
        <ele>1012</ele>
      </trkpt>
      <trkpt lat="45.24458" lon="3.78752">
        <ele>1024.9</ele>
        <time>2018-09-16T13:58:22Z</time>
      </trkpt>
      <trkpt lat="45.24444" lon="3.78733">
        <ele>1024.42</ele>
        <time>2018-09-16T13:58:04Z</time>
      </trkpt>
      <trkpt lat="45.24432" lon="3.78718">
        <ele>1022.98</ele>
        <time>2018-09-16T13:57:50Z</time>
      </trkpt>
      <trkpt lat="45.24417" lon="3.78705">
        <ele>1021.54</ele>
        <time>2018-09-16T13:57:35Z</time>
      </trkpt>
      <trkpt lat="45.24401" lon="3.78678">
        <ele>1022.98</ele>
        <time>2018-09-16T13:57:20Z</time>
      </trkpt>
      <trkpt lat="45.24386" lon="3.78639">
        <ele>1025.86</ele>
        <time>2018-09-16T13:57:04Z</time>
      </trkpt>
      <trkpt lat="45.24373" lon="3.78605">
        <ele>1027.31</ele>
        <time>2018-09-16T13:56:50Z</time>
      </trkpt>
      <trkpt lat="45.24355" lon="3.78566">
        <ele>1026.83</ele>
        <time>2018-09-16T13:56:34Z</time>
      </trkpt>
      <trkpt lat="45.24343" lon="3.78546">
        <ele>1025.86</ele>
        <time>2018-09-16T13:56:24Z</time>
      </trkpt>
      <trkpt lat="45.24332" lon="3.78526">
        <ele>1026.83</ele>
        <time>2018-09-16T13:56:12Z</time>
      </trkpt>
      <trkpt lat="45.24313" lon="3.78499">
        <ele>1034.04</ele>
        <time>2018-09-16T13:55:57Z</time>
      </trkpt>
      <trkpt lat="45.24301" lon="3.78476">
        <ele>1038.36</ele>
        <time>2018-09-16T13:55:42Z</time>
      </trkpt>
      <trkpt lat="45.2429" lon="3.78454">
        <ele>1036.92</ele>
        <time>2018-09-16T13:55:25Z</time>
      </trkpt>
      <trkpt lat="45.24276" lon="3.78428">
        <ele>1035.96</ele>
        <time>2018-09-16T13:55:10Z</time>
      </trkpt>
      <trkpt lat="45.24266" lon="3.78412">
        <ele>1034.52</ele>
        <time>2018-09-16T13:54:56Z</time>
      </trkpt>
      <trkpt lat="45.24258" lon="3.78402">
        <ele>1033.55</ele>
        <time>2018-09-16T13:54:40Z</time>
      </trkpt>
      <trkpt lat="45.24253" lon="3.78397">
        <ele>1033.55</ele>
        <time>2018-09-16T13:54:25Z</time>
      </trkpt>
      <trkpt lat="45.24244" lon="3.78388">
        <ele>1035.48</ele>
        <time>2018-09-16T13:54:10Z</time>
      </trkpt>
      <trkpt lat="45.24227" lon="3.78376">
        <ele>1031.15</ele>
        <time>2018-09-16T13:53:55Z</time>
      </trkpt>
      <trkpt lat="45.24216" lon="3.78366">
        <ele>1029.71</ele>
        <time>2018-09-16T13:53:46Z</time>
      </trkpt>
      <trkpt lat="45.24202" lon="3.7836">
        <ele>1023.46</ele>
        <time>2018-09-16T13:53:32Z</time>
      </trkpt>
      <trkpt lat="45.24194" lon="3.78353">
        <ele>1022.02</ele>
        <time>2018-09-16T13:53:18Z</time>
      </trkpt>
      <trkpt lat="45.24172" lon="3.78331">
        <ele>1034.52</ele>
        <time>2018-09-16T13:53:04Z</time>
      </trkpt>
      <trkpt lat="45.24143" lon="3.7832">
        <ele>1045.09</ele>
        <time>2018-09-16T13:52:49Z</time>
      </trkpt>
      <trkpt lat="45.24128" lon="3.78311">
        <ele>1043.17</ele>
        <time>2018-09-16T13:52:34Z</time>
      </trkpt>
      <trkpt lat="45.24115" lon="3.78306">
        <ele>1039.32</ele>
        <time>2018-09-16T13:52:23Z</time>
      </trkpt>
      <trkpt lat="45.24109" lon="3.78301">
        <ele>1038.36</ele>
        <time>2018-09-16T13:52:10Z</time>
      </trkpt>
      <trkpt lat="45.241" lon="3.78299">
        <ele>1043.65</ele>
        <time>2018-09-16T13:51:58Z</time>
      </trkpt>
      <trkpt lat="45.24081" lon="3.78304">
        <ele>1054.7</ele>
        <time>2018-09-16T13:51:44Z</time>
      </trkpt>
      <trkpt lat="45.24062" lon="3.78306">
        <ele>1047.97</ele>
        <time>2018-09-16T13:51:28Z</time>
      </trkpt>
      <trkpt lat="45.24044" lon="3.78309">
        <ele>1045.09</ele>
        <time>2018-09-16T13:51:15Z</time>
      </trkpt>
      <trkpt lat="45.24023" lon="3.78315">
        <ele>1044.61</ele>
        <time>2018-09-16T13:50:59Z</time>
      </trkpt>
      <trkpt lat="45.24004" lon="3.78317">
        <ele>1044.13</ele>
        <time>2018-09-16T13:50:45Z</time>
      </trkpt>
      <trkpt lat="45.23983" lon="3.78322">
        <ele>1042.21</ele>
        <time>2018-09-16T13:50:30Z</time>
      </trkpt>
      <trkpt lat="45.23976" lon="3.78324">
        <ele>1039.32</ele>
        <time>2018-09-16T13:50:22Z</time>
      </trkpt>
      <trkpt lat="45.23962" lon="3.78323">
        <ele>1034.04</ele>
        <time>2018-09-16T13:50:08Z</time>
      </trkpt>
      <trkpt lat="45.23945" lon="3.7832">
        <ele>1029.23</ele>
        <time>2018-09-16T13:49:55Z</time>
      </trkpt>
      <trkpt lat="45.23934" lon="3.7832">
        <ele>1029.23</ele>
        <time>2018-09-16T13:49:44Z</time>
      </trkpt>
      <trkpt lat="45.23918" lon="3.78323">
        <ele>1029.71</ele>
        <time>2018-09-16T13:49:29Z</time>
      </trkpt>
      <trkpt lat="45.23895" lon="3.78316">
        <ele>1026.34</ele>
        <time>2018-09-16T13:49:14Z</time>
      </trkpt>
      <trkpt lat="45.23878" lon="3.78314">
        <ele>1028.75</ele>
        <time>2018-09-16T13:49:02Z</time>
      </trkpt>
      <trkpt lat="45.23853" lon="3.78312">
        <ele>1028.27</ele>
        <time>2018-09-16T13:48:47Z</time>
      </trkpt>
      <trkpt lat="45.23838" lon="3.78306">
        <ele>1023.94</ele>
        <time>2018-09-16T13:48:35Z</time>
      </trkpt>
      <trkpt lat="45.23824" lon="3.78299">
        <ele>1018.17</ele>
        <time>2018-09-16T13:48:19Z</time>
      </trkpt>
      <trkpt lat="45.23819" lon="3.78292">
        <ele>1015.29</ele>
        <time>2018-09-16T13:48:04Z</time>
      </trkpt>
      <trkpt lat="45.23813" lon="3.78288">
        <ele>1008.56</ele>
        <time>2018-09-16T13:47:50Z</time>
      </trkpt>
      <trkpt lat="45.23807" lon="3.78283">
        <ele>998.95</ele>
        <time>2018-09-16T13:47:39Z</time>
      </trkpt>
      <trkpt lat="45.23794" lon="3.78274">
        <ele>989.81</ele>
        <time>2018-09-16T13:47:26Z</time>
      </trkpt>
      <trkpt lat="45.23782" lon="3.7826">
        <ele>989.33</ele>
        <time>2018-09-16T13:47:11Z</time>
      </trkpt>
      <trkpt lat="45.23772" lon="3.78251">
        <ele>989.33</ele>
        <time>2018-09-16T13:46:58Z</time>
      </trkpt>
      <trkpt lat="45.23754" lon="3.78231">
        <ele>985.97</ele>
        <time>2018-09-16T13:46:40Z</time>
      </trkpt>
      <trkpt lat="45.23751" lon="3.78226">
        <ele>985.49</ele>
        <time>2018-09-16T13:46:36Z</time>
      </trkpt>
      <trkpt lat="45.23739" lon="3.78204">
        <ele>980.68</ele>
        <time>2018-09-16T13:46:20Z</time>
      </trkpt>
      <trkpt lat="45.23728" lon="3.78176">
        <ele>975.88</ele>
        <time>2018-09-16T13:46:03Z</time>
      </trkpt>
      <trkpt lat="45.23707" lon="3.78153">
        <ele>965.78</ele>
        <time>2018-09-16T13:45:46Z</time>
      </trkpt>
      <trkpt lat="45.23692" lon="3.78138">
        <ele>959.53</ele>
        <time>2018-09-16T13:45:32Z</time>
      </trkpt>
      <trkpt lat="45.23677" lon="3.78115">
        <ele>954.73</ele>
        <time>2018-09-16T13:45:17Z</time>
      </trkpt>
      <trkpt lat="45.23671" lon="3.78087">
        <ele>952.8</ele>
        <time>2018-09-16T13:45:02Z</time>
      </trkpt>
      <trkpt lat="45.23671" lon="3.78064">
        <ele>957.13</ele>
        <time>2018-09-16T13:44:49Z</time>
      </trkpt>
      <trkpt lat="45.23666" lon="3.78041">
        <ele>960.98</ele>
        <time>2018-09-16T13:44:34Z</time>
      </trkpt>
      <trkpt lat="45.2366" lon="3.78018">
        <ele>963.38</ele>
        <time>2018-09-16T13:44:20Z</time>
      </trkpt>
      <trkpt lat="45.2365" lon="3.77992">
        <ele>966.74</ele>
        <time>2018-09-16T13:44:04Z</time>
      </trkpt>
      <trkpt lat="45.23643" lon="3.77977">
        <ele>966.74</ele>
        <time>2018-09-16T13:43:57Z</time>
      </trkpt>
      <trkpt lat="45.23635" lon="3.77954">
        <ele>968.18</ele>
        <time>2018-09-16T13:43:43Z</time>
      </trkpt>
      <trkpt lat="45.23621" lon="3.77937">
        <ele>970.59</ele>
        <time>2018-09-16T13:43:28Z</time>
      </trkpt>
      <trkpt lat="45.23606" lon="3.77921">
        <ele>971.55</ele>
        <time>2018-09-16T13:43:11Z</time>
      </trkpt>
      <trkpt lat="45.23589" lon="3.77903">
        <ele>971.55</ele>
        <time>2018-09-16T13:42:55Z</time>
      </trkpt>
      <trkpt lat="45.23586" lon="3.779">
        <ele>971.55</ele>
        <time>2018-09-16T13:42:53Z</time>
      </trkpt>
      <trkpt lat="45.23572" lon="3.77865">
        <ele>972.03</ele>
        <time>2018-09-16T13:42:34Z</time>
      </trkpt>
      <trkpt lat="45.23563" lon="3.77839">
        <ele>974.43</ele>
        <time>2018-09-16T13:42:19Z</time>
      </trkpt>
      <trkpt lat="45.23556" lon="3.77816">
        <ele>974.43</ele>
        <time>2018-09-16T13:42:05Z</time>
      </trkpt>
      <trkpt lat="45.23555" lon="3.778">
        <ele>976.36</ele>
        <time>2018-09-16T13:41:55Z</time>
      </trkpt>
      <trkpt lat="45.23554" lon="3.77792">
        <ele>976.84</ele>
        <time>2018-09-16T13:41:50Z</time>
      </trkpt>
      <trkpt lat="45.23545" lon="3.77771">
        <ele>979.72</ele>
        <time>2018-09-16T13:41:35Z</time>
      </trkpt>
      <trkpt lat="45.23523" lon="3.77758">
        <ele>983.09</ele>
        <time>2018-09-16T13:41:18Z</time>
      </trkpt>
      <trkpt lat="45.23502" lon="3.77744">
        <ele>989.81</ele>
        <time>2018-09-16T13:41:00Z</time>
      </trkpt>
      <trkpt lat="45.23486" lon="3.77727">
        <ele>995.1</ele>
        <time>2018-09-16T13:40:42Z</time>
      </trkpt>
      <trkpt lat="45.23481" lon="3.77724">
        <ele>996.54</ele>
        <time>2018-09-16T13:40:34Z</time>
      </trkpt>
      <trkpt lat="45.2348" lon="3.77724">
        <ele>999.43</ele>
        <time>2018-09-16T13:40:10Z</time>
      </trkpt>
      <trkpt lat="45.23479" lon="3.77722">
        <ele>1001.83</ele>
        <time>2018-09-16T13:39:57Z</time>
      </trkpt>
      <trkpt lat="45.23475" lon="3.77724">
        <ele>1005.68</ele>
        <time>2018-09-16T13:39:44Z</time>
      </trkpt>
      <trkpt lat="45.23468" lon="3.77721">
        <ele>1015.29</ele>
        <time>2018-09-16T13:39:33Z</time>
      </trkpt>
      <trkpt lat="45.23462" lon="3.77719">
        <ele>1021.54</ele>
        <time>2018-09-16T13:39:24Z</time>
      </trkpt>
      <trkpt lat="45.23461" lon="3.77719">
        <ele>1022.5</ele>
        <time>2018-09-16T13:39:19Z</time>
      </trkpt>
      <trkpt lat="45.23456" lon="3.77719">
        <ele>1023.46</ele>
        <time>2018-09-16T13:39:08Z</time>
      </trkpt>
      <trkpt lat="45.23448" lon="3.77725">
        <ele>1019.13</ele>
        <time>2018-09-16T13:38:54Z</time>
      </trkpt>
      <trkpt lat="45.23447" lon="3.77725">
        <ele>1018.65</ele>
        <time>2018-09-16T13:38:52Z</time>
      </trkpt>
      <trkpt lat="45.23434" lon="3.77729">
        <ele>1018.65</ele>
        <time>2018-09-16T13:38:39Z</time>
      </trkpt>
      <trkpt lat="45.23403" lon="3.77735">
        <ele>1028.27</ele>
        <time>2018-09-16T13:38:24Z</time>
      </trkpt>
      <trkpt lat="45.23401" lon="3.77737">
        <ele>1028.27</ele>
        <time>2018-09-16T13:38:22Z</time>
      </trkpt>
      <trkpt lat="45.23382" lon="3.77748">
        <ele>1025.38</ele>
        <time>2018-09-16T13:38:06Z</time>
      </trkpt>
      <trkpt lat="45.23364" lon="3.77751">
        <ele>1019.62</ele>
        <time>2018-09-16T13:37:49Z</time>
      </trkpt>
      <trkpt lat="45.23346" lon="3.77747">
        <ele>1011.44</ele>
        <time>2018-09-16T13:37:34Z</time>
      </trkpt>
      <trkpt lat="45.23342" lon="3.77748">
        <ele>1009.52</ele>
        <time>2018-09-16T13:37:31Z</time>
      </trkpt>
      <trkpt lat="45.23327" lon="3.77749">
        <ele>1005.2</ele>
        <time>2018-09-16T13:37:16Z</time>
      </trkpt>
      <trkpt lat="45.2331" lon="3.77737">
        <ele>998.95</ele>
        <time>2018-09-16T13:36:59Z</time>
      </trkpt>
      <trkpt lat="45.23302" lon="3.77724">
        <ele>996.54</ele>
        <time>2018-09-16T13:36:45Z</time>
      </trkpt>
      <trkpt lat="45.23292" lon="3.77716">
        <ele>996.54</ele>
        <time>2018-09-16T13:36:32Z</time>
      </trkpt>
      <trkpt lat="45.23278" lon="3.7771">
        <ele>994.14</ele>
        <time>2018-09-16T13:36:18Z</time>
      </trkpt>
      <trkpt lat="45.23262" lon="3.77706">
        <ele>988.37</ele>
        <time>2018-09-16T13:36:02Z</time>
      </trkpt>
      <trkpt lat="45.23252" lon="3.7769">
        <ele>984.05</ele>
        <time>2018-09-16T13:35:46Z</time>
      </trkpt>
      <trkpt lat="45.23237" lon="3.77663">
        <ele>983.57</ele>
        <time>2018-09-16T13:35:27Z</time>
      </trkpt>
      <trkpt lat="45.2322" lon="3.77635">
        <ele>985.01</ele>
        <time>2018-09-16T13:35:08Z</time>
      </trkpt>
      <trkpt lat="45.23205" lon="3.77602">
        <ele>987.41</ele>
        <time>2018-09-16T13:34:49Z</time>
      </trkpt>
      <trkpt lat="45.23194" lon="3.7757">
        <ele>990.3</ele>
        <time>2018-09-16T13:34:30Z</time>
      </trkpt>
      <trkpt lat="45.23188" lon="3.77541">
        <ele>992.7</ele>
        <time>2018-09-16T13:34:13Z</time>
      </trkpt>
      <trkpt lat="45.23184" lon="3.77503">
        <ele>995.58</ele>
        <time>2018-09-16T13:33:53Z</time>
      </trkpt>
      <trkpt lat="45.23182" lon="3.77488">
        <ele>997.02</ele>
        <time>2018-09-16T13:33:45Z</time>
      </trkpt>
      <trkpt lat="45.23181" lon="3.77476">
        <ele>997.99</ele>
        <time>2018-09-16T13:33:39Z</time>
      </trkpt>
      <trkpt lat="45.23183" lon="3.77443">
        <ele>1001.83</ele>
        <time>2018-09-16T13:33:23Z</time>
      </trkpt>
      <trkpt lat="45.23184" lon="3.7741">
        <ele>1005.2</ele>
        <time>2018-09-16T13:33:07Z</time>
      </trkpt>
      <trkpt lat="45.23182" lon="3.77381">
        <ele>1008.56</ele>
        <time>2018-09-16T13:32:52Z</time>
      </trkpt>
      <trkpt lat="45.23179" lon="3.77351">
        <ele>1011.93</ele>
        <time>2018-09-16T13:32:35Z</time>
      </trkpt>
      <trkpt lat="45.23164" lon="3.77327">
        <ele>1015.29</ele>
        <time>2018-09-16T13:32:19Z</time>
      </trkpt>
      <trkpt lat="45.23149" lon="3.77294">
        <ele>1019.62</ele>
        <time>2018-09-16T13:32:01Z</time>
      </trkpt>
      <trkpt lat="45.23135" lon="3.77262">
        <ele>1022.98</ele>
        <time>2018-09-16T13:31:43Z</time>
      </trkpt>
      <trkpt lat="45.2313" lon="3.77247">
        <ele>1025.86</ele>
        <time>2018-09-16T13:31:28Z</time>
      </trkpt>
      <trkpt lat="45.23121" lon="3.77222">
        <ele>1030.67</ele>
        <time>2018-09-16T13:31:12Z</time>
      </trkpt>
      <trkpt lat="45.23119" lon="3.77189">
        <ele>1031.15</ele>
        <time>2018-09-16T13:30:55Z</time>
      </trkpt>
      <trkpt lat="45.23131" lon="3.77177">
        <ele>1029.71</ele>
        <time>2018-09-16T13:30:42Z</time>
      </trkpt>
      <trkpt lat="45.23141" lon="3.7717">
        <ele>1030.19</ele>
        <time>2018-09-16T13:30:33Z</time>
      </trkpt>
      <trkpt lat="45.2315" lon="3.77163">
        <ele>1031.15</ele>
        <time>2018-09-16T13:30:25Z</time>
      </trkpt>
      <trkpt lat="45.23152" lon="3.77148">
        <ele>1031.15</ele>
        <time>2018-09-16T13:30:17Z</time>
      </trkpt>
      <trkpt lat="45.23146" lon="3.77128">
        <ele>1030.67</ele>
        <time>2018-09-16T13:30:04Z</time>
      </trkpt>
      <trkpt lat="45.23137" lon="3.77098">
        <ele>1029.23</ele>
        <time>2018-09-16T13:29:46Z</time>
      </trkpt>
      <trkpt lat="45.23135" lon="3.77066">
        <ele>1029.71</ele>
        <time>2018-09-16T13:29:29Z</time>
      </trkpt>
      <trkpt lat="45.23125" lon="3.77032">
        <ele>1030.67</ele>
        <time>2018-09-16T13:29:10Z</time>
      </trkpt>
      <trkpt lat="45.23109" lon="3.77006">
        <ele>1032.59</ele>
        <time>2018-09-16T13:28:52Z</time>
      </trkpt>
      <trkpt lat="45.23084" lon="3.76994">
        <ele>1035</ele>
        <time>2018-09-16T13:28:34Z</time>
      </trkpt>
      <trkpt lat="45.2306" lon="3.76998">
        <ele>1035.48</ele>
        <time>2018-09-16T13:28:17Z</time>
      </trkpt>
      <trkpt lat="45.23039" lon="3.77">
        <ele>1034.04</ele>
        <time>2018-09-16T13:28:00Z</time>
      </trkpt>
      <trkpt lat="45.23017" lon="3.7699">
        <ele>1035.96</ele>
        <time>2018-09-16T13:27:42Z</time>
      </trkpt>
      <trkpt lat="45.22999" lon="3.76967">
        <ele>1036.92</ele>
        <time>2018-09-16T13:27:23Z</time>
      </trkpt>
      <trkpt lat="45.22979" lon="3.76934">
        <ele>1039.8</ele>
        <time>2018-09-16T13:27:00Z</time>
      </trkpt>
      <trkpt lat="45.22965" lon="3.76895">
        <ele>1043.17</ele>
        <time>2018-09-16T13:26:39Z</time>
      </trkpt>
      <trkpt lat="45.22949" lon="3.7686">
        <ele>1046.53</ele>
        <time>2018-09-16T13:26:18Z</time>
      </trkpt>
      <trkpt lat="45.22936" lon="3.7682">
        <ele>1050.38</ele>
        <time>2018-09-16T13:25:56Z</time>
      </trkpt>
      <trkpt lat="45.22931" lon="3.76781">
        <ele>1048.94</ele>
        <time>2018-09-16T13:25:35Z</time>
      </trkpt>
      <trkpt lat="45.22935" lon="3.76772">
        <ele>1047.97</ele>
        <time>2018-09-16T13:25:30Z</time>
      </trkpt>
      <trkpt lat="45.22937" lon="3.76765">
        <ele>1046.53</ele>
        <time>2018-09-16T13:25:24Z</time>
      </trkpt>
      <trkpt lat="45.22944" lon="3.76752">
        <ele>1047.49</ele>
        <time>2018-09-16T13:25:14Z</time>
      </trkpt>
      <trkpt lat="45.22942" lon="3.76731">
        <ele>1049.9</ele>
        <time>2018-09-16T13:25:05Z</time>
      </trkpt>
      <trkpt lat="45.22932" lon="3.76722">
        <ele>1048.94</ele>
        <time>2018-09-16T13:24:58Z</time>
      </trkpt>
      <trkpt lat="45.22926" lon="3.76716">
        <ele>1047.97</ele>
        <time>2018-09-16T13:24:52Z</time>
      </trkpt>
      <trkpt lat="45.22909" lon="3.76698">
        <ele>1047.97</ele>
        <time>2018-09-16T13:24:36Z</time>
      </trkpt>
      <trkpt lat="45.22888" lon="3.76673">
        <ele>1049.9</ele>
        <time>2018-09-16T13:24:16Z</time>
      </trkpt>
      <trkpt lat="45.22885" lon="3.76666">
        <ele>1042.8</ele>
      </trkpt>
      <trkpt lat="45.22885" lon="3.76665">
        <ele>1042.8</ele>
      </trkpt>
      <trkpt lat="45.22888" lon="3.76665">
        <ele>1042.8</ele>
      </trkpt>
      <trkpt lat="45.22887" lon="3.76655">
        <ele>1042.8</ele>
      </trkpt>
      <trkpt lat="45.22887" lon="3.76652">
        <ele>1042.8</ele>
      </trkpt>
      <trkpt lat="45.22887" lon="3.76649">
        <ele>1042.8</ele>
      </trkpt>
      <trkpt lat="45.22887" lon="3.76649">
        <ele>1042.8</ele>
      </trkpt>
      <trkpt lat="45.22886" lon="3.76639">
        <ele>1042.7</ele>
      </trkpt>
      <trkpt lat="45.22886" lon="3.7663">
        <ele>1042.7</ele>
      </trkpt>
      <trkpt lat="45.22886" lon="3.76619">
        <ele>1042.6</ele>
      </trkpt>
      <trkpt lat="45.22885" lon="3.76616">
        <ele>1042.6</ele>
      </trkpt>
      <trkpt lat="45.22884" lon="3.76609">
        <ele>1042.6</ele>
      </trkpt>
      <trkpt lat="45.22881" lon="3.76594">
        <ele>1042.5</ele>
      </trkpt>
      <trkpt lat="45.2288" lon="3.76592">
        <ele>1042.6</ele>
      </trkpt>
      <trkpt lat="45.22875" lon="3.76576">
        <ele>1043.3</ele>
      </trkpt>
      <trkpt lat="45.22873" lon="3.76565">
        <ele>1043.5</ele>
      </trkpt>
      <trkpt lat="45.22868" lon="3.76554">
        <ele>1043.7</ele>
      </trkpt>
      <trkpt lat="45.22858" lon="3.76538">
        <ele>1044.2</ele>
      </trkpt>
      <trkpt lat="45.22852" lon="3.76525">
        <ele>1044.6</ele>
      </trkpt>
      <trkpt lat="45.22847" lon="3.76512">
        <ele>1045.3</ele>
      </trkpt>
      <trkpt lat="45.22842" lon="3.76498">
        <ele>1046.2</ele>
      </trkpt>
      <trkpt lat="45.22837" lon="3.76483">
        <ele>1045.7</ele>
      </trkpt>
      <trkpt lat="45.22829" lon="3.76465">
        <ele>1046.4</ele>
      </trkpt>
      <trkpt lat="45.22822" lon="3.76451">
        <ele>1046.3</ele>
      </trkpt>
      <trkpt lat="45.22816" lon="3.76435">
        <ele>1046.2</ele>
      </trkpt>
      <trkpt lat="45.22815" lon="3.76434">
        <ele>1046.2</ele>
      </trkpt>
      <trkpt lat="45.22807" lon="3.76413">
        <ele>1046.9</ele>
      </trkpt>
      <trkpt lat="45.228" lon="3.76391">
        <ele>1047.2</ele>
      </trkpt>
      <trkpt lat="45.2279" lon="3.76364">
        <ele>1047.7</ele>
      </trkpt>
      <trkpt lat="45.22785" lon="3.76349">
        <ele>1047.9</ele>
      </trkpt>
      <trkpt lat="45.22777" lon="3.76325">
        <ele>1048.7</ele>
      </trkpt>
      <trkpt lat="45.22769" lon="3.76305">
        <ele>1048.7</ele>
      </trkpt>
      <trkpt lat="45.22759" lon="3.76271">
        <ele>1048.6</ele>
      </trkpt>
      <trkpt lat="45.22748" lon="3.76225">
        <ele>1049.4</ele>
      </trkpt>
      <trkpt lat="45.22744" lon="3.76207">
        <ele>1049.3</ele>
      </trkpt>
      <trkpt lat="45.22738" lon="3.76195">
        <ele>1049.1</ele>
      </trkpt>
      <trkpt lat="45.22731" lon="3.7618">
        <ele>1048.8</ele>
      </trkpt>
      <trkpt lat="45.22726" lon="3.76165">
        <ele>1048.6</ele>
      </trkpt>
      <trkpt lat="45.2272" lon="3.76148">
        <ele>1049</ele>
      </trkpt>
      <trkpt lat="45.22712" lon="3.76133">
        <ele>1049.4</ele>
      </trkpt>
      <trkpt lat="45.22703" lon="3.76118">
        <ele>1049.7</ele>
      </trkpt>
      <trkpt lat="45.22689" lon="3.76099">
        <ele>1050.3</ele>
      </trkpt>
      <trkpt lat="45.22681" lon="3.7609">
        <ele>1050.8</ele>
      </trkpt>
      <trkpt lat="45.22673" lon="3.76083">
        <ele>1051.6</ele>
      </trkpt>
      <trkpt lat="45.22667" lon="3.76075">
        <ele>1051.6</ele>
      </trkpt>
      <trkpt lat="45.2266" lon="3.76062">
        <ele>1052.8</ele>
      </trkpt>
      <trkpt lat="45.2266" lon="3.76061">
        <ele>1052.8</ele>
      </trkpt>
      <trkpt lat="45.2266" lon="3.76062">
        <ele>1052.8</ele>
      </trkpt>
      <trkpt lat="45.22667" lon="3.76075">
        <ele>1051.6</ele>
      </trkpt>
      <trkpt lat="45.2263" lon="3.76071">
        <ele>1053.3</ele>
      </trkpt>
      <trkpt lat="45.22596" lon="3.76076">
        <ele>1054.7</ele>
      </trkpt>
      <trkpt lat="45.22557" lon="3.76087">
        <ele>1054.4</ele>
      </trkpt>
      <trkpt lat="45.22509" lon="3.76106">
        <ele>1053.5</ele>
      </trkpt>
      <trkpt lat="45.22476" lon="3.76113">
        <ele>1052</ele>
      </trkpt>
      <trkpt lat="45.22469" lon="3.76115">
        <ele>1051.9</ele>
      </trkpt>
      <trkpt lat="45.22433" lon="3.7612">
        <ele>1051.4</ele>
      </trkpt>
      <trkpt lat="45.22405" lon="3.76122">
        <ele>1049.9</ele>
      </trkpt>
      <trkpt lat="45.22375" lon="3.76114">
        <ele>1049.6</ele>
      </trkpt>
      <trkpt lat="45.22361" lon="3.76117">
        <ele>1049.5</ele>
      </trkpt>
      <trkpt lat="45.22349" lon="3.76135">
        <ele>1049.8</ele>
      </trkpt>
      <trkpt lat="45.22335" lon="3.76159">
        <ele>1050.6</ele>
      </trkpt>
      <trkpt lat="45.22332" lon="3.76162">
        <ele>1050.5</ele>
      </trkpt>
      <trkpt lat="45.22324" lon="3.7617">
        <ele>1050.1</ele>
      </trkpt>
      <trkpt lat="45.22312" lon="3.76179">
        <ele>1049.3</ele>
      </trkpt>
      <trkpt lat="45.22304" lon="3.7619">
        <ele>1048.8</ele>
      </trkpt>
      <trkpt lat="45.22314" lon="3.76191">
        <ele>1048.9</ele>
      </trkpt>
      <trkpt lat="45.22319" lon="3.76191">
        <ele>1049</ele>
      </trkpt>
      <trkpt lat="45.22319" lon="3.76187">
        <ele>1049.1</ele>
      </trkpt>
      <trkpt lat="45.22319" lon="3.76187">
        <ele>1049.1</ele>
      </trkpt>
      <trkpt lat="45.22318" lon="3.76191">
        <ele>1049</ele>
      </trkpt>
      <trkpt lat="45.22318" lon="3.76191">
        <ele>1049</ele>
      </trkpt>
      <trkpt lat="45.22314" lon="3.76191">
        <ele>1048.9</ele>
      </trkpt>
      <trkpt lat="45.22304" lon="3.7619">
        <ele>1048.8</ele>
      </trkpt>
      <trkpt lat="45.22282" lon="3.76186">
        <ele>1048.6</ele>
      </trkpt>
      <trkpt lat="45.22241" lon="3.76178">
        <ele>1047.9</ele>
      </trkpt>
      <trkpt lat="45.22235" lon="3.76177">
        <ele>1047.7</ele>
      </trkpt>
      <trkpt lat="45.22227" lon="3.76157">
        <ele>1047</ele>
      </trkpt>
      <trkpt lat="45.22214" lon="3.76134">
        <ele>1046.1</ele>
      </trkpt>
      <trkpt lat="45.22201" lon="3.76113">
        <ele>1045.3</ele>
      </trkpt>
      <trkpt lat="45.22188" lon="3.76087">
        <ele>1044.1</ele>
      </trkpt>
      <trkpt lat="45.22172" lon="3.76059">
        <ele>1043.7</ele>
      </trkpt>
      <trkpt lat="45.22159" lon="3.76032">
        <ele>1044.1</ele>
      </trkpt>
      <trkpt lat="45.22139" lon="3.75989">
        <ele>1044.6</ele>
      </trkpt>
      <trkpt lat="45.22123" lon="3.75956">
        <ele>1044.7</ele>
      </trkpt>
      <trkpt lat="45.22104" lon="3.75926">
        <ele>1044.5</ele>
      </trkpt>
      <trkpt lat="45.22092" lon="3.7591">
        <ele>1043.3</ele>
      </trkpt>
      <trkpt lat="45.22083" lon="3.7589">
        <ele>1042.5</ele>
      </trkpt>
      <trkpt lat="45.22078" lon="3.7586">
        <ele>1041.3</ele>
      </trkpt>
      <trkpt lat="45.2207" lon="3.75832">
        <ele>1038.6</ele>
      </trkpt>
      <trkpt lat="45.22062" lon="3.75809">
        <ele>1038.1</ele>
      </trkpt>
      <trkpt lat="45.22052" lon="3.75787">
        <ele>1037.5</ele>
      </trkpt>
      <trkpt lat="45.22042" lon="3.75762">
        <ele>1036.9</ele>
      </trkpt>
      <trkpt lat="45.22037" lon="3.75752">
        <ele>1036.7</ele>
      </trkpt>
      <trkpt lat="45.22034" lon="3.75738">
        <ele>1032.9</ele>
      </trkpt>
      <trkpt lat="45.2203" lon="3.75725">
        <ele>1032.6</ele>
      </trkpt>
      <trkpt lat="45.22026" lon="3.75703">
        <ele>1031.7</ele>
      </trkpt>
      <trkpt lat="45.22021" lon="3.75677">
        <ele>1030.4</ele>
      </trkpt>
      <trkpt lat="45.22019" lon="3.75667">
        <ele>1030</ele>
      </trkpt>
      <trkpt lat="45.22019" lon="3.75644">
        <ele>1027.2</ele>
      </trkpt>
      <trkpt lat="45.2202" lon="3.7563">
        <ele>1026.8</ele>
      </trkpt>
      <trkpt lat="45.22021" lon="3.75622">
        <ele>1026.5</ele>
      </trkpt>
      <trkpt lat="45.22021" lon="3.7561">
        <ele>1026.1</ele>
      </trkpt>
      <trkpt lat="45.22017" lon="3.756">
        <ele>1025.5</ele>
      </trkpt>
      <trkpt lat="45.22011" lon="3.75592">
        <ele>1024.7</ele>
      </trkpt>
      <trkpt lat="45.22002" lon="3.75581">
        <ele>1023.2</ele>
      </trkpt>
      <trkpt lat="45.21997" lon="3.75575">
        <ele>1023</ele>
      </trkpt>
      <trkpt lat="45.22001" lon="3.75572">
        <ele>1023.7</ele>
      </trkpt>
      <trkpt lat="45.22006" lon="3.75569">
        <ele>1023.9</ele>
      </trkpt>
      <trkpt lat="45.22013" lon="3.7556">
        <ele>1024.2</ele>
      </trkpt>
      <trkpt lat="45.22013" lon="3.75559">
        <ele>1024.2</ele>
      </trkpt>
      <trkpt lat="45.22016" lon="3.75554">
        <ele>1024.3</ele>
      </trkpt>
      <trkpt lat="45.22011" lon="3.75551">
        <ele>1024.2</ele>
      </trkpt>
      <trkpt lat="45.22005" lon="3.75545">
        <ele>1024.1</ele>
      </trkpt>
      <trkpt lat="45.21992" lon="3.75526">
        <ele>1022.4</ele>
      </trkpt>
      <trkpt lat="45.21986" lon="3.75516">
        <ele>1022.3</ele>
      </trkpt>
      <trkpt lat="45.21982" lon="3.75509">
        <ele>1022.2</ele>
      </trkpt>
      <trkpt lat="45.21979" lon="3.75499">
        <ele>1020.4</ele>
      </trkpt>
      <trkpt lat="45.21971" lon="3.75477">
        <ele>1019.8</ele>
      </trkpt>
      <trkpt lat="45.21966" lon="3.75454">
        <ele>1019.3</ele>
      </trkpt>
      <trkpt lat="45.21962" lon="3.75434">
        <ele>1019</ele>
      </trkpt>
      <trkpt lat="45.21959" lon="3.75412">
        <ele>1017.8</ele>
      </trkpt>
      <trkpt lat="45.21954" lon="3.75382">
        <ele>1017.7</ele>
      </trkpt>
      <trkpt lat="45.21952" lon="3.75362">
        <ele>1017.7</ele>
      </trkpt>
      <trkpt lat="45.21951" lon="3.75344">
        <ele>1017.6</ele>
      </trkpt>
      <trkpt lat="45.2195" lon="3.75325">
        <ele>1017.4</ele>
      </trkpt>
      <trkpt lat="45.21948" lon="3.75305">
        <ele>1017.5</ele>
      </trkpt>
      <trkpt lat="45.21947" lon="3.75289">
        <ele>1017.5</ele>
      </trkpt>
      <trkpt lat="45.21944" lon="3.75268">
        <ele>1017.6</ele>
      </trkpt>
      <trkpt lat="45.21939" lon="3.75242">
        <ele>1017.1</ele>
      </trkpt>
      <trkpt lat="45.21934" lon="3.75222">
        <ele>1016.9</ele>
      </trkpt>
      <trkpt lat="45.2193" lon="3.75205">
        <ele>1016.8</ele>
      </trkpt>
      <trkpt lat="45.21925" lon="3.75189">
        <ele>1016.7</ele>
      </trkpt>
      <trkpt lat="45.21922" lon="3.75179">
        <ele>1016.8</ele>
      </trkpt>
      <trkpt lat="45.21919" lon="3.75166">
        <ele>1016.8</ele>
      </trkpt>
      <trkpt lat="45.21917" lon="3.75154">
        <ele>1017.3</ele>
      </trkpt>
      <trkpt lat="45.21913" lon="3.75134">
        <ele>1017.5</ele>
      </trkpt>
      <trkpt lat="45.21909" lon="3.75115">
        <ele>1017.5</ele>
      </trkpt>
      <trkpt lat="45.21906" lon="3.75097">
        <ele>1017.4</ele>
      </trkpt>
      <trkpt lat="45.21905" lon="3.75083">
        <ele>1017.1</ele>
      </trkpt>
      <trkpt lat="45.21904" lon="3.75068">
        <ele>1017.1</ele>
      </trkpt>
      <trkpt lat="45.21902" lon="3.7505">
        <ele>1016.9</ele>
      </trkpt>
      <trkpt lat="45.219" lon="3.75033">
        <ele>1016.6</ele>
      </trkpt>
      <trkpt lat="45.21897" lon="3.75014">
        <ele>1016.1</ele>
      </trkpt>
      <trkpt lat="45.21896" lon="3.75003">
        <ele>1015.9</ele>
      </trkpt>
      <trkpt lat="45.21894" lon="3.74997">
        <ele>1014.7</ele>
      </trkpt>
      <trkpt lat="45.21892" lon="3.74993">
        <ele>1014.7</ele>
      </trkpt>
      <trkpt lat="45.21888" lon="3.7499">
        <ele>1014.8</ele>
      </trkpt>
      <trkpt lat="45.21883" lon="3.74983">
        <ele>1015</ele>
      </trkpt>
      <trkpt lat="45.21879" lon="3.74977">
        <ele>1015</ele>
      </trkpt>
      <trkpt lat="45.21883" lon="3.74983">
        <ele>1015</ele>
      </trkpt>
      <trkpt lat="45.21888" lon="3.7499">
        <ele>1014.8</ele>
      </trkpt>
      <trkpt lat="45.21892" lon="3.74993">
        <ele>1014.7</ele>
      </trkpt>
      <trkpt lat="45.21894" lon="3.74997">
        <ele>1014.7</ele>
      </trkpt>
      <trkpt lat="45.21902" lon="3.74997">
        <ele>1014.5</ele>
      </trkpt>
      <trkpt lat="45.21908" lon="3.74999">
        <ele>1014.3</ele>
      </trkpt>
      <trkpt lat="45.21915" lon="3.75002">
        <ele>1014.4</ele>
      </trkpt>
      <trkpt lat="45.21924" lon="3.75008">
        <ele>1013.7</ele>
      </trkpt>
      <trkpt lat="45.21936" lon="3.75017">
        <ele>1013.3</ele>
      </trkpt>
      <trkpt lat="45.21948" lon="3.75027">
        <ele>1013.1</ele>
      </trkpt>
      <trkpt lat="45.21962" lon="3.75036">
        <ele>1012.8</ele>
      </trkpt>
      <trkpt lat="45.21978" lon="3.75046">
        <ele>1012.5</ele>
      </trkpt>
      <trkpt lat="45.22" lon="3.75058">
        <ele>1012.3</ele>
      </trkpt>
      <trkpt lat="45.22012" lon="3.75065">
        <ele>1010.3</ele>
      </trkpt>
      <trkpt lat="45.2203" lon="3.75077">
        <ele>1010</ele>
      </trkpt>
      <trkpt lat="45.22039" lon="3.75085">
        <ele>1011.8</ele>
      </trkpt>
      <trkpt lat="45.22048" lon="3.75094">
        <ele>1011.7</ele>
      </trkpt>
      <trkpt lat="45.22055" lon="3.75098">
        <ele>1011.6</ele>
      </trkpt>
      <trkpt lat="45.2206" lon="3.75099">
        <ele>1011.5</ele>
      </trkpt>
      <trkpt lat="45.22067" lon="3.75097">
        <ele>1011.3</ele>
      </trkpt>
      <trkpt lat="45.22075" lon="3.75091">
        <ele>1010.8</ele>
      </trkpt>
      <trkpt lat="45.22083" lon="3.75084">
        <ele>1010.1</ele>
      </trkpt>
      <trkpt lat="45.2209" lon="3.75076">
        <ele>1009.5</ele>
      </trkpt>
      <trkpt lat="45.22093" lon="3.75067">
        <ele>1009.2</ele>
      </trkpt>
      <trkpt lat="45.22096" lon="3.75056">
        <ele>1008.8</ele>
      </trkpt>
      <trkpt lat="45.22097" lon="3.75045">
        <ele>1008.5</ele>
      </trkpt>
      <trkpt lat="45.221" lon="3.75036">
        <ele>1008.2</ele>
      </trkpt>
      <trkpt lat="45.22104" lon="3.7503">
        <ele>1008.1</ele>
      </trkpt>
      <trkpt lat="45.22113" lon="3.75021">
        <ele>1008.1</ele>
      </trkpt>
      <trkpt lat="45.22123" lon="3.75012">
        <ele>1008.3</ele>
      </trkpt>
      <trkpt lat="45.22135" lon="3.75001">
        <ele>1008.7</ele>
      </trkpt>
      <trkpt lat="45.22147" lon="3.74989">
        <ele>1007.7</ele>
      </trkpt>
      <trkpt lat="45.22153" lon="3.74983">
        <ele>1007.8</ele>
      </trkpt>
      <trkpt lat="45.22165" lon="3.74971">
        <ele>1007.6</ele>
      </trkpt>
      <trkpt lat="45.22174" lon="3.74962">
        <ele>1012</ele>
      </trkpt>
      <trkpt lat="45.22192" lon="3.74949">
        <ele>1012.4</ele>
      </trkpt>
      <trkpt lat="45.22204" lon="3.74942">
        <ele>1012.9</ele>
      </trkpt>
      <trkpt lat="45.222" lon="3.74934">
        <ele>1013</ele>
      </trkpt>
      <trkpt lat="45.22195" lon="3.74939">
        <ele>1012.4</ele>
      </trkpt>
      <trkpt lat="45.22195" lon="3.74939">
        <ele>1012.4</ele>
      </trkpt>
      <trkpt lat="45.222" lon="3.74937">
        <ele>1015.77</ele>
        <time>2018-09-16T12:55:43Z</time>
      </trkpt>
      <trkpt lat="45.2219" lon="3.74912">
        <ele>1014.33</ele>
        <time>2018-09-16T12:55:27Z</time>
      </trkpt>
      <trkpt lat="45.22183" lon="3.74882">
        <ele>1012.41</ele>
        <time>2018-09-16T12:55:10Z</time>
      </trkpt>
      <trkpt lat="45.22179" lon="3.74852">
        <ele>1010.96</ele>
        <time>2018-09-16T12:54:53Z</time>
      </trkpt>
      <trkpt lat="45.22175" lon="3.74822">
        <ele>1009.04</ele>
        <time>2018-09-16T12:54:35Z</time>
      </trkpt>
      <trkpt lat="45.22169" lon="3.74796">
        <ele>1006.64</ele>
        <time>2018-09-16T12:54:19Z</time>
      </trkpt>
      <trkpt lat="45.22167" lon="3.74764">
        <ele>1002.79</ele>
        <time>2018-09-16T12:54:01Z</time>
      </trkpt>
      <trkpt lat="45.22167" lon="3.74737">
        <ele>999.91</ele>
        <time>2018-09-16T12:53:47Z</time>
      </trkpt>
      <trkpt lat="45.22169" lon="3.74713">
        <ele>995.58</ele>
        <time>2018-09-16T12:53:34Z</time>
      </trkpt>
      <trkpt lat="45.22174" lon="3.74685">
        <ele>994.62</ele>
        <time>2018-09-16T12:53:18Z</time>
      </trkpt>
      <trkpt lat="45.22179" lon="3.74653">
        <ele>994.62</ele>
        <time>2018-09-16T12:53:01Z</time>
      </trkpt>
      <trkpt lat="45.22184" lon="3.74619">
        <ele>993.66</ele>
        <time>2018-09-16T12:52:43Z</time>
      </trkpt>
      <trkpt lat="45.2218" lon="3.74592">
        <ele>992.22</ele>
        <time>2018-09-16T12:52:27Z</time>
      </trkpt>
      <trkpt lat="45.22168" lon="3.74569">
        <ele>988.85</ele>
        <time>2018-09-16T12:52:11Z</time>
      </trkpt>
      <trkpt lat="45.22167" lon="3.74544">
        <ele>985.97</ele>
        <time>2018-09-16T12:51:56Z</time>
      </trkpt>
      <trkpt lat="45.22179" lon="3.7452">
        <ele>983.09</ele>
        <time>2018-09-16T12:51:39Z</time>
      </trkpt>
      <trkpt lat="45.22183" lon="3.74492">
        <ele>979.72</ele>
        <time>2018-09-16T12:51:23Z</time>
      </trkpt>
      <trkpt lat="45.22181" lon="3.74455">
        <ele>974.91</ele>
        <time>2018-09-16T12:51:05Z</time>
      </trkpt>
      <trkpt lat="45.22181" lon="3.74417">
        <ele>971.55</ele>
        <time>2018-09-16T12:50:46Z</time>
      </trkpt>
      <trkpt lat="45.22179" lon="3.74408">
        <ele>970.59</ele>
        <time>2018-09-16T12:50:41Z</time>
      </trkpt>
      <trkpt lat="45.2218" lon="3.74403">
        <ele>970.59</ele>
        <time>2018-09-16T12:50:36Z</time>
      </trkpt>
      <trkpt lat="45.2218" lon="3.74394">
        <ele>969.15</ele>
        <time>2018-09-16T12:50:30Z</time>
      </trkpt>
      <trkpt lat="45.22178" lon="3.74374">
        <ele>969.15</ele>
        <time>2018-09-16T12:50:21Z</time>
      </trkpt>
      <trkpt lat="45.22171" lon="3.74336">
        <ele>966.74</ele>
        <time>2018-09-16T12:50:02Z</time>
      </trkpt>
      <trkpt lat="45.22169" lon="3.74322">
        <ele>967.7</ele>
        <time>2018-09-16T12:49:55Z</time>
      </trkpt>
      <trkpt lat="45.22165" lon="3.74314">
        <ele>968.18</ele>
        <time>2018-09-16T12:49:50Z</time>
      </trkpt>
      <trkpt lat="45.22157" lon="3.74292">
        <ele>967.7</ele>
        <time>2018-09-16T12:49:39Z</time>
      </trkpt>
      <trkpt lat="45.2215" lon="3.74279">
        <ele>966.74</ele>
        <time>2018-09-16T12:49:26Z</time>
      </trkpt>
      <trkpt lat="45.22149" lon="3.74276">
        <ele>967.7</ele>
        <time>2018-09-16T12:49:09Z</time>
      </trkpt>
      <trkpt lat="45.22151" lon="3.74277">
        <ele>969.15</ele>
        <time>2018-09-16T12:48:51Z</time>
      </trkpt>
      <trkpt lat="45.22149" lon="3.74275">
        <ele>969.15</ele>
        <time>2018-09-16T12:48:38Z</time>
      </trkpt>
      <trkpt lat="45.22143" lon="3.74254">
        <ele>969.63</ele>
        <time>2018-09-16T12:48:24Z</time>
      </trkpt>
      <trkpt lat="45.22135" lon="3.74224">
        <ele>966.74</ele>
        <time>2018-09-16T12:48:07Z</time>
      </trkpt>
      <trkpt lat="45.22132" lon="3.74192">
        <ele>966.26</ele>
        <time>2018-09-16T12:47:51Z</time>
      </trkpt>
      <trkpt lat="45.22131" lon="3.74152">
        <ele>963.86</ele>
        <time>2018-09-16T12:47:32Z</time>
      </trkpt>
      <trkpt lat="45.22132" lon="3.74142">
        <ele>960.98</ele>
        <time>2018-09-16T12:47:26Z</time>
      </trkpt>
      <trkpt lat="45.22131" lon="3.74115">
        <ele>959.53</ele>
        <time>2018-09-16T12:47:13Z</time>
      </trkpt>
      <trkpt lat="45.22128" lon="3.74075">
        <ele>957.61</ele>
        <time>2018-09-16T12:46:54Z</time>
      </trkpt>
      <trkpt lat="45.2212" lon="3.74039">
        <ele>954.73</ele>
        <time>2018-09-16T12:46:35Z</time>
      </trkpt>
      <trkpt lat="45.22116" lon="3.74033">
        <ele>953.77</ele>
        <time>2018-09-16T12:46:30Z</time>
      </trkpt>
      <trkpt lat="45.22102" lon="3.7402">
        <ele>952.8</ele>
        <time>2018-09-16T12:46:17Z</time>
      </trkpt>
      <trkpt lat="45.22089" lon="3.74018">
        <ele>952.8</ele>
        <time>2018-09-16T12:46:08Z</time>
      </trkpt>
      <trkpt lat="45.22069" lon="3.74018">
        <ele>952.32</ele>
        <time>2018-09-16T12:45:53Z</time>
      </trkpt>
      <trkpt lat="45.22065" lon="3.74019">
        <ele>951.84</ele>
        <time>2018-09-16T12:45:41Z</time>
      </trkpt>
      <trkpt lat="45.22055" lon="3.74002">
        <ele>949.92</ele>
        <time>2018-09-16T12:45:27Z</time>
      </trkpt>
      <trkpt lat="45.22057" lon="3.73996">
        <ele>948.48</ele>
        <time>2018-09-16T12:45:23Z</time>
      </trkpt>
      <trkpt lat="45.22058" lon="3.73993">
        <ele>948</ele>
        <time>2018-09-16T12:45:21Z</time>
      </trkpt>
      <trkpt lat="45.2208" lon="3.73979">
        <ele>945.59</ele>
        <time>2018-09-16T12:45:04Z</time>
      </trkpt>
      <trkpt lat="45.22091" lon="3.73975">
        <ele>944.63</ele>
        <time>2018-09-16T12:44:53Z</time>
      </trkpt>
      <trkpt lat="45.22111" lon="3.73954">
        <ele>942.71</ele>
        <time>2018-09-16T12:44:36Z</time>
      </trkpt>
      <trkpt lat="45.22109" lon="3.73927">
        <ele>944.63</ele>
        <time>2018-09-16T12:44:22Z</time>
      </trkpt>
      <trkpt lat="45.22102" lon="3.73892">
        <ele>946.07</ele>
        <time>2018-09-16T12:44:04Z</time>
      </trkpt>
      <trkpt lat="45.22102" lon="3.73886">
        <ele>945.59</ele>
        <time>2018-09-16T12:44:01Z</time>
      </trkpt>
      <trkpt lat="45.22099" lon="3.73875">
        <ele>946.07</ele>
        <time>2018-09-16T12:43:57Z</time>
      </trkpt>
      <trkpt lat="45.2209" lon="3.73843">
        <ele>948.96</ele>
        <time>2018-09-16T12:43:41Z</time>
      </trkpt>
      <trkpt lat="45.22083" lon="3.73825">
        <ele>949.44</ele>
        <time>2018-09-16T12:43:31Z</time>
      </trkpt>
      <trkpt lat="45.22077" lon="3.73806">
        <ele>950.4</ele>
        <time>2018-09-16T12:43:21Z</time>
      </trkpt>
      <trkpt lat="45.22066" lon="3.73773">
        <ele>950.88</ele>
        <time>2018-09-16T12:43:03Z</time>
      </trkpt>
      <trkpt lat="45.22057" lon="3.73744">
        <ele>952.32</ele>
        <time>2018-09-16T12:42:47Z</time>
      </trkpt>
      <trkpt lat="45.22051" lon="3.73716">
        <ele>950.88</ele>
        <time>2018-09-16T12:42:33Z</time>
      </trkpt>
      <trkpt lat="45.22048" lon="3.73705">
        <ele>950.4</ele>
        <time>2018-09-16T12:42:27Z</time>
      </trkpt>
      <trkpt lat="45.22037" lon="3.7368">
        <ele>954.73</ele>
        <time>2018-09-16T12:42:13Z</time>
      </trkpt>
      <trkpt lat="45.22034" lon="3.7367">
        <ele>956.17</ele>
        <time>2018-09-16T12:42:08Z</time>
      </trkpt>
      <trkpt lat="45.22033" lon="3.73657">
        <ele>956.17</ele>
        <time>2018-09-16T12:42:01Z</time>
      </trkpt>
      <trkpt lat="45.22031" lon="3.73646">
        <ele>957.13</ele>
        <time>2018-09-16T12:41:55Z</time>
      </trkpt>
      <trkpt lat="45.22031" lon="3.73634">
        <ele>957.13</ele>
        <time>2018-09-16T12:41:48Z</time>
      </trkpt>
      <trkpt lat="45.22028" lon="3.7361">
        <ele>959.53</ele>
        <time>2018-09-16T12:41:36Z</time>
      </trkpt>
      <trkpt lat="45.2202" lon="3.736">
        <ele>962.9</ele>
        <time>2018-09-16T12:41:28Z</time>
      </trkpt>
      <trkpt lat="45.21999" lon="3.73588">
        <ele>968.18</ele>
        <time>2018-09-16T12:41:14Z</time>
      </trkpt>
      <trkpt lat="45.21977" lon="3.73581">
        <ele>972.51</ele>
        <time>2018-09-16T12:40:58Z</time>
      </trkpt>
      <trkpt lat="45.21972" lon="3.7358">
        <ele>972.99</ele>
        <time>2018-09-16T12:40:54Z</time>
      </trkpt>
      <trkpt lat="45.21955" lon="3.73575">
        <ele>974.91</ele>
        <time>2018-09-16T12:40:42Z</time>
      </trkpt>
      <trkpt lat="45.21931" lon="3.73562">
        <ele>972.99</ele>
        <time>2018-09-16T12:40:26Z</time>
      </trkpt>
      <trkpt lat="45.21927" lon="3.73559">
        <ele>972.51</ele>
        <time>2018-09-16T12:40:16Z</time>
      </trkpt>
      <trkpt lat="45.21915" lon="3.73551">
        <ele>972.03</ele>
        <time>2018-09-16T12:40:04Z</time>
      </trkpt>
      <trkpt lat="45.219" lon="3.73533">
        <ele>972.51</ele>
        <time>2018-09-16T12:39:48Z</time>
      </trkpt>
      <trkpt lat="45.21897" lon="3.73525">
        <ele>972.99</ele>
        <time>2018-09-16T12:39:43Z</time>
      </trkpt>
      <trkpt lat="45.21897" lon="3.7352">
        <ele>974.43</ele>
        <time>2018-09-16T12:39:40Z</time>
      </trkpt>
      <trkpt lat="45.21896" lon="3.73512">
        <ele>975.88</ele>
        <time>2018-09-16T12:39:35Z</time>
      </trkpt>
      <trkpt lat="45.21897" lon="3.73504">
        <ele>976.84</ele>
        <time>2018-09-16T12:39:31Z</time>
      </trkpt>
      <trkpt lat="45.21902" lon="3.73491">
        <ele>978.76</ele>
        <time>2018-09-16T12:39:23Z</time>
      </trkpt>
      <trkpt lat="45.21919" lon="3.73468">
        <ele>980.2</ele>
        <time>2018-09-16T12:39:07Z</time>
      </trkpt>
      <trkpt lat="45.21937" lon="3.73444">
        <ele>982.12</ele>
        <time>2018-09-16T12:38:50Z</time>
      </trkpt>
      <trkpt lat="45.21946" lon="3.73413">
        <ele>986.93</ele>
        <time>2018-09-16T12:38:32Z</time>
      </trkpt>
      <trkpt lat="45.21948" lon="3.73393">
        <ele>984.05</ele>
        <time>2018-09-16T12:38:22Z</time>
      </trkpt>
      <trkpt lat="45.21946" lon="3.73388">
        <ele>982.6</ele>
        <time>2018-09-16T12:38:19Z</time>
      </trkpt>
      <trkpt lat="45.21941" lon="3.7336">
        <ele>980.2</ele>
        <time>2018-09-16T12:38:02Z</time>
      </trkpt>
      <trkpt lat="45.21947" lon="3.73326">
        <ele>982.12</ele>
        <time>2018-09-16T12:37:45Z</time>
      </trkpt>
      <trkpt lat="45.21951" lon="3.73307">
        <ele>980.2</ele>
        <time>2018-09-16T12:37:34Z</time>
      </trkpt>
      <trkpt lat="45.21954" lon="3.73289">
        <ele>978.28</ele>
        <time>2018-09-16T12:37:25Z</time>
      </trkpt>
      <trkpt lat="45.21958" lon="3.7328">
        <ele>976.36</ele>
        <time>2018-09-16T12:37:20Z</time>
      </trkpt>
      <trkpt lat="45.21958" lon="3.73272">
        <ele>975.39</ele>
        <time>2018-09-16T12:37:16Z</time>
      </trkpt>
      <trkpt lat="45.21961" lon="3.73265">
        <ele>975.39</ele>
        <time>2018-09-16T12:37:12Z</time>
      </trkpt>
      <trkpt lat="45.21962" lon="3.73257">
        <ele>975.39</ele>
        <time>2018-09-16T12:37:08Z</time>
      </trkpt>
      <trkpt lat="45.21967" lon="3.73237">
        <ele>974.91</ele>
        <time>2018-09-16T12:36:58Z</time>
      </trkpt>
      <trkpt lat="45.21965" lon="3.7324">
        <ele>988.5</ele>
      </trkpt>
      <trkpt lat="45.2196" lon="3.73242">
        <ele>988.2</ele>
      </trkpt>
      <trkpt lat="45.21955" lon="3.73247">
        <ele>987.8</ele>
      </trkpt>
      <trkpt lat="45.21926" lon="3.73265">
        <ele>987.9</ele>
      </trkpt>
      <trkpt lat="45.21903" lon="3.73274">
        <ele>984.3</ele>
      </trkpt>
      <trkpt lat="45.21859" lon="3.73277">
        <ele>982.6</ele>
      </trkpt>
      <trkpt lat="45.21824" lon="3.73274">
        <ele>976.9</ele>
      </trkpt>
      <trkpt lat="45.21792" lon="3.73271">
        <ele>975.1</ele>
      </trkpt>
      <trkpt lat="45.21736" lon="3.73266">
        <ele>967.6</ele>
      </trkpt>
      <trkpt lat="45.21707" lon="3.73269">
        <ele>966.4</ele>
      </trkpt>
      <trkpt lat="45.21673" lon="3.73273">
        <ele>964.8</ele>
      </trkpt>
      <trkpt lat="45.21678" lon="3.73249">
        <ele>963.1</ele>
      </trkpt>
      <trkpt lat="45.21685" lon="3.73216">
        <ele>964</ele>
      </trkpt>
      <trkpt lat="45.21698" lon="3.73134">
        <ele>965.7</ele>
      </trkpt>
      <trkpt lat="45.21696" lon="3.73122">
        <ele>965.9</ele>
      </trkpt>
      <trkpt lat="45.21692" lon="3.73111">
        <ele>966</ele>
      </trkpt>
      <trkpt lat="45.21683" lon="3.73102">
        <ele>965.8</ele>
      </trkpt>
      <trkpt lat="45.2168" lon="3.73093">
        <ele>965.6</ele>
      </trkpt>
      <trkpt lat="45.21678" lon="3.73081">
        <ele>966.7</ele>
      </trkpt>
      <trkpt lat="45.21677" lon="3.73068">
        <ele>967.4</ele>
      </trkpt>
      <trkpt lat="45.21685" lon="3.73055">
        <ele>968.4</ele>
      </trkpt>
      <trkpt lat="45.21721" lon="3.73039">
        <ele>970.4</ele>
      </trkpt>
      <trkpt lat="45.21738" lon="3.73022">
        <ele>972</ele>
      </trkpt>
      <trkpt lat="45.21734" lon="3.72998">
        <ele>973.9</ele>
      </trkpt>
      <trkpt lat="45.21737" lon="3.72998">
        <ele>974.2</ele>
      </trkpt>
      <trkpt lat="45.21754" lon="3.72984">
        <ele>978.7</ele>
      </trkpt>
      <trkpt lat="45.21757" lon="3.72973">
        <ele>979.6</ele>
      </trkpt>
      <trkpt lat="45.21755" lon="3.72963">
        <ele>979.8</ele>
      </trkpt>
      <trkpt lat="45.21752" lon="3.72949">
        <ele>979.7</ele>
      </trkpt>
      <trkpt lat="45.21751" lon="3.72933">
        <ele>979</ele>
      </trkpt>
      <trkpt lat="45.21761" lon="3.72926">
        <ele>979</ele>
      </trkpt>
      <trkpt lat="45.21772" lon="3.72917">
        <ele>979</ele>
      </trkpt>
      <trkpt lat="45.21786" lon="3.72902">
        <ele>979.9</ele>
      </trkpt>
      <trkpt lat="45.2179" lon="3.72896">
        <ele>980.1</ele>
      </trkpt>
      <trkpt lat="45.21786" lon="3.72892">
        <ele>983.09</ele>
        <time>2018-09-16T12:29:41Z</time>
      </trkpt>
      <trkpt lat="45.21764" lon="3.72856">
        <ele>982.12</ele>
        <time>2018-09-16T12:29:17Z</time>
      </trkpt>
      <trkpt lat="45.2176" lon="3.72848">
        <ele>982.12</ele>
        <time>2018-09-16T12:29:12Z</time>
      </trkpt>
      <trkpt lat="45.21757" lon="3.72841">
        <ele>982.12</ele>
        <time>2018-09-16T12:29:08Z</time>
      </trkpt>
      <trkpt lat="45.21743" lon="3.72812">
        <ele>982.12</ele>
        <time>2018-09-16T12:28:50Z</time>
      </trkpt>
      <trkpt lat="45.21722" lon="3.72788">
        <ele>980.2</ele>
        <time>2018-09-16T12:28:29Z</time>
      </trkpt>
      <trkpt lat="45.21698" lon="3.72767">
        <ele>978.28</ele>
        <time>2018-09-16T12:28:08Z</time>
      </trkpt>
      <trkpt lat="45.21674" lon="3.72751">
        <ele>976.36</ele>
        <time>2018-09-16T12:27:49Z</time>
      </trkpt>
      <trkpt lat="45.21655" lon="3.72737">
        <ele>975.39</ele>
        <time>2018-09-16T12:27:33Z</time>
      </trkpt>
      <trkpt lat="45.21637" lon="3.72724">
        <ele>974.43</ele>
        <time>2018-09-16T12:27:18Z</time>
      </trkpt>
      <trkpt lat="45.21616" lon="3.72708">
        <ele>972.99</ele>
        <time>2018-09-16T12:26:59Z</time>
      </trkpt>
      <trkpt lat="45.21595" lon="3.72689">
        <ele>970.11</ele>
        <time>2018-09-16T12:26:41Z</time>
      </trkpt>
      <trkpt lat="45.21579" lon="3.72671">
        <ele>968.67</ele>
        <time>2018-09-16T12:26:25Z</time>
      </trkpt>
      <trkpt lat="45.21561" lon="3.72647">
        <ele>967.22</ele>
        <time>2018-09-16T12:26:07Z</time>
      </trkpt>
      <trkpt lat="45.21549" lon="3.72614">
        <ele>964.82</ele>
        <time>2018-09-16T12:25:46Z</time>
      </trkpt>
      <trkpt lat="45.21549" lon="3.72586">
        <ele>961.46</ele>
        <time>2018-09-16T12:25:30Z</time>
      </trkpt>
      <trkpt lat="45.21552" lon="3.72554">
        <ele>959.53</ele>
        <time>2018-09-16T12:25:13Z</time>
      </trkpt>
      <trkpt lat="45.21557" lon="3.72521">
        <ele>954.73</ele>
        <time>2018-09-16T12:24:54Z</time>
      </trkpt>
      <trkpt lat="45.21558" lon="3.72494">
        <ele>948</ele>
        <time>2018-09-16T12:24:39Z</time>
      </trkpt>
      <trkpt lat="45.21548" lon="3.72466">
        <ele>947.52</ele>
        <time>2018-09-16T12:24:22Z</time>
      </trkpt>
      <trkpt lat="45.21529" lon="3.72453">
        <ele>949.92</ele>
        <time>2018-09-16T12:24:05Z</time>
      </trkpt>
      <trkpt lat="45.215" lon="3.7245">
        <ele>953.77</ele>
        <time>2018-09-16T12:23:43Z</time>
      </trkpt>
      <trkpt lat="45.21472" lon="3.72438">
        <ele>956.65</ele>
        <time>2018-09-16T12:23:22Z</time>
      </trkpt>
      <trkpt lat="45.21449" lon="3.72415">
        <ele>960.01</ele>
        <time>2018-09-16T12:23:02Z</time>
      </trkpt>
      <trkpt lat="45.21436" lon="3.72402">
        <ele>961.46</ele>
        <time>2018-09-16T12:22:49Z</time>
      </trkpt>
      <trkpt lat="45.21413" lon="3.72381">
        <ele>968.67</ele>
        <time>2018-09-16T12:22:30Z</time>
      </trkpt>
      <trkpt lat="45.21393" lon="3.7237">
        <ele>973.47</ele>
        <time>2018-09-16T12:22:15Z</time>
      </trkpt>
      <trkpt lat="45.21367" lon="3.72351">
        <ele>979.24</ele>
        <time>2018-09-16T12:21:55Z</time>
      </trkpt>
      <trkpt lat="45.21347" lon="3.72343">
        <ele>980.68</ele>
        <time>2018-09-16T12:21:40Z</time>
      </trkpt>
      <trkpt lat="45.21328" lon="3.7234">
        <ele>982.12</ele>
        <time>2018-09-16T12:21:26Z</time>
      </trkpt>
      <trkpt lat="45.21323" lon="3.72339">
        <ele>981.64</ele>
        <time>2018-09-16T12:21:22Z</time>
      </trkpt>
      <trkpt lat="45.21303" lon="3.72336">
        <ele>981.64</ele>
        <time>2018-09-16T12:21:07Z</time>
      </trkpt>
      <trkpt lat="45.21288" lon="3.72333">
        <ele>983.57</ele>
        <time>2018-09-16T12:20:54Z</time>
      </trkpt>
      <trkpt lat="45.21262" lon="3.72324">
        <ele>985.97</ele>
        <time>2018-09-16T12:20:35Z</time>
      </trkpt>
      <trkpt lat="45.21242" lon="3.72324">
        <ele>986.45</ele>
        <time>2018-09-16T12:20:19Z</time>
      </trkpt>
      <trkpt lat="45.21218" lon="3.7232">
        <ele>985.01</ele>
        <time>2018-09-16T12:20:01Z</time>
      </trkpt>
      <trkpt lat="45.21196" lon="3.72316">
        <ele>985.97</ele>
        <time>2018-09-16T12:19:44Z</time>
      </trkpt>
      <trkpt lat="45.2118" lon="3.72305">
        <ele>987.41</ele>
        <time>2018-09-16T12:19:29Z</time>
      </trkpt>
      <trkpt lat="45.21166" lon="3.7228">
        <ele>991.26</ele>
        <time>2018-09-16T12:19:11Z</time>
      </trkpt>
      <trkpt lat="45.21151" lon="3.72252">
        <ele>995.1</ele>
        <time>2018-09-16T12:18:52Z</time>
      </trkpt>
      <trkpt lat="45.21138" lon="3.72225">
        <ele>999.43</ele>
        <time>2018-09-16T12:18:35Z</time>
      </trkpt>
      <trkpt lat="45.21127" lon="3.72204">
        <ele>1006.64</ele>
        <time>2018-09-16T12:18:21Z</time>
      </trkpt>
      <trkpt lat="45.21118" lon="3.72186">
        <ele>1009.52</ele>
        <time>2018-09-16T12:18:08Z</time>
      </trkpt>
      <trkpt lat="45.21101" lon="3.72157">
        <ele>1012.41</ele>
        <time>2018-09-16T12:17:49Z</time>
      </trkpt>
      <trkpt lat="45.211" lon="3.72154">
        <ele>1011.93</ele>
        <time>2018-09-16T12:17:46Z</time>
      </trkpt>
      <trkpt lat="45.2109" lon="3.7214">
        <ele>1013.37</ele>
        <time>2018-09-16T12:17:36Z</time>
      </trkpt>
      <trkpt lat="45.21077" lon="3.72118">
        <ele>1016.25</ele>
        <time>2018-09-16T12:17:20Z</time>
      </trkpt>
      <trkpt lat="45.21072" lon="3.72112">
        <ele>1015.77</ele>
        <time>2018-09-16T12:17:15Z</time>
      </trkpt>
      <trkpt lat="45.21064" lon="3.72099">
        <ele>1018.17</ele>
        <time>2018-09-16T12:17:06Z</time>
      </trkpt>
      <trkpt lat="45.21055" lon="3.72081">
        <ele>1022.5</ele>
        <time>2018-09-16T12:16:53Z</time>
      </trkpt>
      <trkpt lat="45.21041" lon="3.72058">
        <ele>1025.38</ele>
        <time>2018-09-16T12:16:35Z</time>
      </trkpt>
      <trkpt lat="45.21039" lon="3.72052">
        <ele>1024.9</ele>
        <time>2018-09-16T12:16:31Z</time>
      </trkpt>
      <trkpt lat="45.21047" lon="3.72035">
        <ele>1024.9</ele>
        <time>2018-09-16T12:16:19Z</time>
      </trkpt>
      <trkpt lat="45.21057" lon="3.72008">
        <ele>1025.86</ele>
        <time>2018-09-16T12:16:03Z</time>
      </trkpt>
      <trkpt lat="45.21069" lon="3.71978">
        <ele>1023.94</ele>
        <time>2018-09-16T12:15:45Z</time>
      </trkpt>
      <trkpt lat="45.21073" lon="3.71967">
        <ele>1022.98</ele>
        <time>2018-09-16T12:15:39Z</time>
      </trkpt>
      <trkpt lat="45.21086" lon="3.71943">
        <ele>1021.54</ele>
        <time>2018-09-16T12:15:22Z</time>
      </trkpt>
      <trkpt lat="45.21102" lon="3.7193">
        <ele>1020.58</ele>
        <time>2018-09-16T12:15:07Z</time>
      </trkpt>
      <trkpt lat="45.21122" lon="3.71921">
        <ele>1019.62</ele>
        <time>2018-09-16T12:14:51Z</time>
      </trkpt>
      <trkpt lat="45.2114" lon="3.71913">
        <ele>1021.06</ele>
        <time>2018-09-16T12:14:37Z</time>
      </trkpt>
      <trkpt lat="45.21166" lon="3.719">
        <ele>1023.46</ele>
        <time>2018-09-16T12:14:19Z</time>
      </trkpt>
      <trkpt lat="45.21178" lon="3.71876">
        <ele>1025.38</ele>
        <time>2018-09-16T12:14:03Z</time>
      </trkpt>
      <trkpt lat="45.21181" lon="3.71869">
        <ele>1025.38</ele>
        <time>2018-09-16T12:13:59Z</time>
      </trkpt>
      <trkpt lat="45.21183" lon="3.71857">
        <ele>1025.86</ele>
        <time>2018-09-16T12:13:52Z</time>
      </trkpt>
      <trkpt lat="45.21189" lon="3.71839">
        <ele>1027.31</ele>
        <time>2018-09-16T12:13:42Z</time>
      </trkpt>
      <trkpt lat="45.21186" lon="3.7183">
        <ele>1032.11</ele>
        <time>2018-09-16T12:13:29Z</time>
      </trkpt>
      <trkpt lat="45.21173" lon="3.71827">
        <ele>1031.63</ele>
        <time>2018-09-16T12:13:18Z</time>
      </trkpt>
      <trkpt lat="45.21156" lon="3.71819">
        <ele>1032.59</ele>
        <time>2018-09-16T12:13:04Z</time>
      </trkpt>
      <trkpt lat="45.21147" lon="3.71815">
        <ele>1032.59</ele>
        <time>2018-09-16T12:12:57Z</time>
      </trkpt>
      <trkpt lat="45.21128" lon="3.71808">
        <ele>1032.59</ele>
        <time>2018-09-16T12:12:42Z</time>
      </trkpt>
      <trkpt lat="45.21119" lon="3.71803">
        <ele>1030.67</ele>
        <time>2018-09-16T12:12:35Z</time>
      </trkpt>
      <trkpt lat="45.21105" lon="3.71795">
        <ele>1030.19</ele>
        <time>2018-09-16T12:12:24Z</time>
      </trkpt>
      <trkpt lat="45.21084" lon="3.71783">
        <ele>1030.19</ele>
        <time>2018-09-16T12:12:09Z</time>
      </trkpt>
      <trkpt lat="45.21075" lon="3.71776">
        <ele>1029.71</ele>
        <time>2018-09-16T12:12:02Z</time>
      </trkpt>
      <trkpt lat="45.21058" lon="3.71761">
        <ele>1027.79</ele>
        <time>2018-09-16T12:11:45Z</time>
      </trkpt>
      <trkpt lat="45.2104" lon="3.71741">
        <ele>1027.79</ele>
        <time>2018-09-16T12:11:27Z</time>
      </trkpt>
      <trkpt lat="45.21024" lon="3.71725">
        <ele>1030.19</ele>
        <time>2018-09-16T12:11:12Z</time>
      </trkpt>
      <trkpt lat="45.21007" lon="3.71713">
        <ele>1030.19</ele>
        <time>2018-09-16T12:10:56Z</time>
      </trkpt>
      <trkpt lat="45.20986" lon="3.71706">
        <ele>1035.48</ele>
        <time>2018-09-16T12:10:40Z</time>
      </trkpt>
      <trkpt lat="45.20964" lon="3.7171">
        <ele>1041.73</ele>
        <time>2018-09-16T12:10:24Z</time>
      </trkpt>
      <trkpt lat="45.20952" lon="3.71715">
        <ele>1044.61</ele>
        <time>2018-09-16T12:10:14Z</time>
      </trkpt>
      <trkpt lat="45.20929" lon="3.71721">
        <ele>1048.45</ele>
        <time>2018-09-16T12:09:57Z</time>
      </trkpt>
      <trkpt lat="45.20905" lon="3.71727">
        <ele>1049.42</ele>
        <time>2018-09-16T12:09:41Z</time>
      </trkpt>
      <trkpt lat="45.20887" lon="3.71733">
        <ele>1047.49</ele>
        <time>2018-09-16T12:09:27Z</time>
      </trkpt>
      <trkpt lat="45.20871" lon="3.71737">
        <ele>1046.05</ele>
        <time>2018-09-16T12:09:15Z</time>
      </trkpt>
      <trkpt lat="45.20855" lon="3.71741">
        <ele>1043.65</ele>
        <time>2018-09-16T12:09:01Z</time>
      </trkpt>
      <trkpt lat="45.20837" lon="3.7174">
        <ele>1039.8</ele>
        <time>2018-09-16T12:08:45Z</time>
      </trkpt>
      <trkpt lat="45.20836" lon="3.71739">
        <ele>1039.8</ele>
        <time>2018-09-16T12:08:44Z</time>
      </trkpt>
      <trkpt lat="45.20829" lon="3.7172">
        <ele>1039.32</ele>
        <time>2018-09-16T12:08:32Z</time>
      </trkpt>
      <trkpt lat="45.20822" lon="3.71692">
        <ele>1039.32</ele>
        <time>2018-09-16T12:08:15Z</time>
      </trkpt>
      <trkpt lat="45.20819" lon="3.71683">
        <ele>1040.28</ele>
        <time>2018-09-16T12:08:09Z</time>
      </trkpt>
      <trkpt lat="45.20812" lon="3.71658">
        <ele>1042.21</ele>
        <time>2018-09-16T12:07:55Z</time>
      </trkpt>
      <trkpt lat="45.20811" lon="3.71652">
        <ele>1042.21</ele>
        <time>2018-09-16T12:07:52Z</time>
      </trkpt>
      <trkpt lat="45.20805" lon="3.71626">
        <ele>1046.05</ele>
        <time>2018-09-16T12:07:38Z</time>
      </trkpt>
      <trkpt lat="45.20804" lon="3.71622">
        <ele>1046.05</ele>
        <time>2018-09-16T12:07:36Z</time>
      </trkpt>
      <trkpt lat="45.20801" lon="3.71609">
        <ele>1047.49</ele>
        <time>2018-09-16T12:07:30Z</time>
      </trkpt>
      <trkpt lat="45.20795" lon="3.71584">
        <ele>1048.45</ele>
        <time>2018-09-16T12:07:16Z</time>
      </trkpt>
      <trkpt lat="45.20791" lon="3.71575">
        <ele>1048.94</ele>
        <time>2018-09-16T12:07:11Z</time>
      </trkpt>
      <trkpt lat="45.20786" lon="3.71554">
        <ele>1052.78</ele>
        <time>2018-09-16T12:06:59Z</time>
      </trkpt>
      <trkpt lat="45.20776" lon="3.71529">
        <ele>1055.18</ele>
        <time>2018-09-16T12:06:42Z</time>
      </trkpt>
      <trkpt lat="45.20765" lon="3.71533">
        <ele>1055.67</ele>
        <time>2018-09-16T12:06:30Z</time>
      </trkpt>
      <trkpt lat="45.20748" lon="3.71545">
        <ele>1055.18</ele>
        <time>2018-09-16T12:06:17Z</time>
      </trkpt>
      <trkpt lat="45.20729" lon="3.71552">
        <ele>1051.82</ele>
        <time>2018-09-16T12:06:04Z</time>
      </trkpt>
      <trkpt lat="45.20704" lon="3.71558">
        <ele>1047.01</ele>
        <time>2018-09-16T12:05:49Z</time>
      </trkpt>
      <trkpt lat="45.20684" lon="3.71566">
        <ele>1042.21</ele>
        <time>2018-09-16T12:05:34Z</time>
      </trkpt>
      <trkpt lat="45.2066" lon="3.71573">
        <ele>1033.07</ele>
        <time>2018-09-16T12:05:17Z</time>
      </trkpt>
      <trkpt lat="45.20648" lon="3.71576">
        <ele>1030.67</ele>
        <time>2018-09-16T12:05:08Z</time>
      </trkpt>
      <trkpt lat="45.20626" lon="3.7158">
        <ele>1032.11</ele>
        <time>2018-09-16T12:04:51Z</time>
      </trkpt>
      <trkpt lat="45.20621" lon="3.71583">
        <ele>1032.11</ele>
        <time>2018-09-16T12:04:47Z</time>
      </trkpt>
      <trkpt lat="45.20599" lon="3.71588">
        <ele>1034.52</ele>
        <time>2018-09-16T12:04:31Z</time>
      </trkpt>
      <trkpt lat="45.20597" lon="3.71588">
        <ele>1033.55</ele>
        <time>2018-09-16T12:04:27Z</time>
      </trkpt>
      <trkpt lat="45.20575" lon="3.71588">
        <ele>1033.07</ele>
        <time>2018-09-16T12:04:11Z</time>
      </trkpt>
      <trkpt lat="45.20573" lon="3.71589">
        <ele>1033.55</ele>
        <time>2018-09-16T12:04:09Z</time>
      </trkpt>
      <trkpt lat="45.20551" lon="3.71587">
        <ele>1034.52</ele>
        <time>2018-09-16T12:03:53Z</time>
      </trkpt>
      <trkpt lat="45.20526" lon="3.71587">
        <ele>1034.52</ele>
        <time>2018-09-16T12:03:36Z</time>
      </trkpt>
      <trkpt lat="45.20515" lon="3.71588">
        <ele>1035.48</ele>
        <time>2018-09-16T12:03:29Z</time>
      </trkpt>
      <trkpt lat="45.20494" lon="3.71591">
        <ele>1037.4</ele>
        <time>2018-09-16T12:03:13Z</time>
      </trkpt>
      <trkpt lat="45.20492" lon="3.71592">
        <ele>1038.36</ele>
        <time>2018-09-16T12:03:01Z</time>
      </trkpt>
      <trkpt lat="45.20477" lon="3.71592">
        <ele>1038.36</ele>
        <time>2018-09-16T12:02:46Z</time>
      </trkpt>
      <trkpt lat="45.20455" lon="3.71591">
        <ele>1038.84</ele>
        <time>2018-09-16T12:02:30Z</time>
      </trkpt>
      <trkpt lat="45.20427" lon="3.71589">
        <ele>1038.36</ele>
        <time>2018-09-16T12:02:11Z</time>
      </trkpt>
      <trkpt lat="45.20402" lon="3.71586">
        <ele>1039.8</ele>
        <time>2018-09-16T12:01:53Z</time>
      </trkpt>
      <trkpt lat="45.20378" lon="3.71585">
        <ele>1039.8</ele>
        <time>2018-09-16T12:01:37Z</time>
      </trkpt>
      <trkpt lat="45.20378" lon="3.71585">
        <ele>1039.8</ele>
        <time>2018-09-16T12:01:34Z</time>
      </trkpt>
      <trkpt lat="45.20364" lon="3.71581">
        <ele>1038.84</ele>
        <time>2018-09-16T12:01:18Z</time>
      </trkpt>
      <trkpt lat="45.20364" lon="3.7158">
        <ele>1038.84</ele>
        <time>2018-09-16T12:01:03Z</time>
      </trkpt>
      <trkpt lat="45.20357" lon="3.71575">
        <ele>1037.88</ele>
        <time>2018-09-16T12:00:51Z</time>
      </trkpt>
      <trkpt lat="45.20333" lon="3.71568">
        <ele>1035.48</ele>
        <time>2018-09-16T12:00:34Z</time>
      </trkpt>
      <trkpt lat="45.20319" lon="3.71563">
        <ele>1035.48</ele>
        <time>2018-09-16T12:00:22Z</time>
      </trkpt>
      <trkpt lat="45.20294" lon="3.71557">
        <ele>1034.52</ele>
        <time>2018-09-16T12:00:02Z</time>
      </trkpt>
      <trkpt lat="45.20267" lon="3.71553">
        <ele>1031.63</ele>
        <time>2018-09-16T11:59:41Z</time>
      </trkpt>
      <trkpt lat="45.20241" lon="3.71556">
        <ele>1031.63</ele>
        <time>2018-09-16T11:59:22Z</time>
      </trkpt>
      <trkpt lat="45.20216" lon="3.7156">
        <ele>1032.11</ele>
        <time>2018-09-16T11:59:04Z</time>
      </trkpt>
      <trkpt lat="45.20209" lon="3.71589">
        <ele>1033.07</ele>
        <time>2018-09-16T11:58:48Z</time>
      </trkpt>
      <trkpt lat="45.20217" lon="3.71607">
        <ele>1033.55</ele>
        <time>2018-09-16T11:58:37Z</time>
      </trkpt>
      <trkpt lat="45.20224" lon="3.71634">
        <ele>1032.11</ele>
        <time>2018-09-16T11:58:21Z</time>
      </trkpt>
      <trkpt lat="45.20227" lon="3.71653">
        <ele>1031.15</ele>
        <time>2018-09-16T11:58:10Z</time>
      </trkpt>
      <trkpt lat="45.20228" lon="3.71678">
        <ele>1032.11</ele>
        <time>2018-09-16T11:57:55Z</time>
      </trkpt>
      <trkpt lat="45.20226" lon="3.71706">
        <ele>1031.15</ele>
        <time>2018-09-16T11:57:38Z</time>
      </trkpt>
      <trkpt lat="45.20225" lon="3.7171">
        <ele>1030.67</ele>
        <time>2018-09-16T11:57:35Z</time>
      </trkpt>
      <trkpt lat="45.20225" lon="3.71711">
        <ele>1030.67</ele>
        <time>2018-09-16T11:57:28Z</time>
      </trkpt>
      <trkpt lat="45.20228" lon="3.71718">
        <ele>1028.75</ele>
        <time>2018-09-16T11:57:18Z</time>
      </trkpt>
      <trkpt lat="45.2023" lon="3.71734">
        <ele>1027.79</ele>
        <time>2018-09-16T11:57:07Z</time>
      </trkpt>
      <trkpt lat="45.20231" lon="3.71759">
        <ele>1029.23</ele>
        <time>2018-09-16T11:56:51Z</time>
      </trkpt>
      <trkpt lat="45.20231" lon="3.71786">
        <ele>1029.71</ele>
        <time>2018-09-16T11:56:33Z</time>
      </trkpt>
      <trkpt lat="45.20232" lon="3.71815">
        <ele>1029.23</ele>
        <time>2018-09-16T11:56:16Z</time>
      </trkpt>
      <trkpt lat="45.20232" lon="3.71823">
        <ele>1029.23</ele>
        <time>2018-09-16T11:56:11Z</time>
      </trkpt>
      <trkpt lat="45.20233" lon="3.71845">
        <ele>1031.15</ele>
        <time>2018-09-16T11:55:56Z</time>
      </trkpt>
      <trkpt lat="45.20236" lon="3.71869">
        <ele>1032.59</ele>
        <time>2018-09-16T11:55:39Z</time>
      </trkpt>
      <trkpt lat="45.20237" lon="3.71895">
        <ele>1033.07</ele>
        <time>2018-09-16T11:55:22Z</time>
      </trkpt>
      <trkpt lat="45.20238" lon="3.71904">
        <ele>1034.04</ele>
        <time>2018-09-16T11:55:15Z</time>
      </trkpt>
      <trkpt lat="45.20247" lon="3.71926">
        <ele>1035.96</ele>
        <time>2018-09-16T11:54:59Z</time>
      </trkpt>
      <trkpt lat="45.20255" lon="3.71951">
        <ele>1037.4</ele>
        <time>2018-09-16T11:54:43Z</time>
      </trkpt>
      <trkpt lat="45.20261" lon="3.71978">
        <ele>1038.36</ele>
        <time>2018-09-16T11:54:27Z</time>
      </trkpt>
      <trkpt lat="45.20268" lon="3.72">
        <ele>1040.76</ele>
        <time>2018-09-16T11:54:14Z</time>
      </trkpt>
      <trkpt lat="45.20271" lon="3.72022">
        <ele>1045.09</ele>
        <time>2018-09-16T11:54:00Z</time>
      </trkpt>
      <trkpt lat="45.2027" lon="3.72023">
        <ele>1045.09</ele>
        <time>2018-09-16T11:53:59Z</time>
      </trkpt>
      <trkpt lat="45.20266" lon="3.72049">
        <ele>1052.3</ele>
        <time>2018-09-16T11:53:42Z</time>
      </trkpt>
      <trkpt lat="45.20263" lon="3.72062">
        <ele>1057.11</ele>
        <time>2018-09-16T11:53:33Z</time>
      </trkpt>
      <trkpt lat="45.20257" lon="3.72069">
        <ele>1062.87</ele>
        <time>2018-09-16T11:53:28Z</time>
      </trkpt>
      <trkpt lat="45.20253" lon="3.72079">
        <ele>1068.16</ele>
        <time>2018-09-16T11:53:20Z</time>
      </trkpt>
      <trkpt lat="45.20252" lon="3.72092">
        <ele>1077.29</ele>
        <time>2018-09-16T11:53:02Z</time>
      </trkpt>
      <trkpt lat="45.20254" lon="3.72097">
        <ele>1079.22</ele>
        <time>2018-09-16T11:52:50Z</time>
      </trkpt>
      <trkpt lat="45.20252" lon="3.72101">
        <ele>1079.22</ele>
        <time>2018-09-16T11:52:40Z</time>
      </trkpt>
      <trkpt lat="45.2025" lon="3.72129">
        <ele>1079.7</ele>
        <time>2018-09-16T11:52:25Z</time>
      </trkpt>
      <trkpt lat="45.2025" lon="3.72149">
        <ele>1080.66</ele>
        <time>2018-09-16T11:52:14Z</time>
      </trkpt>
      <trkpt lat="45.20249" lon="3.72156">
        <ele>1081.14</ele>
        <time>2018-09-16T11:52:10Z</time>
      </trkpt>
      <trkpt lat="45.20246" lon="3.72168">
        <ele>1081.62</ele>
        <time>2018-09-16T11:52:03Z</time>
      </trkpt>
      <trkpt lat="45.20244" lon="3.7218">
        <ele>1082.58</ele>
        <time>2018-09-16T11:51:55Z</time>
      </trkpt>
      <trkpt lat="45.20241" lon="3.72186">
        <ele>1083.54</ele>
        <time>2018-09-16T11:51:51Z</time>
      </trkpt>
      <trkpt lat="45.20235" lon="3.72205">
        <ele>1086.43</ele>
        <time>2018-09-16T11:51:39Z</time>
      </trkpt>
      <trkpt lat="45.20225" lon="3.72224">
        <ele>1087.39</ele>
        <time>2018-09-16T11:51:26Z</time>
      </trkpt>
      <trkpt lat="45.20224" lon="3.72227">
        <ele>1087.87</ele>
        <time>2018-09-16T11:51:24Z</time>
      </trkpt>
      <trkpt lat="45.20222" lon="3.7223">
        <ele>1088.83</ele>
        <time>2018-09-16T11:51:22Z</time>
      </trkpt>
      <trkpt lat="45.20211" lon="3.72246">
        <ele>1090.75</ele>
        <time>2018-09-16T11:51:08Z</time>
      </trkpt>
      <trkpt lat="45.20201" lon="3.7226">
        <ele>1089.31</ele>
        <time>2018-09-16T11:50:55Z</time>
      </trkpt>
      <trkpt lat="45.20193" lon="3.72275">
        <ele>1089.31</ele>
        <time>2018-09-16T11:50:45Z</time>
      </trkpt>
      <trkpt lat="45.20184" lon="3.72288">
        <ele>1089.31</ele>
        <time>2018-09-16T11:50:34Z</time>
      </trkpt>
      <trkpt lat="45.2018" lon="3.72296">
        <ele>1089.31</ele>
        <time>2018-09-16T11:50:27Z</time>
      </trkpt>
      <trkpt lat="45.20173" lon="3.72309">
        <ele>1089.79</ele>
        <time>2018-09-16T11:50:13Z</time>
      </trkpt>
      <trkpt lat="45.20167" lon="3.72319">
        <ele>1089.79</ele>
        <time>2018-09-16T11:50:00Z</time>
      </trkpt>
      <trkpt lat="45.20161" lon="3.72334">
        <ele>1090.75</ele>
        <time>2018-09-16T11:49:48Z</time>
      </trkpt>
      <trkpt lat="45.20158" lon="3.72351">
        <ele>1092.2</ele>
        <time>2018-09-16T11:49:36Z</time>
      </trkpt>
      <trkpt lat="45.20156" lon="3.72359">
        <ele>1093.16</ele>
        <time>2018-09-16T11:49:31Z</time>
      </trkpt>
      <trkpt lat="45.20156" lon="3.72372">
        <ele>1093.64</ele>
        <time>2018-09-16T11:49:23Z</time>
      </trkpt>
      <trkpt lat="45.20156" lon="3.72374">
        <ele>1093.64</ele>
        <time>2018-09-16T11:49:22Z</time>
      </trkpt>
      <trkpt lat="45.20155" lon="3.72399">
        <ele>1093.64</ele>
        <time>2018-09-16T11:49:05Z</time>
      </trkpt>
      <trkpt lat="45.20154" lon="3.72407">
        <ele>1092.68</ele>
        <time>2018-09-16T11:49:00Z</time>
      </trkpt>
      <trkpt lat="45.20154" lon="3.72409">
        <ele>1092.2</ele>
        <time>2018-09-16T11:48:58Z</time>
      </trkpt>
      <trkpt lat="45.20157" lon="3.72421">
        <ele>1094.12</ele>
        <time>2018-09-16T11:48:48Z</time>
      </trkpt>
      <trkpt lat="45.2015" lon="3.72442">
        <ele>1098.44</ele>
        <time>2018-09-16T11:48:32Z</time>
      </trkpt>
      <trkpt lat="45.20146" lon="3.72457">
        <ele>1100.85</ele>
        <time>2018-09-16T11:48:19Z</time>
      </trkpt>
      <trkpt lat="45.20146" lon="3.7246">
        <ele>1101.81</ele>
        <time>2018-09-16T11:48:01Z</time>
      </trkpt>
      <trkpt lat="45.20134" lon="3.72481">
        <ele>1106.61</ele>
        <time>2018-09-16T11:47:44Z</time>
      </trkpt>
      <trkpt lat="45.20123" lon="3.72502">
        <ele>1109.02</ele>
        <time>2018-09-16T11:47:29Z</time>
      </trkpt>
      <trkpt lat="45.20119" lon="3.7251">
        <ele>1108.06</ele>
        <time>2018-09-16T11:47:21Z</time>
      </trkpt>
      <trkpt lat="45.20107" lon="3.72522">
        <ele>1112.38</ele>
        <time>2018-09-16T11:47:06Z</time>
      </trkpt>
      <trkpt lat="45.20085" lon="3.72538">
        <ele>1115.75</ele>
        <time>2018-09-16T11:46:50Z</time>
      </trkpt>
      <trkpt lat="45.20073" lon="3.7256">
        <ele>1123.44</ele>
        <time>2018-09-16T11:46:42Z</time>
      </trkpt>
      <trkpt lat="45.20065" lon="3.72567">
        <ele>1127.28</ele>
        <time>2018-09-16T11:46:38Z</time>
      </trkpt>
      <trkpt lat="45.20064" lon="3.72569">
        <ele>1128.24</ele>
        <time>2018-09-16T11:46:37Z</time>
      </trkpt>
      <trkpt lat="45.20044" lon="3.72601">
        <ele>1141.22</ele>
        <time>2018-09-16T11:46:25Z</time>
      </trkpt>
      <trkpt lat="45.20043" lon="3.72605">
        <ele>1144.59</ele>
        <time>2018-09-16T11:46:23Z</time>
      </trkpt>
      <trkpt lat="45.20043" lon="3.72618">
        <ele>1155.16</ele>
        <time>2018-09-16T11:46:11Z</time>
      </trkpt>
      <trkpt lat="45.20043" lon="3.72622">
        <ele>1160.93</ele>
        <time>2018-09-16T11:46:00Z</time>
      </trkpt>
      <trkpt lat="45.20035" lon="3.72629">
        <ele>1165.26</ele>
        <time>2018-09-16T11:45:47Z</time>
      </trkpt>
      <trkpt lat="45.20028" lon="3.72639">
        <ele>1164.77</ele>
        <time>2018-09-16T11:45:39Z</time>
      </trkpt>
      <trkpt lat="45.20015" lon="3.72654">
        <ele>1164.77</ele>
        <time>2018-09-16T11:45:25Z</time>
      </trkpt>
      <trkpt lat="45.2" lon="3.72669">
        <ele>1169.58</ele>
        <time>2018-09-16T11:45:10Z</time>
      </trkpt>
      <trkpt lat="45.19984" lon="3.72692">
        <ele>1168.62</ele>
        <time>2018-09-16T11:44:54Z</time>
      </trkpt>
      <trkpt lat="45.19982" lon="3.72694">
        <ele>1167.66</ele>
        <time>2018-09-16T11:44:50Z</time>
      </trkpt>
      <trkpt lat="45.19972" lon="3.72706">
        <ele>1165.74</ele>
        <time>2018-09-16T11:44:36Z</time>
      </trkpt>
      <trkpt lat="45.19971" lon="3.72706">
        <ele>1165.74</ele>
        <time>2018-09-16T11:44:32Z</time>
      </trkpt>
      <trkpt lat="45.19965" lon="3.72711">
        <ele>1164.29</ele>
        <time>2018-09-16T11:44:21Z</time>
      </trkpt>
      <trkpt lat="45.19951" lon="3.72719">
        <ele>1163.33</ele>
        <time>2018-09-16T11:44:07Z</time>
      </trkpt>
      <trkpt lat="45.19936" lon="3.72727">
        <ele>1163.33</ele>
        <time>2018-09-16T11:43:51Z</time>
      </trkpt>
      <trkpt lat="45.19916" lon="3.72726">
        <ele>1171.02</ele>
        <time>2018-09-16T11:43:36Z</time>
      </trkpt>
      <trkpt lat="45.19907" lon="3.72722">
        <ele>1173.91</ele>
        <time>2018-09-16T11:43:31Z</time>
      </trkpt>
      <trkpt lat="45.19902" lon="3.72702">
        <ele>1178.71</ele>
        <time>2018-09-16T11:43:17Z</time>
      </trkpt>
      <trkpt lat="45.19891" lon="3.7268">
        <ele>1157.8</ele>
      </trkpt>
      <trkpt lat="45.19876" lon="3.72646">
        <ele>1161.4</ele>
      </trkpt>
      <trkpt lat="45.19879" lon="3.72631">
        <ele>1161.2</ele>
      </trkpt>
      <trkpt lat="45.19879" lon="3.72606">
        <ele>1161.1</ele>
      </trkpt>
      <trkpt lat="45.19879" lon="3.7258">
        <ele>1159.3</ele>
      </trkpt>
      <trkpt lat="45.19878" lon="3.72559">
        <ele>1158.8</ele>
      </trkpt>
      <trkpt lat="45.19878" lon="3.72556">
        <ele>1158.7</ele>
      </trkpt>
      <trkpt lat="45.19877" lon="3.7255">
        <ele>1193.13</ele>
        <time>2018-09-16T11:32:52Z</time>
      </trkpt>
      <trkpt lat="45.19875" lon="3.72546">
        <ele>1193.61</ele>
        <time>2018-09-16T11:32:50Z</time>
      </trkpt>
      <trkpt lat="45.19869" lon="3.72531">
        <ele>1193.61</ele>
        <time>2018-09-16T11:32:39Z</time>
      </trkpt>
      <trkpt lat="45.19869" lon="3.72517">
        <ele>1184</ele>
        <time>2018-09-16T11:32:29Z</time>
      </trkpt>
      <trkpt lat="45.19869" lon="3.72514">
        <ele>1181.6</ele>
        <time>2018-09-16T11:32:26Z</time>
      </trkpt>
      <trkpt lat="45.19864" lon="3.72495">
        <ele>1186.4</ele>
        <time>2018-09-16T11:32:10Z</time>
      </trkpt>
      <trkpt lat="45.19864" lon="3.72483">
        <ele>1185.92</ele>
        <time>2018-09-16T11:31:55Z</time>
      </trkpt>
      <trkpt lat="45.19862" lon="3.72464">
        <ele>1186.4</ele>
        <time>2018-09-16T11:31:44Z</time>
      </trkpt>
      <trkpt lat="45.19859" lon="3.72457">
        <ele>1187.37</ele>
        <time>2018-09-16T11:31:40Z</time>
      </trkpt>
      <trkpt lat="45.19854" lon="3.72439">
        <ele>1179.19</ele>
        <time>2018-09-16T11:31:28Z</time>
      </trkpt>
      <trkpt lat="45.19845" lon="3.72427">
        <ele>1174.39</ele>
        <time>2018-09-16T11:31:17Z</time>
      </trkpt>
      <trkpt lat="45.19841" lon="3.72424">
        <ele>1173.91</ele>
        <time>2018-09-16T11:31:06Z</time>
      </trkpt>
      <trkpt lat="45.19832" lon="3.72418">
        <ele>1174.87</ele>
        <time>2018-09-16T11:30:53Z</time>
      </trkpt>
      <trkpt lat="45.19822" lon="3.72406">
        <ele>1175.35</ele>
        <time>2018-09-16T11:30:42Z</time>
      </trkpt>
      <trkpt lat="45.19817" lon="3.72401">
        <ele>1173.91</ele>
        <time>2018-09-16T11:30:37Z</time>
      </trkpt>
      <trkpt lat="45.19808" lon="3.72395">
        <ele>1172.47</ele>
        <time>2018-09-16T11:30:25Z</time>
      </trkpt>
      <trkpt lat="45.19794" lon="3.72381">
        <ele>1168.14</ele>
        <time>2018-09-16T11:30:12Z</time>
      </trkpt>
      <trkpt lat="45.19791" lon="3.72377">
        <ele>1166.7</ele>
        <time>2018-09-16T11:30:08Z</time>
      </trkpt>
      <trkpt lat="45.19789" lon="3.72374">
        <ele>1165.74</ele>
        <time>2018-09-16T11:29:57Z</time>
      </trkpt>
      <trkpt lat="45.19787" lon="3.72373">
        <ele>1165.26</ele>
        <time>2018-09-16T11:29:43Z</time>
      </trkpt>
      <trkpt lat="45.19783" lon="3.72368">
        <ele>1161.41</ele>
        <time>2018-09-16T11:29:32Z</time>
      </trkpt>
      <trkpt lat="45.19783" lon="3.72368">
        <ele>1160.93</ele>
        <time>2018-09-16T11:29:19Z</time>
      </trkpt>
      <trkpt lat="45.19782" lon="3.72366">
        <ele>1159.97</ele>
        <time>2018-09-16T11:29:06Z</time>
      </trkpt>
      <trkpt lat="45.1978" lon="3.72364">
        <ele>1159.97</ele>
        <time>2018-09-16T11:28:55Z</time>
      </trkpt>
      <trkpt lat="45.1978" lon="3.72363">
        <ele>1161.41</ele>
        <time>2018-09-16T11:28:39Z</time>
      </trkpt>
      <trkpt lat="45.19779" lon="3.72363">
        <ele>1161.41</ele>
        <time>2018-09-16T11:28:25Z</time>
      </trkpt>
      <trkpt lat="45.19777" lon="3.72362">
        <ele>1161.89</ele>
        <time>2018-09-16T11:28:10Z</time>
      </trkpt>
      <trkpt lat="45.19776" lon="3.72361">
        <ele>1159.49</ele>
        <time>2018-09-16T11:27:58Z</time>
      </trkpt>
      <trkpt lat="45.19777" lon="3.7236">
        <ele>1157.56</ele>
        <time>2018-09-16T11:27:48Z</time>
      </trkpt>
      <trkpt lat="45.19778" lon="3.72364">
        <ele>1153.24</ele>
        <time>2018-09-16T11:27:37Z</time>
      </trkpt>
      <trkpt lat="45.19778" lon="3.72364">
        <ele>1150.84</ele>
        <time>2018-09-16T11:27:27Z</time>
      </trkpt>
      <trkpt lat="45.19776" lon="3.72364">
        <ele>1148.91</ele>
        <time>2018-09-16T11:27:13Z</time>
      </trkpt>
      <trkpt lat="45.19774" lon="3.72365">
        <ele>1148.43</ele>
        <time>2018-09-16T11:27:02Z</time>
      </trkpt>
      <trkpt lat="45.19773" lon="3.72366">
        <ele>1147.95</ele>
        <time>2018-09-16T11:26:50Z</time>
      </trkpt>
      <trkpt lat="45.19773" lon="3.72365">
        <ele>1147.95</ele>
        <time>2018-09-16T11:26:36Z</time>
      </trkpt>
      <trkpt lat="45.19771" lon="3.72365">
        <ele>1146.99</ele>
        <time>2018-09-16T11:26:24Z</time>
      </trkpt>
      <trkpt lat="45.19771" lon="3.72364">
        <ele>1146.99</ele>
        <time>2018-09-16T11:26:11Z</time>
      </trkpt>
      <trkpt lat="45.19771" lon="3.72368">
        <ele>1147.95</ele>
        <time>2018-09-16T11:25:57Z</time>
      </trkpt>
      <trkpt lat="45.19769" lon="3.72368">
        <ele>1146.51</ele>
        <time>2018-09-16T11:25:42Z</time>
      </trkpt>
      <trkpt lat="45.1977" lon="3.72371">
        <ele>1146.03</ele>
        <time>2018-09-16T11:25:26Z</time>
      </trkpt>
      <trkpt lat="45.19769" lon="3.7237">
        <ele>1146.03</ele>
        <time>2018-09-16T11:25:15Z</time>
      </trkpt>
      <trkpt lat="45.19768" lon="3.72369">
        <ele>1147.47</ele>
        <time>2018-09-16T11:25:04Z</time>
      </trkpt>
      <trkpt lat="45.19769" lon="3.72368">
        <ele>1146.99</ele>
        <time>2018-09-16T11:24:56Z</time>
      </trkpt>
      <trkpt lat="45.1977" lon="3.72369">
        <ele>1147.47</ele>
        <time>2018-09-16T11:24:43Z</time>
      </trkpt>
      <trkpt lat="45.1977" lon="3.72368">
        <ele>1146.99</ele>
        <time>2018-09-16T11:24:21Z</time>
      </trkpt>
      <trkpt lat="45.1977" lon="3.72368">
        <ele>1146.51</ele>
        <time>2018-09-16T11:23:51Z</time>
      </trkpt>
      <trkpt lat="45.19769" lon="3.72369">
        <ele>1146.03</ele>
        <time>2018-09-16T11:23:28Z</time>
      </trkpt>
      <trkpt lat="45.19769" lon="3.72369">
        <ele>1145.07</ele>
        <time>2018-09-16T11:23:01Z</time>
      </trkpt>
      <trkpt lat="45.19769" lon="3.72369">
        <ele>1145.55</ele>
        <time>2018-09-16T11:22:37Z</time>
      </trkpt>
      <trkpt lat="45.19769" lon="3.72369">
        <ele>1145.55</ele>
        <time>2018-09-16T11:22:09Z</time>
      </trkpt>
      <trkpt lat="45.1977" lon="3.72368">
        <ele>1145.07</ele>
        <time>2018-09-16T11:21:41Z</time>
      </trkpt>
      <trkpt lat="45.19768" lon="3.72367">
        <ele>1144.11</ele>
        <time>2018-09-16T11:21:12Z</time>
      </trkpt>
      <trkpt lat="45.19768" lon="3.72367">
        <ele>1144.11</ele>
        <time>2018-09-16T11:20:51Z</time>
      </trkpt>
      <trkpt lat="45.19769" lon="3.72367">
        <ele>1143.63</ele>
        <time>2018-09-16T11:20:38Z</time>
      </trkpt>
      <trkpt lat="45.19769" lon="3.72368">
        <ele>1143.14</ele>
        <time>2018-09-16T11:20:22Z</time>
      </trkpt>
      <trkpt lat="45.19769" lon="3.72367">
        <ele>1142.66</ele>
        <time>2018-09-16T11:19:55Z</time>
      </trkpt>
      <trkpt lat="45.1977" lon="3.72368">
        <ele>1144.11</ele>
        <time>2018-09-16T11:19:17Z</time>
      </trkpt>
      <trkpt lat="45.19769" lon="3.72368">
        <ele>1144.59</ele>
        <time>2018-09-16T11:18:31Z</time>
      </trkpt>
      <trkpt lat="45.19768" lon="3.72368">
        <ele>1144.59</ele>
        <time>2018-09-16T11:17:55Z</time>
      </trkpt>
      <trkpt lat="45.19767" lon="3.72367">
        <ele>1145.07</ele>
        <time>2018-09-16T11:17:23Z</time>
      </trkpt>
      <trkpt lat="45.19767" lon="3.72367">
        <ele>1145.07</ele>
        <time>2018-09-16T11:17:05Z</time>
      </trkpt>
      <trkpt lat="45.19767" lon="3.72366">
        <ele>1146.03</ele>
        <time>2018-09-16T11:16:48Z</time>
      </trkpt>
      <trkpt lat="45.19766" lon="3.72365">
        <ele>1145.55</ele>
        <time>2018-09-16T11:16:19Z</time>
      </trkpt>
      <trkpt lat="45.19766" lon="3.72366">
        <ele>1146.03</ele>
        <time>2018-09-16T11:15:53Z</time>
      </trkpt>
      <trkpt lat="45.19765" lon="3.72367">
        <ele>1146.03</ele>
        <time>2018-09-16T11:15:33Z</time>
      </trkpt>
      <trkpt lat="45.19764" lon="3.72365">
        <ele>1145.07</ele>
        <time>2018-09-16T11:15:08Z</time>
      </trkpt>
      <trkpt lat="45.19763" lon="3.72365">
        <ele>1144.59</ele>
        <time>2018-09-16T11:14:47Z</time>
      </trkpt>
      <trkpt lat="45.19762" lon="3.72365">
        <ele>1145.07</ele>
        <time>2018-09-16T11:14:28Z</time>
      </trkpt>
      <trkpt lat="45.19763" lon="3.72365">
        <ele>1146.03</ele>
        <time>2018-09-16T11:14:07Z</time>
      </trkpt>
      <trkpt lat="45.19764" lon="3.72365">
        <ele>1147.95</ele>
        <time>2018-09-16T11:13:49Z</time>
      </trkpt>
      <trkpt lat="45.19766" lon="3.72367">
        <ele>1148.91</ele>
        <time>2018-09-16T11:13:22Z</time>
      </trkpt>
      <trkpt lat="45.19767" lon="3.72368">
        <ele>1148.91</ele>
        <time>2018-09-16T11:13:00Z</time>
      </trkpt>
      <trkpt lat="45.19769" lon="3.72369">
        <ele>1148.91</ele>
        <time>2018-09-16T11:12:47Z</time>
      </trkpt>
      <trkpt lat="45.19769" lon="3.72367">
        <ele>1147.95</ele>
        <time>2018-09-16T11:12:31Z</time>
      </trkpt>
      <trkpt lat="45.1977" lon="3.72366">
        <ele>1147.95</ele>
        <time>2018-09-16T11:12:10Z</time>
      </trkpt>
      <trkpt lat="45.1977" lon="3.72367">
        <ele>1148.43</ele>
        <time>2018-09-16T11:11:55Z</time>
      </trkpt>
      <trkpt lat="45.1977" lon="3.72367">
        <ele>1148.43</ele>
        <time>2018-09-16T11:11:39Z</time>
      </trkpt>
      <trkpt lat="45.19771" lon="3.72367">
        <ele>1148.43</ele>
        <time>2018-09-16T11:11:24Z</time>
      </trkpt>
      <trkpt lat="45.19771" lon="3.72366">
        <ele>1148.43</ele>
        <time>2018-09-16T11:11:05Z</time>
      </trkpt>
      <trkpt lat="45.1977" lon="3.72366">
        <ele>1148.43</ele>
        <time>2018-09-16T11:10:45Z</time>
      </trkpt>
      <trkpt lat="45.1977" lon="3.72367">
        <ele>1148.43</ele>
        <time>2018-09-16T11:10:27Z</time>
      </trkpt>
      <trkpt lat="45.1977" lon="3.72368">
        <ele>1146.03</ele>
        <time>2018-09-16T11:10:02Z</time>
      </trkpt>
      <trkpt lat="45.1977" lon="3.72368">
        <ele>1145.55</ele>
        <time>2018-09-16T11:09:45Z</time>
      </trkpt>
      <trkpt lat="45.1977" lon="3.72369">
        <ele>1144.59</ele>
        <time>2018-09-16T11:09:16Z</time>
      </trkpt>
      <trkpt lat="45.1977" lon="3.72369">
        <ele>1143.14</ele>
        <time>2018-09-16T11:08:41Z</time>
      </trkpt>
      <trkpt lat="45.1977" lon="3.72368">
        <ele>1143.63</ele>
        <time>2018-09-16T11:08:12Z</time>
      </trkpt>
      <trkpt lat="45.1977" lon="3.72367">
        <ele>1146.51</ele>
        <time>2018-09-16T11:07:37Z</time>
      </trkpt>
      <trkpt lat="45.19768" lon="3.72365">
        <ele>1148.43</ele>
        <time>2018-09-16T11:06:58Z</time>
      </trkpt>
      <trkpt lat="45.19768" lon="3.72366">
        <ele>1146.99</ele>
        <time>2018-09-16T11:06:31Z</time>
      </trkpt>
      <trkpt lat="45.19767" lon="3.72366">
        <ele>1145.07</ele>
        <time>2018-09-16T11:05:56Z</time>
      </trkpt>
      <trkpt lat="45.19766" lon="3.72366">
        <ele>1144.11</ele>
        <time>2018-09-16T11:05:38Z</time>
      </trkpt>
      <trkpt lat="45.19766" lon="3.72366">
        <ele>1144.11</ele>
        <time>2018-09-16T11:05:18Z</time>
      </trkpt>
      <trkpt lat="45.19766" lon="3.72366">
        <ele>1143.63</ele>
        <time>2018-09-16T11:04:47Z</time>
      </trkpt>
      <trkpt lat="45.19766" lon="3.72365">
        <ele>1142.18</ele>
        <time>2018-09-16T11:04:08Z</time>
      </trkpt>
      <trkpt lat="45.19767" lon="3.72364">
        <ele>1142.66</ele>
        <time>2018-09-16T11:03:30Z</time>
      </trkpt>
      <trkpt lat="45.19767" lon="3.72365">
        <ele>1142.18</ele>
        <time>2018-09-16T11:03:01Z</time>
      </trkpt>
      <trkpt lat="45.19766" lon="3.72365">
        <ele>1142.66</ele>
        <time>2018-09-16T11:02:35Z</time>
      </trkpt>
      <trkpt lat="45.19766" lon="3.72365">
        <ele>1143.14</ele>
        <time>2018-09-16T11:02:11Z</time>
      </trkpt>
      <trkpt lat="45.19765" lon="3.72366">
        <ele>1143.14</ele>
        <time>2018-09-16T11:01:38Z</time>
      </trkpt>
      <trkpt lat="45.19765" lon="3.72366">
        <ele>1143.14</ele>
        <time>2018-09-16T11:01:06Z</time>
      </trkpt>
      <trkpt lat="45.19765" lon="3.72366">
        <ele>1143.14</ele>
        <time>2018-09-16T11:00:38Z</time>
      </trkpt>
      <trkpt lat="45.19765" lon="3.72367">
        <ele>1143.63</ele>
        <time>2018-09-16T11:00:10Z</time>
      </trkpt>
      <trkpt lat="45.19765" lon="3.72367">
        <ele>1143.63</ele>
        <time>2018-09-16T10:59:37Z</time>
      </trkpt>
      <trkpt lat="45.19765" lon="3.72366">
        <ele>1144.11</ele>
        <time>2018-09-16T10:59:01Z</time>
      </trkpt>
      <trkpt lat="45.19765" lon="3.72366">
        <ele>1144.59</ele>
        <time>2018-09-16T10:58:27Z</time>
      </trkpt>
      <trkpt lat="45.19764" lon="3.72367">
        <ele>1145.55</ele>
        <time>2018-09-16T10:57:55Z</time>
      </trkpt>
      <trkpt lat="45.19763" lon="3.72368">
        <ele>1146.99</ele>
        <time>2018-09-16T10:57:19Z</time>
      </trkpt>
      <trkpt lat="45.19763" lon="3.72367">
        <ele>1147.47</ele>
        <time>2018-09-16T10:56:38Z</time>
      </trkpt>
      <trkpt lat="45.19763" lon="3.72366">
        <ele>1147.47</ele>
        <time>2018-09-16T10:55:57Z</time>
      </trkpt>
      <trkpt lat="45.19763" lon="3.72366">
        <ele>1147.47</ele>
        <time>2018-09-16T10:55:24Z</time>
      </trkpt>
      <trkpt lat="45.19762" lon="3.72366">
        <ele>1147.47</ele>
        <time>2018-09-16T10:54:54Z</time>
      </trkpt>
      <trkpt lat="45.19762" lon="3.72366">
        <ele>1147.47</ele>
        <time>2018-09-16T10:54:22Z</time>
      </trkpt>
      <trkpt lat="45.19763" lon="3.72366">
        <ele>1147.47</ele>
        <time>2018-09-16T10:53:43Z</time>
      </trkpt>
      <trkpt lat="45.19763" lon="3.72366">
        <ele>1146.99</ele>
        <time>2018-09-16T10:53:18Z</time>
      </trkpt>
      <trkpt lat="45.19764" lon="3.72366">
        <ele>1146.99</ele>
        <time>2018-09-16T10:52:45Z</time>
      </trkpt>
      <trkpt lat="45.19763" lon="3.72366">
        <ele>1146.99</ele>
        <time>2018-09-16T10:52:16Z</time>
      </trkpt>
      <trkpt lat="45.19764" lon="3.72366">
        <ele>1146.03</ele>
        <time>2018-09-16T10:51:39Z</time>
      </trkpt>
      <trkpt lat="45.19764" lon="3.72365">
        <ele>1146.51</ele>
        <time>2018-09-16T10:51:18Z</time>
      </trkpt>
      <trkpt lat="45.19765" lon="3.72365">
        <ele>1146.03</ele>
        <time>2018-09-16T10:50:55Z</time>
      </trkpt>
      <trkpt lat="45.19765" lon="3.72365">
        <ele>1145.07</ele>
        <time>2018-09-16T10:50:22Z</time>
      </trkpt>
      <trkpt lat="45.19766" lon="3.72365">
        <ele>1145.07</ele>
        <time>2018-09-16T10:49:52Z</time>
      </trkpt>
      <trkpt lat="45.19766" lon="3.72365">
        <ele>1144.59</ele>
        <time>2018-09-16T10:49:26Z</time>
      </trkpt>
      <trkpt lat="45.19766" lon="3.72366">
        <ele>1144.11</ele>
        <time>2018-09-16T10:48:59Z</time>
      </trkpt>
      <trkpt lat="45.19766" lon="3.72365">
        <ele>1143.63</ele>
        <time>2018-09-16T10:48:32Z</time>
      </trkpt>
      <trkpt lat="45.19766" lon="3.72365">
        <ele>1142.66</ele>
        <time>2018-09-16T10:47:59Z</time>
      </trkpt>
      <trkpt lat="45.19766" lon="3.72365">
        <ele>1141.7</ele>
        <time>2018-09-16T10:47:31Z</time>
      </trkpt>
      <trkpt lat="45.19765" lon="3.72365">
        <ele>1141.7</ele>
        <time>2018-09-16T10:46:55Z</time>
      </trkpt>
      <trkpt lat="45.19766" lon="3.72365">
        <ele>1141.22</ele>
        <time>2018-09-16T10:46:40Z</time>
      </trkpt>
      <trkpt lat="45.19766" lon="3.72364">
        <ele>1140.74</ele>
        <time>2018-09-16T10:46:07Z</time>
      </trkpt>
      <trkpt lat="45.19766" lon="3.72364">
        <ele>1139.78</ele>
        <time>2018-09-16T10:45:32Z</time>
      </trkpt>
      <trkpt lat="45.19767" lon="3.72365">
        <ele>1140.26</ele>
        <time>2018-09-16T10:44:59Z</time>
      </trkpt>
      <trkpt lat="45.19767" lon="3.72366">
        <ele>1139.78</ele>
        <time>2018-09-16T10:44:24Z</time>
      </trkpt>
      <trkpt lat="45.19766" lon="3.72366">
        <ele>1138.34</ele>
        <time>2018-09-16T10:43:47Z</time>
      </trkpt>
      <trkpt lat="45.19767" lon="3.72366">
        <ele>1137.38</ele>
        <time>2018-09-16T10:43:13Z</time>
      </trkpt>
      <trkpt lat="45.19767" lon="3.72366">
        <ele>1137.38</ele>
        <time>2018-09-16T10:42:49Z</time>
      </trkpt>
      <trkpt lat="45.19766" lon="3.72365">
        <ele>1136.9</ele>
        <time>2018-09-16T10:42:18Z</time>
      </trkpt>
      <trkpt lat="45.19767" lon="3.72366">
        <ele>1137.38</ele>
        <time>2018-09-16T10:41:40Z</time>
      </trkpt>
      <trkpt lat="45.19767" lon="3.72366">
        <ele>1136.9</ele>
        <time>2018-09-16T10:41:12Z</time>
      </trkpt>
      <trkpt lat="45.19766" lon="3.72366">
        <ele>1137.38</ele>
        <time>2018-09-16T10:40:41Z</time>
      </trkpt>
      <trkpt lat="45.19766" lon="3.72365">
        <ele>1137.86</ele>
        <time>2018-09-16T10:40:18Z</time>
      </trkpt>
      <trkpt lat="45.19766" lon="3.72365">
        <ele>1138.34</ele>
        <time>2018-09-16T10:39:53Z</time>
      </trkpt>
      <trkpt lat="45.19766" lon="3.72365">
        <ele>1138.82</ele>
        <time>2018-09-16T10:39:27Z</time>
      </trkpt>
      <trkpt lat="45.19765" lon="3.72363">
        <ele>1138.34</ele>
        <time>2018-09-16T10:38:55Z</time>
      </trkpt>
      <trkpt lat="45.19766" lon="3.72364">
        <ele>1139.3</ele>
        <time>2018-09-16T10:38:28Z</time>
      </trkpt>
      <trkpt lat="45.19767" lon="3.72364">
        <ele>1139.78</ele>
        <time>2018-09-16T10:38:07Z</time>
      </trkpt>
      <trkpt lat="45.19766" lon="3.72363">
        <ele>1138.82</ele>
        <time>2018-09-16T10:37:38Z</time>
      </trkpt>
      <trkpt lat="45.19767" lon="3.72363">
        <ele>1138.34</ele>
        <time>2018-09-16T10:37:09Z</time>
      </trkpt>
      <trkpt lat="45.19767" lon="3.72363">
        <ele>1139.3</ele>
        <time>2018-09-16T10:36:37Z</time>
      </trkpt>
      <trkpt lat="45.19767" lon="3.72364">
        <ele>1140.26</ele>
        <time>2018-09-16T10:36:03Z</time>
      </trkpt>
      <trkpt lat="45.19767" lon="3.72364">
        <ele>1141.22</ele>
        <time>2018-09-16T10:35:34Z</time>
      </trkpt>
      <trkpt lat="45.19767" lon="3.72364">
        <ele>1142.66</ele>
        <time>2018-09-16T10:35:01Z</time>
      </trkpt>
      <trkpt lat="45.19766" lon="3.72365">
        <ele>1142.66</ele>
        <time>2018-09-16T10:34:32Z</time>
      </trkpt>
      <trkpt lat="45.19766" lon="3.72365">
        <ele>1143.63</ele>
        <time>2018-09-16T10:34:02Z</time>
      </trkpt>
      <trkpt lat="45.19766" lon="3.72366">
        <ele>1143.14</ele>
        <time>2018-09-16T10:33:42Z</time>
      </trkpt>
      <trkpt lat="45.19764" lon="3.72365">
        <ele>1144.11</ele>
        <time>2018-09-16T10:33:16Z</time>
      </trkpt>
      <trkpt lat="45.19765" lon="3.72364">
        <ele>1145.55</ele>
        <time>2018-09-16T10:32:44Z</time>
      </trkpt>
      <trkpt lat="45.19766" lon="3.72363">
        <ele>1146.51</ele>
        <time>2018-09-16T10:32:27Z</time>
      </trkpt>
      <trkpt lat="45.19769" lon="3.72362">
        <ele>1147.95</ele>
        <time>2018-09-16T10:32:16Z</time>
      </trkpt>
      <trkpt lat="45.19773" lon="3.72357">
        <ele>1147.95</ele>
        <time>2018-09-16T10:32:02Z</time>
      </trkpt>
      <trkpt lat="45.19772" lon="3.72354">
        <ele>1147.95</ele>
        <time>2018-09-16T10:31:46Z</time>
      </trkpt>
      <trkpt lat="45.19771" lon="3.72351">
        <ele>1147.95</ele>
        <time>2018-09-16T10:31:30Z</time>
      </trkpt>
      <trkpt lat="45.19773" lon="3.72348">
        <ele>1148.43</ele>
        <time>2018-09-16T10:31:17Z</time>
      </trkpt>
      <trkpt lat="45.19769" lon="3.72342">
        <ele>1147.95</ele>
        <time>2018-09-16T10:31:06Z</time>
      </trkpt>
      <trkpt lat="45.1976" lon="3.72337">
        <ele>1148.43</ele>
        <time>2018-09-16T10:30:55Z</time>
      </trkpt>
      <trkpt lat="45.19758" lon="3.72339">
        <ele>1150.84</ele>
        <time>2018-09-16T10:30:42Z</time>
      </trkpt>
      <trkpt lat="45.19755" lon="3.72338">
        <ele>1150.84</ele>
        <time>2018-09-16T10:30:30Z</time>
      </trkpt>
      <trkpt lat="45.1975" lon="3.72334">
        <ele>1154.2</ele>
        <time>2018-09-16T10:30:15Z</time>
      </trkpt>
      <trkpt lat="45.19744" lon="3.72329">
        <ele>1156.12</ele>
        <time>2018-09-16T10:29:54Z</time>
      </trkpt>
      <trkpt lat="45.19738" lon="3.72328">
        <ele>1154.68</ele>
        <time>2018-09-16T10:29:45Z</time>
      </trkpt>
      <trkpt lat="45.19727" lon="3.72324">
        <ele>1151.8</ele>
        <time>2018-09-16T10:29:34Z</time>
      </trkpt>
      <trkpt lat="45.19715" lon="3.72321">
        <ele>1151.32</ele>
        <time>2018-09-16T10:29:22Z</time>
      </trkpt>
      <trkpt lat="45.19704" lon="3.72321">
        <ele>1151.32</ele>
        <time>2018-09-16T10:29:10Z</time>
      </trkpt>
      <trkpt lat="45.19691" lon="3.72322">
        <ele>1150.84</ele>
        <time>2018-09-16T10:28:59Z</time>
      </trkpt>
      <trkpt lat="45.1968" lon="3.72332">
        <ele>1153.72</ele>
        <time>2018-09-16T10:28:46Z</time>
      </trkpt>
      <trkpt lat="45.19671" lon="3.72343">
        <ele>1154.68</ele>
        <time>2018-09-16T10:28:35Z</time>
      </trkpt>
      <trkpt lat="45.19665" lon="3.72344">
        <ele>1157.56</ele>
        <time>2018-09-16T10:28:20Z</time>
      </trkpt>
      <trkpt lat="45.19655" lon="3.72347">
        <ele>1159.01</ele>
        <time>2018-09-16T10:28:08Z</time>
      </trkpt>
      <trkpt lat="45.19655" lon="3.72347">
        <ele>1159.01</ele>
        <time>2018-09-16T10:28:05Z</time>
      </trkpt>
      <trkpt lat="45.19647" lon="3.72353">
        <ele>1159.01</ele>
        <time>2018-09-16T10:27:53Z</time>
      </trkpt>
      <trkpt lat="45.19641" lon="3.72361">
        <ele>1158.53</ele>
        <time>2018-09-16T10:27:47Z</time>
      </trkpt>
      <trkpt lat="45.19637" lon="3.72378">
        <ele>1161.89</ele>
        <time>2018-09-16T10:27:31Z</time>
      </trkpt>
      <trkpt lat="45.19627" lon="3.72387">
        <ele>1158.53</ele>
        <time>2018-09-16T10:27:18Z</time>
      </trkpt>
      <trkpt lat="45.19625" lon="3.7239">
        <ele>1159.01</ele>
        <time>2018-09-16T10:27:05Z</time>
      </trkpt>
      <trkpt lat="45.19625" lon="3.72393">
        <ele>1159.49</ele>
        <time>2018-09-16T10:26:53Z</time>
      </trkpt>
      <trkpt lat="45.19621" lon="3.72399">
        <ele>1159.49</ele>
        <time>2018-09-16T10:26:41Z</time>
      </trkpt>
      <trkpt lat="45.19623" lon="3.72402">
        <ele>1159.01</ele>
        <time>2018-09-16T10:26:36Z</time>
      </trkpt>
      <trkpt lat="45.19623" lon="3.72406">
        <ele>1160.45</ele>
        <time>2018-09-16T10:26:20Z</time>
      </trkpt>
      <trkpt lat="45.19617" lon="3.72422">
        <ele>1159.97</ele>
        <time>2018-09-16T10:26:10Z</time>
      </trkpt>
      <trkpt lat="45.19608" lon="3.7245">
        <ele>1158.53</ele>
        <time>2018-09-16T10:25:57Z</time>
      </trkpt>
      <trkpt lat="45.19607" lon="3.72465">
        <ele>1159.49</ele>
        <time>2018-09-16T10:25:42Z</time>
      </trkpt>
      <trkpt lat="45.19605" lon="3.72473">
        <ele>1159.97</ele>
        <time>2018-09-16T10:25:35Z</time>
      </trkpt>
      <trkpt lat="45.19607" lon="3.72478">
        <ele>1159.49</ele>
        <time>2018-09-16T10:25:29Z</time>
      </trkpt>
      <trkpt lat="45.19604" lon="3.72484">
        <ele>1157.56</ele>
        <time>2018-09-16T10:25:22Z</time>
      </trkpt>
      <trkpt lat="45.19599" lon="3.7249">
        <ele>1159.01</ele>
        <time>2018-09-16T10:25:11Z</time>
      </trkpt>
      <trkpt lat="45.19598" lon="3.72497">
        <ele>1159.01</ele>
        <time>2018-09-16T10:25:09Z</time>
      </trkpt>
      <trkpt lat="45.19591" lon="3.72512">
        <ele>1154.2</ele>
        <time>2018-09-16T10:24:58Z</time>
      </trkpt>
      <trkpt lat="45.19588" lon="3.72524">
        <ele>1148.91</ele>
        <time>2018-09-16T10:24:47Z</time>
      </trkpt>
      <trkpt lat="45.19585" lon="3.72533">
        <ele>1144.59</ele>
        <time>2018-09-16T10:24:37Z</time>
      </trkpt>
      <trkpt lat="45.19588" lon="3.72537">
        <ele>1141.22</ele>
        <time>2018-09-16T10:24:27Z</time>
      </trkpt>
      <trkpt lat="45.19584" lon="3.72551">
        <ele>1136.9</ele>
        <time>2018-09-16T10:24:15Z</time>
      </trkpt>
      <trkpt lat="45.19581" lon="3.72558">
        <ele>1136.42</ele>
        <time>2018-09-16T10:24:03Z</time>
      </trkpt>
      <trkpt lat="45.19579" lon="3.72564">
        <ele>1137.38</ele>
        <time>2018-09-16T10:23:43Z</time>
      </trkpt>
      <trkpt lat="45.19578" lon="3.72565">
        <ele>1137.38</ele>
        <time>2018-09-16T10:23:24Z</time>
      </trkpt>
      <trkpt lat="45.19578" lon="3.72569">
        <ele>1137.38</ele>
        <time>2018-09-16T10:23:06Z</time>
      </trkpt>
      <trkpt lat="45.19568" lon="3.72601">
        <ele>1144.59</ele>
        <time>2018-09-16T10:22:35Z</time>
      </trkpt>
      <trkpt lat="45.19559" lon="3.72619">
        <ele>1149.39</ele>
        <time>2018-09-16T10:22:19Z</time>
      </trkpt>
      <trkpt lat="45.19551" lon="3.72633">
        <ele>1149.87</ele>
        <time>2018-09-16T10:22:02Z</time>
      </trkpt>
      <trkpt lat="45.19542" lon="3.72649">
        <ele>1149.87</ele>
        <time>2018-09-16T10:21:47Z</time>
      </trkpt>
      <trkpt lat="45.19533" lon="3.72665">
        <ele>1148.43</ele>
        <time>2018-09-16T10:21:32Z</time>
      </trkpt>
      <trkpt lat="45.19526" lon="3.72673">
        <ele>1146.99</ele>
        <time>2018-09-16T10:21:15Z</time>
      </trkpt>
      <trkpt lat="45.19521" lon="3.72681">
        <ele>1145.55</ele>
        <time>2018-09-16T10:21:01Z</time>
      </trkpt>
      <trkpt lat="45.19515" lon="3.72694">
        <ele>1144.11</ele>
        <time>2018-09-16T10:20:44Z</time>
      </trkpt>
      <trkpt lat="45.19513" lon="3.72699">
        <ele>1143.63</ele>
        <time>2018-09-16T10:20:28Z</time>
      </trkpt>
      <trkpt lat="45.19509" lon="3.72709">
        <ele>1142.66</ele>
        <time>2018-09-16T10:20:11Z</time>
      </trkpt>
      <trkpt lat="45.19503" lon="3.7272">
        <ele>1138.82</ele>
        <time>2018-09-16T10:19:56Z</time>
      </trkpt>
      <trkpt lat="45.19496" lon="3.72731">
        <ele>1134.01</ele>
        <time>2018-09-16T10:19:44Z</time>
      </trkpt>
      <trkpt lat="45.1949" lon="3.72738">
        <ele>1128.73</ele>
        <time>2018-09-16T10:19:28Z</time>
      </trkpt>
      <trkpt lat="45.19485" lon="3.72741">
        <ele>1127.28</ele>
        <time>2018-09-16T10:19:13Z</time>
      </trkpt>
      <trkpt lat="45.19478" lon="3.72747">
        <ele>1126.32</ele>
        <time>2018-09-16T10:19:00Z</time>
      </trkpt>
      <trkpt lat="45.19472" lon="3.72752">
        <ele>1124.4</ele>
        <time>2018-09-16T10:18:49Z</time>
      </trkpt>
      <trkpt lat="45.19456" lon="3.7277">
        <ele>1121.03</ele>
        <time>2018-09-16T10:18:34Z</time>
      </trkpt>
      <trkpt lat="45.19441" lon="3.72787">
        <ele>1115.75</ele>
        <time>2018-09-16T10:18:18Z</time>
      </trkpt>
      <trkpt lat="45.19429" lon="3.72797">
        <ele>1111.9</ele>
        <time>2018-09-16T10:18:03Z</time>
      </trkpt>
      <trkpt lat="45.19422" lon="3.72801">
        <ele>1110.94</ele>
        <time>2018-09-16T10:17:49Z</time>
      </trkpt>
      <trkpt lat="45.19419" lon="3.72805">
        <ele>1110.46</ele>
        <time>2018-09-16T10:17:35Z</time>
      </trkpt>
      <trkpt lat="45.19419" lon="3.7281">
        <ele>1107.58</ele>
        <time>2018-09-16T10:17:20Z</time>
      </trkpt>
      <trkpt lat="45.19416" lon="3.72814">
        <ele>1106.13</ele>
        <time>2018-09-16T10:17:07Z</time>
      </trkpt>
      <trkpt lat="45.19411" lon="3.72819">
        <ele>1104.21</ele>
        <time>2018-09-16T10:16:51Z</time>
      </trkpt>
      <trkpt lat="45.19395" lon="3.7283">
        <ele>1103.25</ele>
        <time>2018-09-16T10:16:35Z</time>
      </trkpt>
      <trkpt lat="45.19388" lon="3.72835">
        <ele>1105.17</ele>
        <time>2018-09-16T10:16:19Z</time>
      </trkpt>
      <trkpt lat="45.1938" lon="3.7284">
        <ele>1106.13</ele>
        <time>2018-09-16T10:16:01Z</time>
      </trkpt>
      <trkpt lat="45.19373" lon="3.72845">
        <ele>1102.77</ele>
        <time>2018-09-16T10:15:44Z</time>
      </trkpt>
      <trkpt lat="45.19367" lon="3.72847">
        <ele>1100.37</ele>
        <time>2018-09-16T10:15:27Z</time>
      </trkpt>
      <trkpt lat="45.19361" lon="3.72847">
        <ele>1099.4</ele>
        <time>2018-09-16T10:15:12Z</time>
      </trkpt>
      <trkpt lat="45.19357" lon="3.72847">
        <ele>1098.92</ele>
        <time>2018-09-16T10:14:59Z</time>
      </trkpt>
      <trkpt lat="45.19346" lon="3.72856">
        <ele>1093.16</ele>
        <time>2018-09-16T10:14:44Z</time>
      </trkpt>
      <trkpt lat="45.19341" lon="3.72858">
        <ele>1093.16</ele>
        <time>2018-09-16T10:14:33Z</time>
      </trkpt>
      <trkpt lat="45.19335" lon="3.72855">
        <ele>1096.04</ele>
        <time>2018-09-16T10:14:14Z</time>
      </trkpt>
      <trkpt lat="45.19332" lon="3.72853">
        <ele>1096.52</ele>
        <time>2018-09-16T10:13:57Z</time>
      </trkpt>
      <trkpt lat="45.19321" lon="3.72851">
        <ele>1093.64</ele>
        <time>2018-09-16T10:13:45Z</time>
      </trkpt>
      <trkpt lat="45.19314" lon="3.72853">
        <ele>1090.75</ele>
        <time>2018-09-16T10:13:33Z</time>
      </trkpt>
      <trkpt lat="45.19298" lon="3.72855">
        <ele>1083.54</ele>
        <time>2018-09-16T10:13:15Z</time>
      </trkpt>
      <trkpt lat="45.19289" lon="3.72857">
        <ele>1079.7</ele>
        <time>2018-09-16T10:13:02Z</time>
      </trkpt>
      <trkpt lat="45.19287" lon="3.72858">
        <ele>1080.18</ele>
        <time>2018-09-16T10:12:46Z</time>
      </trkpt>
      <trkpt lat="45.19286" lon="3.72859">
        <ele>1082.1</ele>
        <time>2018-09-16T10:12:28Z</time>
      </trkpt>
      <trkpt lat="45.19284" lon="3.72859">
        <ele>1081.62</ele>
        <time>2018-09-16T10:12:12Z</time>
      </trkpt>
      <trkpt lat="45.19283" lon="3.72857">
        <ele>1084.02</ele>
        <time>2018-09-16T10:11:57Z</time>
      </trkpt>
      <trkpt lat="45.19277" lon="3.72853">
        <ele>1083.54</ele>
        <time>2018-09-16T10:11:45Z</time>
      </trkpt>
      <trkpt lat="45.19266" lon="3.72852">
        <ele>1078.26</ele>
        <time>2018-09-16T10:11:31Z</time>
      </trkpt>
      <trkpt lat="45.19254" lon="3.72853">
        <ele>1073.45</ele>
        <time>2018-09-16T10:11:18Z</time>
      </trkpt>
      <trkpt lat="45.19242" lon="3.72858">
        <ele>1067.68</ele>
        <time>2018-09-16T10:11:04Z</time>
      </trkpt>
      <trkpt lat="45.19226" lon="3.72868">
        <ele>1062.39</ele>
        <time>2018-09-16T10:10:48Z</time>
      </trkpt>
      <trkpt lat="45.19215" lon="3.72874">
        <ele>1058.07</ele>
        <time>2018-09-16T10:10:35Z</time>
      </trkpt>
      <trkpt lat="45.19206" lon="3.72879">
        <ele>1055.18</ele>
        <time>2018-09-16T10:10:26Z</time>
      </trkpt>
      <trkpt lat="45.19196" lon="3.72886">
        <ele>1054.22</ele>
        <time>2018-09-16T10:10:11Z</time>
      </trkpt>
      <trkpt lat="45.1919" lon="3.72894">
        <ele>1055.67</ele>
        <time>2018-09-16T10:09:59Z</time>
      </trkpt>
      <trkpt lat="45.19181" lon="3.72909">
        <ele>1052.3</ele>
        <time>2018-09-16T10:09:46Z</time>
      </trkpt>
      <trkpt lat="45.19172" lon="3.72923">
        <ele>1047.01</ele>
        <time>2018-09-16T10:09:32Z</time>
      </trkpt>
      <trkpt lat="45.19164" lon="3.72944">
        <ele>1042.21</ele>
        <time>2018-09-16T10:09:18Z</time>
      </trkpt>
      <trkpt lat="45.19162" lon="3.72952">
        <ele>1040.28</ele>
        <time>2018-09-16T10:09:12Z</time>
      </trkpt>
      <trkpt lat="45.19157" lon="3.72972">
        <ele>1039.32</ele>
        <time>2018-09-16T10:08:59Z</time>
      </trkpt>
      <trkpt lat="45.19156" lon="3.72977">
        <ele>1039.8</ele>
        <time>2018-09-16T10:08:56Z</time>
      </trkpt>
      <trkpt lat="45.19149" lon="3.73008">
        <ele>1038.36</ele>
        <time>2018-09-16T10:08:40Z</time>
      </trkpt>
      <trkpt lat="45.19145" lon="3.73028">
        <ele>1034.52</ele>
        <time>2018-09-16T10:08:28Z</time>
      </trkpt>
      <trkpt lat="45.19141" lon="3.73049">
        <ele>1032.59</ele>
        <time>2018-09-16T10:08:15Z</time>
      </trkpt>
      <trkpt lat="45.19139" lon="3.73065">
        <ele>1030.67</ele>
        <time>2018-09-16T10:08:03Z</time>
      </trkpt>
      <trkpt lat="45.19136" lon="3.73079">
        <ele>1029.71</ele>
        <time>2018-09-16T10:07:51Z</time>
      </trkpt>
      <trkpt lat="45.19133" lon="3.73102">
        <ele>1030.67</ele>
        <time>2018-09-16T10:07:37Z</time>
      </trkpt>
      <trkpt lat="45.19128" lon="3.73134">
        <ele>1026.83</ele>
        <time>2018-09-16T10:07:21Z</time>
      </trkpt>
      <trkpt lat="45.19126" lon="3.73158">
        <ele>1022.98</ele>
        <time>2018-09-16T10:07:05Z</time>
      </trkpt>
      <trkpt lat="45.19123" lon="3.7318">
        <ele>1018.17</ele>
        <time>2018-09-16T10:06:50Z</time>
      </trkpt>
      <trkpt lat="45.19118" lon="3.73202">
        <ele>1015.77</ele>
        <time>2018-09-16T10:06:35Z</time>
      </trkpt>
      <trkpt lat="45.19114" lon="3.7323">
        <ele>1014.33</ele>
        <time>2018-09-16T10:06:19Z</time>
      </trkpt>
      <trkpt lat="45.19112" lon="3.73258">
        <ele>1011.93</ele>
        <time>2018-09-16T10:06:04Z</time>
      </trkpt>
      <trkpt lat="45.19113" lon="3.73266">
        <ele>1010.96</ele>
        <time>2018-09-16T10:05:59Z</time>
      </trkpt>
      <trkpt lat="45.19119" lon="3.73289">
        <ele>1008.08</ele>
        <time>2018-09-16T10:05:44Z</time>
      </trkpt>
      <trkpt lat="45.19123" lon="3.73309">
        <ele>1006.16</ele>
        <time>2018-09-16T10:05:32Z</time>
      </trkpt>
      <trkpt lat="45.19125" lon="3.73326">
        <ele>1006.16</ele>
        <time>2018-09-16T10:05:19Z</time>
      </trkpt>
      <trkpt lat="45.19125" lon="3.73328">
        <ele>1006.16</ele>
        <time>2018-09-16T10:05:18Z</time>
      </trkpt>
      <trkpt lat="45.19122" lon="3.73345">
        <ele>1002.79</ele>
        <time>2018-09-16T10:05:04Z</time>
      </trkpt>
      <trkpt lat="45.19116" lon="3.73364">
        <ele>1000.39</ele>
        <time>2018-09-16T10:04:49Z</time>
      </trkpt>
      <trkpt lat="45.19106" lon="3.73386">
        <ele>996.54</ele>
        <time>2018-09-16T10:04:33Z</time>
      </trkpt>
      <trkpt lat="45.19097" lon="3.73402">
        <ele>991.26</ele>
        <time>2018-09-16T10:04:19Z</time>
      </trkpt>
      <trkpt lat="45.19088" lon="3.73419">
        <ele>986.93</ele>
        <time>2018-09-16T10:04:05Z</time>
      </trkpt>
      <trkpt lat="45.19079" lon="3.73438">
        <ele>982.6</ele>
        <time>2018-09-16T10:03:51Z</time>
      </trkpt>
      <trkpt lat="45.19073" lon="3.73454">
        <ele>981.16</ele>
        <time>2018-09-16T10:03:38Z</time>
      </trkpt>
      <trkpt lat="45.19069" lon="3.73474">
        <ele>981.64</ele>
        <time>2018-09-16T10:03:24Z</time>
      </trkpt>
      <trkpt lat="45.19063" lon="3.73508">
        <ele>981.64</ele>
        <time>2018-09-16T10:03:07Z</time>
      </trkpt>
      <trkpt lat="45.19055" lon="3.73536">
        <ele>979.24</ele>
        <time>2018-09-16T10:02:50Z</time>
      </trkpt>
      <trkpt lat="45.19045" lon="3.73566">
        <ele>976.36</ele>
        <time>2018-09-16T10:02:32Z</time>
      </trkpt>
      <trkpt lat="45.19044" lon="3.73571">
        <ele>975.88</ele>
        <time>2018-09-16T10:02:24Z</time>
      </trkpt>
      <trkpt lat="45.19042" lon="3.73576">
        <ele>975.88</ele>
        <time>2018-09-16T10:02:13Z</time>
      </trkpt>
      <trkpt lat="45.19039" lon="3.73605">
        <ele>975.39</ele>
        <time>2018-09-16T10:01:54Z</time>
      </trkpt>
      <trkpt lat="45.19039" lon="3.73612">
        <ele>973.95</ele>
        <time>2018-09-16T10:01:49Z</time>
      </trkpt>
      <trkpt lat="45.19038" lon="3.73646">
        <ele>973.47</ele>
        <time>2018-09-16T10:01:31Z</time>
      </trkpt>
      <trkpt lat="45.19039" lon="3.73652">
        <ele>973.47</ele>
        <time>2018-09-16T10:01:27Z</time>
      </trkpt>
      <trkpt lat="45.19037" lon="3.73654">
        <ele>973.95</ele>
        <time>2018-09-16T10:01:23Z</time>
      </trkpt>
      <trkpt lat="45.19036" lon="3.73695">
        <ele>972.51</ele>
        <time>2018-09-16T10:01:01Z</time>
      </trkpt>
      <trkpt lat="45.19023" lon="3.73731">
        <ele>971.07</ele>
        <time>2018-09-16T10:00:41Z</time>
      </trkpt>
      <trkpt lat="45.19008" lon="3.73759">
        <ele>970.11</ele>
        <time>2018-09-16T10:00:23Z</time>
      </trkpt>
      <trkpt lat="45.19008" lon="3.7376">
        <ele>970.11</ele>
        <time>2018-09-16T10:00:05Z</time>
      </trkpt>
      <trkpt lat="45.19003" lon="3.73767">
        <ele>970.11</ele>
        <time>2018-09-16T09:59:51Z</time>
      </trkpt>
      <trkpt lat="45.18999" lon="3.73773">
        <ele>969.63</ele>
        <time>2018-09-16T09:59:41Z</time>
      </trkpt>
      <trkpt lat="45.18988" lon="3.73795">
        <ele>967.7</ele>
        <time>2018-09-16T09:59:24Z</time>
      </trkpt>
      <trkpt lat="45.18973" lon="3.73827">
        <ele>965.3</ele>
        <time>2018-09-16T09:59:04Z</time>
      </trkpt>
      <trkpt lat="45.1896" lon="3.73849">
        <ele>964.82</ele>
        <time>2018-09-16T09:58:48Z</time>
      </trkpt>
      <trkpt lat="45.18944" lon="3.73875">
        <ele>967.22</ele>
        <time>2018-09-16T09:58:30Z</time>
      </trkpt>
      <trkpt lat="45.1893" lon="3.73899">
        <ele>966.74</ele>
        <time>2018-09-16T09:58:14Z</time>
      </trkpt>
      <trkpt lat="45.18913" lon="3.73922">
        <ele>965.78</ele>
        <time>2018-09-16T09:57:57Z</time>
      </trkpt>
      <trkpt lat="45.18906" lon="3.73934">
        <ele>967.22</ele>
        <time>2018-09-16T09:57:49Z</time>
      </trkpt>
      <trkpt lat="45.18892" lon="3.73961">
        <ele>972.51</ele>
        <time>2018-09-16T09:57:34Z</time>
      </trkpt>
      <trkpt lat="45.18889" lon="3.73992">
        <ele>972.03</ele>
        <time>2018-09-16T09:57:17Z</time>
      </trkpt>
      <trkpt lat="45.18889" lon="3.74022">
        <ele>972.03</ele>
        <time>2018-09-16T09:57:00Z</time>
      </trkpt>
      <trkpt lat="45.18886" lon="3.74049">
        <ele>972.51</ele>
        <time>2018-09-16T09:56:44Z</time>
      </trkpt>
      <trkpt lat="45.18876" lon="3.74076">
        <ele>973.47</ele>
        <time>2018-09-16T09:56:26Z</time>
      </trkpt>
      <trkpt lat="45.18863" lon="3.74101">
        <ele>972.51</ele>
        <time>2018-09-16T09:56:10Z</time>
      </trkpt>
      <trkpt lat="45.18845" lon="3.74121">
        <ele>973.47</ele>
        <time>2018-09-16T09:55:52Z</time>
      </trkpt>
      <trkpt lat="45.18826" lon="3.74143">
        <ele>973.47</ele>
        <time>2018-09-16T09:55:32Z</time>
      </trkpt>
      <trkpt lat="45.18815" lon="3.74162">
        <ele>972.51</ele>
        <time>2018-09-16T09:55:17Z</time>
      </trkpt>
      <trkpt lat="45.18805" lon="3.74179">
        <ele>972.51</ele>
        <time>2018-09-16T09:55:01Z</time>
      </trkpt>
      <trkpt lat="45.18802" lon="3.74182">
        <ele>972.99</ele>
        <time>2018-09-16T09:54:43Z</time>
      </trkpt>
      <trkpt lat="45.18801" lon="3.74182">
        <ele>973.47</ele>
        <time>2018-09-16T09:54:20Z</time>
      </trkpt>
      <trkpt lat="45.18801" lon="3.74185">
        <ele>973.47</ele>
        <time>2018-09-16T09:54:05Z</time>
      </trkpt>
      <trkpt lat="45.18797" lon="3.74194">
        <ele>972.99</ele>
        <time>2018-09-16T09:53:52Z</time>
      </trkpt>
      <trkpt lat="45.18788" lon="3.74218">
        <ele>972.03</ele>
        <time>2018-09-16T09:53:35Z</time>
      </trkpt>
      <trkpt lat="45.18778" lon="3.74248">
        <ele>969.63</ele>
        <time>2018-09-16T09:53:18Z</time>
      </trkpt>
      <trkpt lat="45.1877" lon="3.74273">
        <ele>966.26</ele>
        <time>2018-09-16T09:53:03Z</time>
      </trkpt>
      <trkpt lat="45.18765" lon="3.74285">
        <ele>965.3</ele>
        <time>2018-09-16T09:52:55Z</time>
      </trkpt>
      <trkpt lat="45.18753" lon="3.7431">
        <ele>963.38</ele>
        <time>2018-09-16T09:52:38Z</time>
      </trkpt>
      <trkpt lat="45.18733" lon="3.74333">
        <ele>963.38</ele>
        <time>2018-09-16T09:52:19Z</time>
      </trkpt>
      <trkpt lat="45.18712" lon="3.7435">
        <ele>962.9</ele>
        <time>2018-09-16T09:52:00Z</time>
      </trkpt>
      <trkpt lat="45.18693" lon="3.74363">
        <ele>961.94</ele>
        <time>2018-09-16T09:51:44Z</time>
      </trkpt>
      <trkpt lat="45.18689" lon="3.74366">
        <ele>961.46</ele>
        <time>2018-09-16T09:51:40Z</time>
      </trkpt>
      <trkpt lat="45.18672" lon="3.74378">
        <ele>960.49</ele>
        <time>2018-09-16T09:51:26Z</time>
      </trkpt>
      <trkpt lat="45.18648" lon="3.74398">
        <ele>959.05</ele>
        <time>2018-09-16T09:51:07Z</time>
      </trkpt>
      <trkpt lat="45.18627" lon="3.74416">
        <ele>954.25</ele>
        <time>2018-09-16T09:50:48Z</time>
      </trkpt>
      <trkpt lat="45.18607" lon="3.7443">
        <ele>953.28</ele>
        <time>2018-09-16T09:50:29Z</time>
      </trkpt>
      <trkpt lat="45.18581" lon="3.74446">
        <ele>956.65</ele>
        <time>2018-09-16T09:50:10Z</time>
      </trkpt>
      <trkpt lat="45.18567" lon="3.74455">
        <ele>955.21</ele>
        <time>2018-09-16T09:49:55Z</time>
      </trkpt>
      <trkpt lat="45.18545" lon="3.74468">
        <ele>953.28</ele>
        <time>2018-09-16T09:49:36Z</time>
      </trkpt>
      <trkpt lat="45.18523" lon="3.74483">
        <ele>952.32</ele>
        <time>2018-09-16T09:49:17Z</time>
      </trkpt>
      <trkpt lat="45.18502" lon="3.74502">
        <ele>948</ele>
        <time>2018-09-16T09:48:57Z</time>
      </trkpt>
      <trkpt lat="45.1849" lon="3.74514">
        <ele>947.04</ele>
        <time>2018-09-16T09:48:44Z</time>
      </trkpt>
      <trkpt lat="45.18473" lon="3.74529">
        <ele>946.07</ele>
        <time>2018-09-16T09:48:27Z</time>
      </trkpt>
      <trkpt lat="45.18457" lon="3.74544">
        <ele>945.11</ele>
        <time>2018-09-16T09:48:10Z</time>
      </trkpt>
      <trkpt lat="45.18443" lon="3.74558">
        <ele>944.63</ele>
        <time>2018-09-16T09:47:55Z</time>
      </trkpt>
      <trkpt lat="45.18425" lon="3.74573">
        <ele>941.75</ele>
        <time>2018-09-16T09:47:38Z</time>
      </trkpt>
      <trkpt lat="45.1842" lon="3.74578">
        <ele>940.79</ele>
        <time>2018-09-16T09:47:33Z</time>
      </trkpt>
      <trkpt lat="45.18419" lon="3.7458">
        <ele>940.79</ele>
        <time>2018-09-16T09:47:31Z</time>
      </trkpt>
      <trkpt lat="45.18418" lon="3.7458">
        <ele>940.79</ele>
        <time>2018-09-16T09:47:23Z</time>
      </trkpt>
      <trkpt lat="45.18414" lon="3.74581">
        <ele>939.83</ele>
        <time>2018-09-16T09:47:12Z</time>
      </trkpt>
      <trkpt lat="45.18392" lon="3.74581">
        <ele>938.86</ele>
        <time>2018-09-16T09:46:53Z</time>
      </trkpt>
      <trkpt lat="45.18384" lon="3.74588">
        <ele>939.35</ele>
        <time>2018-09-16T09:46:44Z</time>
      </trkpt>
      <trkpt lat="45.1837" lon="3.74594">
        <ele>938.86</ele>
        <time>2018-09-16T09:46:30Z</time>
      </trkpt>
      <trkpt lat="45.18351" lon="3.74595">
        <ele>940.31</ele>
        <time>2018-09-16T09:46:14Z</time>
      </trkpt>
      <trkpt lat="45.18337" lon="3.74599">
        <ele>939.35</ele>
        <time>2018-09-16T09:46:01Z</time>
      </trkpt>
      <trkpt lat="45.18317" lon="3.74606">
        <ele>939.83</ele>
        <time>2018-09-16T09:45:44Z</time>
      </trkpt>
      <trkpt lat="45.18309" lon="3.74613">
        <ele>940.31</ele>
        <time>2018-09-16T09:45:38Z</time>
      </trkpt>
      <trkpt lat="45.18298" lon="3.74622">
        <ele>936.94</ele>
        <time>2018-09-16T09:45:23Z</time>
      </trkpt>
      <trkpt lat="45.18293" lon="3.74634">
        <ele>936.94</ele>
        <time>2018-09-16T09:45:10Z</time>
      </trkpt>
      <trkpt lat="45.18287" lon="3.74652">
        <ele>933.58</ele>
        <time>2018-09-16T09:44:54Z</time>
      </trkpt>
      <trkpt lat="45.18275" lon="3.74666">
        <ele>931.65</ele>
        <time>2018-09-16T09:44:39Z</time>
      </trkpt>
      <trkpt lat="45.18259" lon="3.74686">
        <ele>927.33</ele>
        <time>2018-09-16T09:44:23Z</time>
      </trkpt>
      <trkpt lat="45.18254" lon="3.74692">
        <ele>925.89</ele>
        <time>2018-09-16T09:44:17Z</time>
      </trkpt>
      <trkpt lat="45.18243" lon="3.74709">
        <ele>921.56</ele>
        <time>2018-09-16T09:44:05Z</time>
      </trkpt>
      <trkpt lat="45.18243" lon="3.74709">
        <ele>921.56</ele>
        <time>2018-09-16T09:44:04Z</time>
      </trkpt>
      <trkpt lat="45.18235" lon="3.74726">
        <ele>917.24</ele>
        <time>2018-09-16T09:43:49Z</time>
      </trkpt>
      <trkpt lat="45.1822" lon="3.7474">
        <ele>916.75</ele>
        <time>2018-09-16T09:43:33Z</time>
      </trkpt>
      <trkpt lat="45.18221" lon="3.7474">
        <ele>917.24</ele>
        <time>2018-09-16T09:43:22Z</time>
      </trkpt>
      <trkpt lat="45.18223" lon="3.74745">
        <ele>917.72</ele>
        <time>2018-09-16T09:43:07Z</time>
      </trkpt>
      <trkpt lat="45.18229" lon="3.74757">
        <ele>915.31</ele>
        <time>2018-09-16T09:42:55Z</time>
      </trkpt>
      <trkpt lat="45.1823" lon="3.74759">
        <ele>914.83</ele>
        <time>2018-09-16T09:42:45Z</time>
      </trkpt>
      <trkpt lat="45.18234" lon="3.74763">
        <ele>914.35</ele>
        <time>2018-09-16T09:42:33Z</time>
      </trkpt>
      <trkpt lat="45.18238" lon="3.74772">
        <ele>916.75</ele>
        <time>2018-09-16T09:42:26Z</time>
      </trkpt>
      <trkpt lat="45.18243" lon="3.7478">
        <ele>917.72</ele>
        <time>2018-09-16T09:42:20Z</time>
      </trkpt>
      <trkpt lat="45.18247" lon="3.74781">
        <ele>917.72</ele>
        <time>2018-09-16T09:42:14Z</time>
      </trkpt>
      <trkpt lat="45.18247" lon="3.74781">
        <ele>917.72</ele>
        <time>2018-09-16T09:42:00Z</time>
      </trkpt>
      <trkpt lat="45.18244" lon="3.74783">
        <ele>917.24</ele>
        <time>2018-09-16T09:41:49Z</time>
      </trkpt>
      <trkpt lat="45.18248" lon="3.74788">
        <ele>916.75</ele>
        <time>2018-09-16T09:41:35Z</time>
      </trkpt>
      <trkpt lat="45.18249" lon="3.7479">
        <ele>916.75</ele>
        <time>2018-09-16T09:41:18Z</time>
      </trkpt>
      <trkpt lat="45.18248" lon="3.74793">
        <ele>918.2</ele>
        <time>2018-09-16T09:41:00Z</time>
      </trkpt>
      <trkpt lat="45.1825" lon="3.74802">
        <ele>917.24</ele>
        <time>2018-09-16T09:40:46Z</time>
      </trkpt>
      <trkpt lat="45.18251" lon="3.74804">
        <ele>916.75</ele>
        <time>2018-09-16T09:40:44Z</time>
      </trkpt>
      <trkpt lat="45.18251" lon="3.74812">
        <ele>915.79</ele>
        <time>2018-09-16T09:40:37Z</time>
      </trkpt>
      <trkpt lat="45.18243" lon="3.74829">
        <ele>912.91</ele>
        <time>2018-09-16T09:40:22Z</time>
      </trkpt>
      <trkpt lat="45.18237" lon="3.74844">
        <ele>908.58</ele>
        <time>2018-09-16T09:40:08Z</time>
      </trkpt>
      <trkpt lat="45.1823" lon="3.74858">
        <ele>904.26</ele>
        <time>2018-09-16T09:39:54Z</time>
      </trkpt>
      <trkpt lat="45.18224" lon="3.74874">
        <ele>899.93</ele>
        <time>2018-09-16T09:39:37Z</time>
      </trkpt>
      <trkpt lat="45.18232" lon="3.74881">
        <ele>898.97</ele>
        <time>2018-09-16T09:39:26Z</time>
      </trkpt>
      <trkpt lat="45.18247" lon="3.7489">
        <ele>897.53</ele>
        <time>2018-09-16T09:39:11Z</time>
      </trkpt>
      <trkpt lat="45.18249" lon="3.74898">
        <ele>896.57</ele>
        <time>2018-09-16T09:39:05Z</time>
      </trkpt>
      <trkpt lat="45.18251" lon="3.74911">
        <ele>896.09</ele>
        <time>2018-09-16T09:38:57Z</time>
      </trkpt>
      <trkpt lat="45.18253" lon="3.74915">
        <ele>896.09</ele>
        <time>2018-09-16T09:38:54Z</time>
      </trkpt>
      <trkpt lat="45.18256" lon="3.74919">
        <ele>896.09</ele>
        <time>2018-09-16T09:38:48Z</time>
      </trkpt>
      <trkpt lat="45.18268" lon="3.74933">
        <ele>896.09</ele>
        <time>2018-09-16T09:38:34Z</time>
      </trkpt>
      <trkpt lat="45.18281" lon="3.74958">
        <ele>896.09</ele>
        <time>2018-09-16T09:38:17Z</time>
      </trkpt>
      <trkpt lat="45.18284" lon="3.74962">
        <ele>896.09</ele>
        <time>2018-09-16T09:38:03Z</time>
      </trkpt>
      <trkpt lat="45.18288" lon="3.74983">
        <ele>895.61</ele>
        <time>2018-09-16T09:37:46Z</time>
      </trkpt>
      <trkpt lat="45.18292" lon="3.75001">
        <ele>895.12</ele>
        <time>2018-09-16T09:37:34Z</time>
      </trkpt>
      <trkpt lat="45.18309" lon="3.75033">
        <ele>896.57</ele>
        <time>2018-09-16T09:37:13Z</time>
      </trkpt>
      <trkpt lat="45.18334" lon="3.75051">
        <ele>897.05</ele>
        <time>2018-09-16T09:36:54Z</time>
      </trkpt>
      <trkpt lat="45.18356" lon="3.75055">
        <ele>896.09</ele>
        <time>2018-09-16T09:36:37Z</time>
      </trkpt>
      <trkpt lat="45.18361" lon="3.75055">
        <ele>896.09</ele>
        <time>2018-09-16T09:36:33Z</time>
      </trkpt>
      <trkpt lat="45.18376" lon="3.75049">
        <ele>896.09</ele>
        <time>2018-09-16T09:36:18Z</time>
      </trkpt>
      <trkpt lat="45.18379" lon="3.75049">
        <ele>897.53</ele>
        <time>2018-09-16T09:36:12Z</time>
      </trkpt>
      <trkpt lat="45.18394" lon="3.75043">
        <ele>900.41</ele>
        <time>2018-09-16T09:35:59Z</time>
      </trkpt>
      <trkpt lat="45.18414" lon="3.75028">
        <ele>899.93</ele>
        <time>2018-09-16T09:35:42Z</time>
      </trkpt>
      <trkpt lat="45.18431" lon="3.75016">
        <ele>898.97</ele>
        <time>2018-09-16T09:35:27Z</time>
      </trkpt>
      <trkpt lat="45.18455" lon="3.75013">
        <ele>900.89</ele>
        <time>2018-09-16T09:35:09Z</time>
      </trkpt>
      <trkpt lat="45.18479" lon="3.75015">
        <ele>902.82</ele>
        <time>2018-09-16T09:34:53Z</time>
      </trkpt>
      <trkpt lat="45.18502" lon="3.75012">
        <ele>900.89</ele>
        <time>2018-09-16T09:34:37Z</time>
      </trkpt>
      <trkpt lat="45.1852" lon="3.75004">
        <ele>898.49</ele>
        <time>2018-09-16T09:34:23Z</time>
      </trkpt>
      <trkpt lat="45.18534" lon="3.74993">
        <ele>896.57</ele>
        <time>2018-09-16T09:34:09Z</time>
      </trkpt>
      <trkpt lat="45.18552" lon="3.74983">
        <ele>895.12</ele>
        <time>2018-09-16T09:33:55Z</time>
      </trkpt>
      <trkpt lat="45.18568" lon="3.74974">
        <ele>891.76</ele>
        <time>2018-09-16T09:33:41Z</time>
      </trkpt>
      <trkpt lat="45.1859" lon="3.74971">
        <ele>889.84</ele>
        <time>2018-09-16T09:33:26Z</time>
      </trkpt>
      <trkpt lat="45.18601" lon="3.74969">
        <ele>888.88</ele>
        <time>2018-09-16T09:33:16Z</time>
      </trkpt>
      <trkpt lat="45.18617" lon="3.74967">
        <ele>889.36</ele>
        <time>2018-09-16T09:32:59Z</time>
      </trkpt>
      <trkpt lat="45.18622" lon="3.74968">
        <ele>889.84</ele>
        <time>2018-09-16T09:32:54Z</time>
      </trkpt>
      <trkpt lat="45.18629" lon="3.74974">
        <ele>889.84</ele>
        <time>2018-09-16T09:32:47Z</time>
      </trkpt>
      <trkpt lat="45.18643" lon="3.75002">
        <ele>889.84</ele>
        <time>2018-09-16T09:32:29Z</time>
      </trkpt>
      <trkpt lat="45.18652" lon="3.75033">
        <ele>888.88</ele>
        <time>2018-09-16T09:32:10Z</time>
      </trkpt>
      <trkpt lat="45.18655" lon="3.75043">
        <ele>889.36</ele>
        <time>2018-09-16T09:32:04Z</time>
      </trkpt>
      <trkpt lat="45.18655" lon="3.75046">
        <ele>889.36</ele>
        <time>2018-09-16T09:32:02Z</time>
      </trkpt>
      <trkpt lat="45.18665" lon="3.75076">
        <ele>889.36</ele>
        <time>2018-09-16T09:31:43Z</time>
      </trkpt>
      <trkpt lat="45.18675" lon="3.75104">
        <ele>888.4</ele>
        <time>2018-09-16T09:31:26Z</time>
      </trkpt>
      <trkpt lat="45.18684" lon="3.75129">
        <ele>888.4</ele>
        <time>2018-09-16T09:31:09Z</time>
      </trkpt>
      <trkpt lat="45.18692" lon="3.75148">
        <ele>888.88</ele>
        <time>2018-09-16T09:30:56Z</time>
      </trkpt>
      <trkpt lat="45.18701" lon="3.75173">
        <ele>890.8</ele>
        <time>2018-09-16T09:30:42Z</time>
      </trkpt>
      <trkpt lat="45.1872" lon="3.752">
        <ele>891.76</ele>
        <time>2018-09-16T09:30:24Z</time>
      </trkpt>
      <trkpt lat="45.18733" lon="3.75205">
        <ele>890.32</ele>
        <time>2018-09-16T09:30:13Z</time>
      </trkpt>
      <trkpt lat="45.18759" lon="3.75201">
        <ele>892.24</ele>
        <time>2018-09-16T09:29:54Z</time>
      </trkpt>
      <trkpt lat="45.18784" lon="3.75197">
        <ele>897.05</ele>
        <time>2018-09-16T09:29:36Z</time>
      </trkpt>
      <trkpt lat="45.18803" lon="3.75195">
        <ele>897.53</ele>
        <time>2018-09-16T09:29:22Z</time>
      </trkpt>
      <trkpt lat="45.18821" lon="3.75195">
        <ele>899.45</ele>
        <time>2018-09-16T09:29:08Z</time>
      </trkpt>
      <trkpt lat="45.1884" lon="3.75194">
        <ele>900.41</ele>
        <time>2018-09-16T09:28:53Z</time>
      </trkpt>
      <trkpt lat="45.18846" lon="3.75198">
        <ele>904.26</ele>
        <time>2018-09-16T09:28:39Z</time>
      </trkpt>
      <trkpt lat="45.18852" lon="3.75202">
        <ele>907.14</ele>
        <time>2018-09-16T09:28:26Z</time>
      </trkpt>
      <trkpt lat="45.18868" lon="3.75212">
        <ele>911.95</ele>
        <time>2018-09-16T09:28:10Z</time>
      </trkpt>
      <trkpt lat="45.18879" lon="3.7522">
        <ele>912.43</ele>
        <time>2018-09-16T09:27:58Z</time>
      </trkpt>
      <trkpt lat="45.18892" lon="3.75228">
        <ele>916.75</ele>
        <time>2018-09-16T09:27:44Z</time>
      </trkpt>
      <trkpt lat="45.18902" lon="3.75236">
        <ele>916.27</ele>
        <time>2018-09-16T09:27:32Z</time>
      </trkpt>
      <trkpt lat="45.18915" lon="3.75247">
        <ele>915.79</ele>
        <time>2018-09-16T09:27:18Z</time>
      </trkpt>
      <trkpt lat="45.18928" lon="3.75252">
        <ele>915.79</ele>
        <time>2018-09-16T09:27:04Z</time>
      </trkpt>
      <trkpt lat="45.1894" lon="3.75252">
        <ele>916.75</ele>
        <time>2018-09-16T09:26:53Z</time>
      </trkpt>
      <trkpt lat="45.18954" lon="3.75245">
        <ele>920.6</ele>
        <time>2018-09-16T09:26:39Z</time>
      </trkpt>
      <trkpt lat="45.18956" lon="3.75244">
        <ele>921.08</ele>
        <time>2018-09-16T09:26:36Z</time>
      </trkpt>
      <trkpt lat="45.18958" lon="3.75242">
        <ele>921.56</ele>
        <time>2018-09-16T09:26:33Z</time>
      </trkpt>
      <trkpt lat="45.18971" lon="3.7523">
        <ele>922.52</ele>
        <time>2018-09-16T09:26:18Z</time>
      </trkpt>
      <trkpt lat="45.18984" lon="3.75214">
        <ele>921.08</ele>
        <time>2018-09-16T09:26:01Z</time>
      </trkpt>
      <trkpt lat="45.18986" lon="3.75213">
        <ele>922.04</ele>
        <time>2018-09-16T09:25:54Z</time>
      </trkpt>
      <trkpt lat="45.18989" lon="3.75208">
        <ele>927.81</ele>
        <time>2018-09-16T09:25:41Z</time>
      </trkpt>
      <trkpt lat="45.18988" lon="3.75224">
        <ele>932.14</ele>
        <time>2018-09-16T09:25:29Z</time>
      </trkpt>
      <trkpt lat="45.18982" lon="3.75232">
        <ele>932.62</ele>
        <time>2018-09-16T09:25:15Z</time>
      </trkpt>
      <trkpt lat="45.18978" lon="3.75255">
        <ele>934.54</ele>
        <time>2018-09-16T09:25:00Z</time>
      </trkpt>
      <trkpt lat="45.1898" lon="3.75259">
        <ele>935.02</ele>
        <time>2018-09-16T09:24:57Z</time>
      </trkpt>
      <trkpt lat="45.18997" lon="3.75278">
        <ele>938.38</ele>
        <time>2018-09-16T09:24:44Z</time>
      </trkpt>
      <trkpt lat="45.18998" lon="3.75278">
        <ele>938.38</ele>
        <time>2018-09-16T09:24:43Z</time>
      </trkpt>
      <trkpt lat="45.19014" lon="3.75279">
        <ele>941.27</ele>
        <time>2018-09-16T09:24:29Z</time>
      </trkpt>
      <trkpt lat="45.19028" lon="3.75278">
        <ele>944.63</ele>
        <time>2018-09-16T09:24:16Z</time>
      </trkpt>
      <trkpt lat="45.19049" lon="3.75289">
        <ele>947.04</ele>
        <time>2018-09-16T09:24:05Z</time>
      </trkpt>
      <trkpt lat="45.19062" lon="3.75294">
        <ele>951.84</ele>
        <time>2018-09-16T09:23:53Z</time>
      </trkpt>
      <trkpt lat="45.19082" lon="3.75304">
        <ele>953.28</ele>
        <time>2018-09-16T09:23:39Z</time>
      </trkpt>
      <trkpt lat="45.1909" lon="3.75305">
        <ele>952.32</ele>
        <time>2018-09-16T09:23:28Z</time>
      </trkpt>
      <trkpt lat="45.1911" lon="3.75311">
        <ele>951.84</ele>
        <time>2018-09-16T09:23:14Z</time>
      </trkpt>
      <trkpt lat="45.19122" lon="3.75314">
        <ele>951.84</ele>
        <time>2018-09-16T09:23:05Z</time>
      </trkpt>
      <trkpt lat="45.19145" lon="3.7532">
        <ele>946.56</ele>
        <time>2018-09-16T09:22:52Z</time>
      </trkpt>
      <trkpt lat="45.19163" lon="3.75332">
        <ele>956.17</ele>
        <time>2018-09-16T09:22:39Z</time>
      </trkpt>
      <trkpt lat="45.19171" lon="3.75337">
        <ele>957.61</ele>
        <time>2018-09-16T09:22:32Z</time>
      </trkpt>
      <trkpt lat="45.19171" lon="3.75337">
        <ele>958.09</ele>
        <time>2018-09-16T09:22:28Z</time>
      </trkpt>
      <trkpt lat="45.19172" lon="3.75341">
        <ele>960.49</ele>
        <time>2018-09-16T09:22:10Z</time>
      </trkpt>
      <trkpt lat="45.19175" lon="3.75344">
        <ele>962.42</ele>
        <time>2018-09-16T09:22:07Z</time>
      </trkpt>
      <trkpt lat="45.19181" lon="3.75348">
        <ele>964.82</ele>
        <time>2018-09-16T09:22:02Z</time>
      </trkpt>
      <trkpt lat="45.19194" lon="3.75357">
        <ele>967.22</ele>
        <time>2018-09-16T09:21:51Z</time>
      </trkpt>
      <trkpt lat="45.19202" lon="3.75362">
        <ele>971.07</ele>
        <time>2018-09-16T09:21:44Z</time>
      </trkpt>
      <trkpt lat="45.19213" lon="3.75371">
        <ele>979.72</ele>
        <time>2018-09-16T09:21:33Z</time>
      </trkpt>
      <trkpt lat="45.19222" lon="3.75378">
        <ele>984.05</ele>
        <time>2018-09-16T09:21:20Z</time>
      </trkpt>
      <trkpt lat="45.1923" lon="3.75396">
        <ele>985.97</ele>
        <time>2018-09-16T09:21:10Z</time>
      </trkpt>
      <trkpt lat="45.19242" lon="3.75421">
        <ele>989.81</ele>
        <time>2018-09-16T09:20:57Z</time>
      </trkpt>
      <trkpt lat="45.19255" lon="3.7544">
        <ele>993.18</ele>
        <time>2018-09-16T09:20:45Z</time>
      </trkpt>
      <trkpt lat="45.19276" lon="3.75462">
        <ele>998.47</ele>
        <time>2018-09-16T09:20:33Z</time>
      </trkpt>
      <trkpt lat="45.19304" lon="3.7548">
        <ele>1001.83</ele>
        <time>2018-09-16T09:20:24Z</time>
      </trkpt>
      <trkpt lat="45.1931" lon="3.75491">
        <ele>1001.83</ele>
        <time>2018-09-16T09:20:12Z</time>
      </trkpt>
      <trkpt lat="45.19333" lon="3.755">
        <ele>999.43</ele>
        <time>2018-09-16T09:19:58Z</time>
      </trkpt>
      <trkpt lat="45.19343" lon="3.75504">
        <ele>998.47</ele>
        <time>2018-09-16T09:19:44Z</time>
      </trkpt>
      <trkpt lat="45.19347" lon="3.75506">
        <ele>999.43</ele>
        <time>2018-09-16T09:19:22Z</time>
      </trkpt>
      <trkpt lat="45.19356" lon="3.75508">
        <ele>1000.87</ele>
        <time>2018-09-16T09:19:09Z</time>
      </trkpt>
      <trkpt lat="45.1937" lon="3.75514">
        <ele>1000.87</ele>
        <time>2018-09-16T09:18:58Z</time>
      </trkpt>
      <trkpt lat="45.19381" lon="3.75518">
        <ele>1001.35</ele>
        <time>2018-09-16T09:18:44Z</time>
      </trkpt>
      <trkpt lat="45.19385" lon="3.75521">
        <ele>1002.79</ele>
        <time>2018-09-16T09:18:30Z</time>
      </trkpt>
      <trkpt lat="45.19394" lon="3.75524">
        <ele>1004.72</ele>
        <time>2018-09-16T09:18:15Z</time>
      </trkpt>
      <trkpt lat="45.19405" lon="3.7553">
        <ele>1002.79</ele>
        <time>2018-09-16T09:18:02Z</time>
      </trkpt>
      <trkpt lat="45.19413" lon="3.75536">
        <ele>1003.27</ele>
        <time>2018-09-16T09:17:46Z</time>
      </trkpt>
      <trkpt lat="45.19424" lon="3.75544">
        <ele>1004.72</ele>
        <time>2018-09-16T09:17:34Z</time>
      </trkpt>
      <trkpt lat="45.19441" lon="3.75556">
        <ele>1010.48</ele>
        <time>2018-09-16T09:17:20Z</time>
      </trkpt>
      <trkpt lat="45.19461" lon="3.75569">
        <ele>1012.89</ele>
        <time>2018-09-16T09:17:06Z</time>
      </trkpt>
      <trkpt lat="45.1947" lon="3.75578">
        <ele>1010</ele>
        <time>2018-09-16T09:16:56Z</time>
      </trkpt>
      <trkpt lat="45.19484" lon="3.75591">
        <ele>1008.56</ele>
        <time>2018-09-16T09:16:41Z</time>
      </trkpt>
      <trkpt lat="45.19502" lon="3.75607">
        <ele>1009.52</ele>
        <time>2018-09-16T09:16:27Z</time>
      </trkpt>
      <trkpt lat="45.19512" lon="3.75616">
        <ele>1008.08</ele>
        <time>2018-09-16T09:16:15Z</time>
      </trkpt>
      <trkpt lat="45.19533" lon="3.75629">
        <ele>1010</ele>
        <time>2018-09-16T09:16:00Z</time>
      </trkpt>
      <trkpt lat="45.19543" lon="3.75636">
        <ele>1012.89</ele>
        <time>2018-09-16T09:15:55Z</time>
      </trkpt>
      <trkpt lat="45.1955" lon="3.75644">
        <ele>1015.29</ele>
        <time>2018-09-16T09:15:51Z</time>
      </trkpt>
      <trkpt lat="45.19564" lon="3.75658">
        <ele>1022.98</ele>
        <time>2018-09-16T09:15:37Z</time>
      </trkpt>
      <trkpt lat="45.19579" lon="3.75671">
        <ele>1024.42</ele>
        <time>2018-09-16T09:15:24Z</time>
      </trkpt>
      <trkpt lat="45.19594" lon="3.7568">
        <ele>1023.94</ele>
        <time>2018-09-16T09:15:16Z</time>
      </trkpt>
      <trkpt lat="45.196" lon="3.75684">
        <ele>1024.42</ele>
        <time>2018-09-16T09:15:12Z</time>
      </trkpt>
      <trkpt lat="45.19619" lon="3.75689">
        <ele>1025.86</ele>
        <time>2018-09-16T09:14:59Z</time>
      </trkpt>
      <trkpt lat="45.19639" lon="3.75692">
        <ele>1027.31</ele>
        <time>2018-09-16T09:14:46Z</time>
      </trkpt>
      <trkpt lat="45.19653" lon="3.75695">
        <ele>1030.67</ele>
        <time>2018-09-16T09:14:33Z</time>
      </trkpt>
      <trkpt lat="45.19677" lon="3.75708">
        <ele>1035.96</ele>
        <time>2018-09-16T09:14:18Z</time>
      </trkpt>
      <trkpt lat="45.19698" lon="3.75716">
        <ele>1036.92</ele>
        <time>2018-09-16T09:14:05Z</time>
      </trkpt>
      <trkpt lat="45.19711" lon="3.75724">
        <ele>1036.44</ele>
        <time>2018-09-16T09:13:51Z</time>
      </trkpt>
      <trkpt lat="45.19739" lon="3.75737">
        <ele>1034.04</ele>
        <time>2018-09-16T09:13:36Z</time>
      </trkpt>
      <trkpt lat="45.19743" lon="3.7574">
        <ele>1033.07</ele>
        <time>2018-09-16T09:13:27Z</time>
      </trkpt>
      <trkpt lat="45.19747" lon="3.75744">
        <ele>1033.55</ele>
        <time>2018-09-16T09:13:16Z</time>
      </trkpt>
      <trkpt lat="45.19752" lon="3.7575">
        <ele>1033.07</ele>
        <time>2018-09-16T09:13:04Z</time>
      </trkpt>
      <trkpt lat="45.19772" lon="3.75773">
        <ele>1041.73</ele>
        <time>2018-09-16T09:12:50Z</time>
      </trkpt>
      <trkpt lat="45.19791" lon="3.75791">
        <ele>1042.21</ele>
        <time>2018-09-16T09:12:36Z</time>
      </trkpt>
      <trkpt lat="45.19809" lon="3.75805">
        <ele>1041.25</ele>
        <time>2018-09-16T09:12:24Z</time>
      </trkpt>
      <trkpt lat="45.19825" lon="3.7582">
        <ele>1037.88</ele>
        <time>2018-09-16T09:12:09Z</time>
      </trkpt>
      <trkpt lat="45.19831" lon="3.75832">
        <ele>1034.52</ele>
        <time>2018-09-16T09:11:55Z</time>
      </trkpt>
      <trkpt lat="45.19842" lon="3.75844">
        <ele>1033.07</ele>
        <time>2018-09-16T09:11:42Z</time>
      </trkpt>
      <trkpt lat="45.19869" lon="3.75867">
        <ele>1035</ele>
        <time>2018-09-16T09:11:25Z</time>
      </trkpt>
      <trkpt lat="45.19882" lon="3.75878">
        <ele>1035</ele>
        <time>2018-09-16T09:11:12Z</time>
      </trkpt>
      <trkpt lat="45.19902" lon="3.75891">
        <ele>1033.55</ele>
        <time>2018-09-16T09:11:01Z</time>
      </trkpt>
      <trkpt lat="45.19909" lon="3.75894">
        <ele>1032.59</ele>
        <time>2018-09-16T09:10:54Z</time>
      </trkpt>
      <trkpt lat="45.19916" lon="3.75906">
        <ele>1029.23</ele>
        <time>2018-09-16T09:10:40Z</time>
      </trkpt>
      <trkpt lat="45.19924" lon="3.7591">
        <ele>1028.27</ele>
        <time>2018-09-16T09:10:28Z</time>
      </trkpt>
      <trkpt lat="45.19935" lon="3.75915">
        <ele>1026.83</ele>
        <time>2018-09-16T09:10:16Z</time>
      </trkpt>
      <trkpt lat="45.19935" lon="3.75915">
        <ele>1026.83</ele>
        <time>2018-09-16T09:10:15Z</time>
      </trkpt>
      <trkpt lat="45.19943" lon="3.75922">
        <ele>1022.98</ele>
        <time>2018-09-16T09:10:02Z</time>
      </trkpt>
      <trkpt lat="45.19951" lon="3.75922">
        <ele>1021.06</ele>
        <time>2018-09-16T09:09:47Z</time>
      </trkpt>
      <trkpt lat="45.19967" lon="3.75924">
        <ele>1017.21</ele>
        <time>2018-09-16T09:09:32Z</time>
      </trkpt>
      <trkpt lat="45.19979" lon="3.75929">
        <ele>1015.29</ele>
        <time>2018-09-16T09:09:18Z</time>
      </trkpt>
      <trkpt lat="45.19998" lon="3.75938">
        <ele>1013.37</ele>
        <time>2018-09-16T09:09:05Z</time>
      </trkpt>
      <trkpt lat="45.20011" lon="3.7594">
        <ele>1013.85</ele>
        <time>2018-09-16T09:08:58Z</time>
      </trkpt>
      <trkpt lat="45.20029" lon="3.75951">
        <ele>1015.77</ele>
        <time>2018-09-16T09:08:44Z</time>
      </trkpt>
      <trkpt lat="45.20044" lon="3.7596">
        <ele>1018.17</ele>
        <time>2018-09-16T09:08:30Z</time>
      </trkpt>
      <trkpt lat="45.20059" lon="3.75971">
        <ele>1017.69</ele>
        <time>2018-09-16T09:08:20Z</time>
      </trkpt>
      <trkpt lat="45.20087" lon="3.75992">
        <ele>1019.13</ele>
        <time>2018-09-16T09:08:04Z</time>
      </trkpt>
      <trkpt lat="45.20107" lon="3.76009">
        <ele>1021.06</ele>
        <time>2018-09-16T09:07:49Z</time>
      </trkpt>
      <trkpt lat="45.20115" lon="3.76014">
        <ele>1022.98</ele>
        <time>2018-09-16T09:07:33Z</time>
      </trkpt>
      <trkpt lat="45.20128" lon="3.76027">
        <ele>1024.9</ele>
        <time>2018-09-16T09:07:19Z</time>
      </trkpt>
      <trkpt lat="45.20143" lon="3.76035">
        <ele>1024.9</ele>
        <time>2018-09-16T09:07:05Z</time>
      </trkpt>
      <trkpt lat="45.20159" lon="3.76052">
        <ele>1025.38</ele>
        <time>2018-09-16T09:06:51Z</time>
      </trkpt>
      <trkpt lat="45.20174" lon="3.76064">
        <ele>1026.34</ele>
        <time>2018-09-16T09:06:35Z</time>
      </trkpt>
      <trkpt lat="45.20185" lon="3.7607">
        <ele>1027.31</ele>
        <time>2018-09-16T09:06:19Z</time>
      </trkpt>
      <trkpt lat="45.20197" lon="3.76088">
        <ele>1027.79</ele>
        <time>2018-09-16T09:06:07Z</time>
      </trkpt>
      <trkpt lat="45.20206" lon="3.761">
        <ele>1026.34</ele>
        <time>2018-09-16T09:05:47Z</time>
      </trkpt>
      <trkpt lat="45.20214" lon="3.76106">
        <ele>1026.83</ele>
        <time>2018-09-16T09:05:34Z</time>
      </trkpt>
      <trkpt lat="45.20226" lon="3.7612">
        <ele>1027.79</ele>
        <time>2018-09-16T09:05:20Z</time>
      </trkpt>
      <trkpt lat="45.20238" lon="3.76128">
        <ele>1029.71</ele>
        <time>2018-09-16T09:05:08Z</time>
      </trkpt>
      <trkpt lat="45.20257" lon="3.76142">
        <ele>1030.67</ele>
        <time>2018-09-16T09:04:53Z</time>
      </trkpt>
      <trkpt lat="45.20266" lon="3.76149">
        <ele>1031.15</ele>
        <time>2018-09-16T09:04:40Z</time>
      </trkpt>
      <trkpt lat="45.20278" lon="3.7616">
        <ele>1032.11</ele>
        <time>2018-09-16T09:04:27Z</time>
      </trkpt>
      <trkpt lat="45.2029" lon="3.76167">
        <ele>1033.55</ele>
        <time>2018-09-16T09:04:13Z</time>
      </trkpt>
      <trkpt lat="45.20299" lon="3.76173">
        <ele>1033.07</ele>
        <time>2018-09-16T09:03:54Z</time>
      </trkpt>
      <trkpt lat="45.20311" lon="3.76179">
        <ele>1031.15</ele>
        <time>2018-09-16T09:03:40Z</time>
      </trkpt>
      <trkpt lat="45.20329" lon="3.76182">
        <ele>1029.23</ele>
        <time>2018-09-16T09:03:23Z</time>
      </trkpt>
      <trkpt lat="45.20345" lon="3.76188">
        <ele>1028.27</ele>
        <time>2018-09-16T09:03:08Z</time>
      </trkpt>
      <trkpt lat="45.20358" lon="3.76192">
        <ele>1029.71</ele>
        <time>2018-09-16T09:02:54Z</time>
      </trkpt>
      <trkpt lat="45.20365" lon="3.76194">
        <ele>1031.63</ele>
        <time>2018-09-16T09:02:38Z</time>
      </trkpt>
      <trkpt lat="45.20379" lon="3.76194">
        <ele>1032.11</ele>
        <time>2018-09-16T09:02:25Z</time>
      </trkpt>
      <trkpt lat="45.20397" lon="3.76195">
        <ele>1031.63</ele>
        <time>2018-09-16T09:02:11Z</time>
      </trkpt>
      <trkpt lat="45.20412" lon="3.76194">
        <ele>1029.23</ele>
        <time>2018-09-16T09:01:57Z</time>
      </trkpt>
      <trkpt lat="45.20431" lon="3.76195">
        <ele>1029.71</ele>
        <time>2018-09-16T09:01:41Z</time>
      </trkpt>
      <trkpt lat="45.20444" lon="3.76194">
        <ele>1030.19</ele>
        <time>2018-09-16T09:01:29Z</time>
      </trkpt>
      <trkpt lat="45.20465" lon="3.76192">
        <ele>1030.67</ele>
        <time>2018-09-16T09:01:12Z</time>
      </trkpt>
      <trkpt lat="45.20485" lon="3.76198">
        <ele>1030.67</ele>
        <time>2018-09-16T09:00:59Z</time>
      </trkpt>
      <trkpt lat="45.20502" lon="3.762">
        <ele>1031.63</ele>
        <time>2018-09-16T09:00:44Z</time>
      </trkpt>
      <trkpt lat="45.20503" lon="3.762">
        <ele>1031.63</ele>
        <time>2018-09-16T09:00:43Z</time>
      </trkpt>
      <trkpt lat="45.20516" lon="3.76204">
        <ele>1031.15</ele>
        <time>2018-09-16T09:00:30Z</time>
      </trkpt>
      <trkpt lat="45.20539" lon="3.76207">
        <ele>1029.71</ele>
        <time>2018-09-16T09:00:15Z</time>
      </trkpt>
      <trkpt lat="45.2056" lon="3.76205">
        <ele>1028.27</ele>
        <time>2018-09-16T08:59:58Z</time>
      </trkpt>
      <trkpt lat="45.20568" lon="3.76203">
        <ele>1026.83</ele>
        <time>2018-09-16T08:59:51Z</time>
      </trkpt>
      <trkpt lat="45.20577" lon="3.76196">
        <ele>1025.38</ele>
        <time>2018-09-16T08:59:43Z</time>
      </trkpt>
      <trkpt lat="45.20594" lon="3.76177">
        <ele>1025.86</ele>
        <time>2018-09-16T08:59:27Z</time>
      </trkpt>
      <trkpt lat="45.20622" lon="3.76165">
        <ele>1026.83</ele>
        <time>2018-09-16T08:59:12Z</time>
      </trkpt>
      <trkpt lat="45.20633" lon="3.76163">
        <ele>1029.23</ele>
        <time>2018-09-16T08:59:00Z</time>
      </trkpt>
      <trkpt lat="45.20652" lon="3.7616">
        <ele>1031.15</ele>
        <time>2018-09-16T08:58:46Z</time>
      </trkpt>
      <trkpt lat="45.20661" lon="3.76157">
        <ele>1031.63</ele>
        <time>2018-09-16T08:58:40Z</time>
      </trkpt>
      <trkpt lat="45.20678" lon="3.76151">
        <ele>1032.59</ele>
        <time>2018-09-16T08:58:27Z</time>
      </trkpt>
      <trkpt lat="45.20697" lon="3.76143">
        <ele>1034.04</ele>
        <time>2018-09-16T08:58:12Z</time>
      </trkpt>
      <trkpt lat="45.20717" lon="3.76135">
        <ele>1030.67</ele>
        <time>2018-09-16T08:57:56Z</time>
      </trkpt>
      <trkpt lat="45.20752" lon="3.76142">
        <ele>1032.11</ele>
        <time>2018-09-16T08:57:37Z</time>
      </trkpt>
      <trkpt lat="45.20762" lon="3.76147">
        <ele>1032.11</ele>
        <time>2018-09-16T08:57:28Z</time>
      </trkpt>
      <trkpt lat="45.20776" lon="3.76158">
        <ele>1032.11</ele>
        <time>2018-09-16T08:57:13Z</time>
      </trkpt>
      <trkpt lat="45.2079" lon="3.7617">
        <ele>1032.11</ele>
        <time>2018-09-16T08:56:57Z</time>
      </trkpt>
      <trkpt lat="45.20806" lon="3.76181">
        <ele>1032.59</ele>
        <time>2018-09-16T08:56:43Z</time>
      </trkpt>
      <trkpt lat="45.20807" lon="3.76181">
        <ele>1032.59</ele>
        <time>2018-09-16T08:56:42Z</time>
      </trkpt>
      <trkpt lat="45.20816" lon="3.76186">
        <ele>1032.11</ele>
        <time>2018-09-16T08:56:27Z</time>
      </trkpt>
      <trkpt lat="45.20827" lon="3.76184">
        <ele>1029.71</ele>
        <time>2018-09-16T08:56:14Z</time>
      </trkpt>
      <trkpt lat="45.20848" lon="3.76171">
        <ele>1024.9</ele>
        <time>2018-09-16T08:55:59Z</time>
      </trkpt>
      <trkpt lat="45.20863" lon="3.76164">
        <ele>1022.5</ele>
        <time>2018-09-16T08:55:45Z</time>
      </trkpt>
      <trkpt lat="45.20883" lon="3.76145">
        <ele>1026.83</ele>
        <time>2018-09-16T08:55:28Z</time>
      </trkpt>
      <trkpt lat="45.20898" lon="3.7613">
        <ele>1028.75</ele>
        <time>2018-09-16T08:55:13Z</time>
      </trkpt>
      <trkpt lat="45.20924" lon="3.76114">
        <ele>1028.27</ele>
        <time>2018-09-16T08:54:56Z</time>
      </trkpt>
      <trkpt lat="45.20931" lon="3.76109">
        <ele>1027.79</ele>
        <time>2018-09-16T08:54:51Z</time>
      </trkpt>
      <trkpt lat="45.20946" lon="3.76105">
        <ele>1026.83</ele>
        <time>2018-09-16T08:54:38Z</time>
      </trkpt>
      <trkpt lat="45.20964" lon="3.76096">
        <ele>1025.38</ele>
        <time>2018-09-16T08:54:23Z</time>
      </trkpt>
      <trkpt lat="45.20983" lon="3.76097">
        <ele>1021.06</ele>
        <time>2018-09-16T08:54:08Z</time>
      </trkpt>
      <trkpt lat="45.21003" lon="3.76101">
        <ele>1019.62</ele>
        <time>2018-09-16T08:53:51Z</time>
      </trkpt>
      <trkpt lat="45.21025" lon="3.76106">
        <ele>1018.17</ele>
        <time>2018-09-16T08:53:32Z</time>
      </trkpt>
      <trkpt lat="45.21049" lon="3.76108">
        <ele>1016.73</ele>
        <time>2018-09-16T08:53:14Z</time>
      </trkpt>
      <trkpt lat="45.21073" lon="3.76114">
        <ele>1015.29</ele>
        <time>2018-09-16T08:52:55Z</time>
      </trkpt>
      <trkpt lat="45.21101" lon="3.76125">
        <ele>1015.77</ele>
        <time>2018-09-16T08:52:33Z</time>
      </trkpt>
      <trkpt lat="45.21124" lon="3.76136">
        <ele>1016.25</ele>
        <time>2018-09-16T08:52:15Z</time>
      </trkpt>
      <trkpt lat="45.21148" lon="3.76145">
        <ele>1016.73</ele>
        <time>2018-09-16T08:51:58Z</time>
      </trkpt>
      <trkpt lat="45.21155" lon="3.7615">
        <ele>1015.29</ele>
        <time>2018-09-16T08:51:52Z</time>
      </trkpt>
      <trkpt lat="45.21163" lon="3.76153">
        <ele>1014.81</ele>
        <time>2018-09-16T08:51:46Z</time>
      </trkpt>
      <trkpt lat="45.21184" lon="3.76165">
        <ele>1015.77</ele>
        <time>2018-09-16T08:51:29Z</time>
      </trkpt>
      <trkpt lat="45.21205" lon="3.76176">
        <ele>1015.77</ele>
        <time>2018-09-16T08:51:13Z</time>
      </trkpt>
      <trkpt lat="45.21226" lon="3.76186">
        <ele>1017.21</ele>
        <time>2018-09-16T08:50:55Z</time>
      </trkpt>
      <trkpt lat="45.21251" lon="3.76184">
        <ele>1019.13</ele>
        <time>2018-09-16T08:50:36Z</time>
      </trkpt>
      <trkpt lat="45.21273" lon="3.76175">
        <ele>1020.1</ele>
        <time>2018-09-16T08:50:19Z</time>
      </trkpt>
      <trkpt lat="45.21294" lon="3.76166">
        <ele>1020.1</ele>
        <time>2018-09-16T08:50:04Z</time>
      </trkpt>
      <trkpt lat="45.21316" lon="3.76159">
        <ele>1020.58</ele>
        <time>2018-09-16T08:49:48Z</time>
      </trkpt>
      <trkpt lat="45.21339" lon="3.76155">
        <ele>1021.06</ele>
        <time>2018-09-16T08:49:31Z</time>
      </trkpt>
      <trkpt lat="45.2136" lon="3.76152">
        <ele>1021.54</ele>
        <time>2018-09-16T08:49:13Z</time>
      </trkpt>
      <trkpt lat="45.21379" lon="3.76149">
        <ele>1022.5</ele>
        <time>2018-09-16T08:48:59Z</time>
      </trkpt>
      <trkpt lat="45.21398" lon="3.76152">
        <ele>1023.94</ele>
        <time>2018-09-16T08:48:43Z</time>
      </trkpt>
      <trkpt lat="45.2142" lon="3.76157">
        <ele>1023.46</ele>
        <time>2018-09-16T08:48:27Z</time>
      </trkpt>
      <trkpt lat="45.21439" lon="3.7617">
        <ele>1022.98</ele>
        <time>2018-09-16T08:48:12Z</time>
      </trkpt>
      <trkpt lat="45.21456" lon="3.76202">
        <ele>1022.5</ele>
        <time>2018-09-16T08:47:52Z</time>
      </trkpt>
      <trkpt lat="45.21467" lon="3.76235">
        <ele>1022.98</ele>
        <time>2018-09-16T08:47:34Z</time>
      </trkpt>
      <trkpt lat="45.21476" lon="3.76276">
        <ele>1022.5</ele>
        <time>2018-09-16T08:47:15Z</time>
      </trkpt>
      <trkpt lat="45.21478" lon="3.7629">
        <ele>1023.46</ele>
        <time>2018-09-16T08:47:08Z</time>
      </trkpt>
      <trkpt lat="45.21481" lon="3.76313">
        <ele>1025.86</ele>
        <time>2018-09-16T08:46:57Z</time>
      </trkpt>
      <trkpt lat="45.21489" lon="3.76345">
        <ele>1026.34</ele>
        <time>2018-09-16T08:46:40Z</time>
      </trkpt>
      <trkpt lat="45.21501" lon="3.76372">
        <ele>1028.27</ele>
        <time>2018-09-16T08:46:25Z</time>
      </trkpt>
      <trkpt lat="45.2151" lon="3.76392">
        <ele>1030.67</ele>
        <time>2018-09-16T08:46:12Z</time>
      </trkpt>
      <trkpt lat="45.21512" lon="3.76418">
        <ele>1034.52</ele>
        <time>2018-09-16T08:45:56Z</time>
      </trkpt>
      <trkpt lat="45.21512" lon="3.76418">
        <ele>1034.52</ele>
        <time>2018-09-16T08:45:54Z</time>
      </trkpt>
      <trkpt lat="45.21514" lon="3.76422">
        <ele>1035</ele>
        <time>2018-09-16T08:45:39Z</time>
      </trkpt>
      <trkpt lat="45.2152" lon="3.76434">
        <ele>1035.48</ele>
        <time>2018-09-16T08:45:30Z</time>
      </trkpt>
      <trkpt lat="45.21531" lon="3.76448">
        <ele>1035.48</ele>
        <time>2018-09-16T08:45:18Z</time>
      </trkpt>
      <trkpt lat="45.2154" lon="3.76471">
        <ele>1035.48</ele>
        <time>2018-09-16T08:45:03Z</time>
      </trkpt>
      <trkpt lat="45.21548" lon="3.765">
        <ele>1034.04</ele>
        <time>2018-09-16T08:44:46Z</time>
      </trkpt>
      <trkpt lat="45.21562" lon="3.76516">
        <ele>1033.07</ele>
        <time>2018-09-16T08:44:30Z</time>
      </trkpt>
      <trkpt lat="45.21586" lon="3.76515">
        <ele>1033.07</ele>
        <time>2018-09-16T08:44:12Z</time>
      </trkpt>
      <trkpt lat="45.21611" lon="3.76517">
        <ele>1033.55</ele>
        <time>2018-09-16T08:43:54Z</time>
      </trkpt>
      <trkpt lat="45.21635" lon="3.76526">
        <ele>1033.55</ele>
        <time>2018-09-16T08:43:36Z</time>
      </trkpt>
      <trkpt lat="45.21656" lon="3.76538">
        <ele>1035.96</ele>
        <time>2018-09-16T08:43:19Z</time>
      </trkpt>
      <trkpt lat="45.21681" lon="3.76552">
        <ele>1038.84</ele>
        <time>2018-09-16T08:43:01Z</time>
      </trkpt>
      <trkpt lat="45.217" lon="3.76566">
        <ele>1040.76</ele>
        <time>2018-09-16T08:42:45Z</time>
      </trkpt>
      <trkpt lat="45.21722" lon="3.7659">
        <ele>1044.13</ele>
        <time>2018-09-16T08:42:26Z</time>
      </trkpt>
      <trkpt lat="45.21737" lon="3.76618">
        <ele>1056.15</ele>
        <time>2018-09-16T08:42:08Z</time>
      </trkpt>
      <trkpt lat="45.21743" lon="3.7663">
        <ele>1059.99</ele>
        <time>2018-09-16T08:42:01Z</time>
      </trkpt>
      <trkpt lat="45.21758" lon="3.76666">
        <ele>1066.24</ele>
        <time>2018-09-16T08:41:45Z</time>
      </trkpt>
      <trkpt lat="45.21761" lon="3.76671">
        <ele>1065.76</ele>
        <time>2018-09-16T08:41:41Z</time>
      </trkpt>
      <trkpt lat="45.2177" lon="3.76692">
        <ele>1061.91</ele>
        <time>2018-09-16T08:41:25Z</time>
      </trkpt>
      <trkpt lat="45.21775" lon="3.76719">
        <ele>1064.32</ele>
        <time>2018-09-16T08:41:09Z</time>
      </trkpt>
      <trkpt lat="45.21786" lon="3.76738">
        <ele>1063.36</ele>
        <time>2018-09-16T08:40:58Z</time>
      </trkpt>
      <trkpt lat="45.21792" lon="3.76756">
        <ele>1055.67</ele>
        <time>2018-09-16T08:40:38Z</time>
      </trkpt>
      <trkpt lat="45.21798" lon="3.76777">
        <ele>1050.86</ele>
        <time>2018-09-16T08:40:21Z</time>
      </trkpt>
      <trkpt lat="45.21811" lon="3.76797">
        <ele>1046.53</ele>
        <time>2018-09-16T08:40:04Z</time>
      </trkpt>
      <trkpt lat="45.21825" lon="3.76822">
        <ele>1036.44</ele>
        <time>2018-09-16T08:39:45Z</time>
      </trkpt>
      <trkpt lat="45.21839" lon="3.76834">
        <ele>1026.83</ele>
        <time>2018-09-16T08:39:29Z</time>
      </trkpt>
      <trkpt lat="45.21844" lon="3.76861">
        <ele>1030.19</ele>
        <time>2018-09-16T08:39:14Z</time>
      </trkpt>
      <trkpt lat="45.21845" lon="3.76874">
        <ele>1026.34</ele>
        <time>2018-09-16T08:38:56Z</time>
      </trkpt>
      <trkpt lat="45.21842" lon="3.7688">
        <ele>1026.83</ele>
        <time>2018-09-16T08:38:39Z</time>
      </trkpt>
      <trkpt lat="45.2184" lon="3.76887">
        <ele>1025.38</ele>
        <time>2018-09-16T08:38:24Z</time>
      </trkpt>
      <trkpt lat="45.21841" lon="3.76898">
        <ele>1023.46</ele>
        <time>2018-09-16T08:38:08Z</time>
      </trkpt>
      <trkpt lat="45.21842" lon="3.76911">
        <ele>1020.1</ele>
        <time>2018-09-16T08:37:54Z</time>
      </trkpt>
      <trkpt lat="45.21846" lon="3.7692">
        <ele>1020.58</ele>
        <time>2018-09-16T08:37:39Z</time>
      </trkpt>
      <trkpt lat="45.21851" lon="3.76939">
        <ele>1024.42</ele>
        <time>2018-09-16T08:37:25Z</time>
      </trkpt>
      <trkpt lat="45.21858" lon="3.76976">
        <ele>1027.31</ele>
        <time>2018-09-16T08:37:07Z</time>
      </trkpt>
      <trkpt lat="45.21859" lon="3.76985">
        <ele>1027.31</ele>
        <time>2018-09-16T08:37:03Z</time>
      </trkpt>
      <trkpt lat="45.21859" lon="3.77">
        <ele>1024.42</ele>
        <time>2018-09-16T08:36:52Z</time>
      </trkpt>
      <trkpt lat="45.21863" lon="3.77029">
        <ele>1019.13</ele>
        <time>2018-09-16T08:36:36Z</time>
      </trkpt>
      <trkpt lat="45.21866" lon="3.77054">
        <ele>1016.25</ele>
        <time>2018-09-16T08:36:20Z</time>
      </trkpt>
      <trkpt lat="45.2187" lon="3.77077">
        <ele>1014.81</ele>
        <time>2018-09-16T08:36:05Z</time>
      </trkpt>
      <trkpt lat="45.21882" lon="3.77104">
        <ele>1014.33</ele>
        <time>2018-09-16T08:35:47Z</time>
      </trkpt>
      <trkpt lat="45.21886" lon="3.77108">
        <ele>1012.89</ele>
        <time>2018-09-16T08:35:36Z</time>
      </trkpt>
      <trkpt lat="45.2189" lon="3.77113">
        <ele>1011.44</ele>
        <time>2018-09-16T08:35:27Z</time>
      </trkpt>
      <trkpt lat="45.21904" lon="3.7713">
        <ele>1009.52</ele>
        <time>2018-09-16T08:35:13Z</time>
      </trkpt>
      <trkpt lat="45.21918" lon="3.77149">
        <ele>1011.44</ele>
        <time>2018-09-16T08:34:58Z</time>
      </trkpt>
      <trkpt lat="45.21929" lon="3.77175">
        <ele>1012.89</ele>
        <time>2018-09-16T08:34:40Z</time>
      </trkpt>
      <trkpt lat="45.21932" lon="3.77189">
        <ele>1013.37</ele>
        <time>2018-09-16T08:34:31Z</time>
      </trkpt>
      <trkpt lat="45.21938" lon="3.77219">
        <ele>1014.33</ele>
        <time>2018-09-16T08:34:13Z</time>
      </trkpt>
      <trkpt lat="45.21945" lon="3.77247">
        <ele>1012.41</ele>
        <time>2018-09-16T08:33:57Z</time>
      </trkpt>
      <trkpt lat="45.21952" lon="3.77276">
        <ele>1013.85</ele>
        <time>2018-09-16T08:33:42Z</time>
      </trkpt>
      <trkpt lat="45.21966" lon="3.77297">
        <ele>1017.21</ele>
        <time>2018-09-16T08:33:25Z</time>
      </trkpt>
      <trkpt lat="45.21985" lon="3.77308">
        <ele>1018.17</ele>
        <time>2018-09-16T08:33:09Z</time>
      </trkpt>
      <trkpt lat="45.21999" lon="3.77319">
        <ele>1019.62</ele>
        <time>2018-09-16T08:32:55Z</time>
      </trkpt>
      <trkpt lat="45.22019" lon="3.77336">
        <ele>1021.06</ele>
        <time>2018-09-16T08:32:37Z</time>
      </trkpt>
      <trkpt lat="45.22038" lon="3.7736">
        <ele>1023.46</ele>
        <time>2018-09-16T08:32:18Z</time>
      </trkpt>
      <trkpt lat="45.2206" lon="3.77385">
        <ele>1024.42</ele>
        <time>2018-09-16T08:31:58Z</time>
      </trkpt>
      <trkpt lat="45.22078" lon="3.77405">
        <ele>1024.42</ele>
        <time>2018-09-16T08:31:41Z</time>
      </trkpt>
      <trkpt lat="45.22095" lon="3.77424">
        <ele>1027.79</ele>
        <time>2018-09-16T08:31:25Z</time>
      </trkpt>
      <trkpt lat="45.22115" lon="3.7745">
        <ele>1030.19</ele>
        <time>2018-09-16T08:31:06Z</time>
      </trkpt>
      <trkpt lat="45.22134" lon="3.77475">
        <ele>1033.55</ele>
        <time>2018-09-16T08:30:47Z</time>
      </trkpt>
      <trkpt lat="45.22148" lon="3.77496">
        <ele>1034.04</ele>
        <time>2018-09-16T08:30:31Z</time>
      </trkpt>
      <trkpt lat="45.22162" lon="3.77515">
        <ele>1034.04</ele>
        <time>2018-09-16T08:30:16Z</time>
      </trkpt>
      <trkpt lat="45.22175" lon="3.7753">
        <ele>1034.04</ele>
        <time>2018-09-16T08:30:03Z</time>
      </trkpt>
      <trkpt lat="45.22179" lon="3.77533">
        <ele>1033.55</ele>
        <time>2018-09-16T08:29:59Z</time>
      </trkpt>
      <trkpt lat="45.22189" lon="3.77543">
        <ele>1031.15</ele>
        <time>2018-09-16T08:29:49Z</time>
      </trkpt>
      <trkpt lat="45.22206" lon="3.77556">
        <ele>1026.34</ele>
        <time>2018-09-16T08:29:34Z</time>
      </trkpt>
      <trkpt lat="45.22224" lon="3.77569">
        <ele>1024.42</ele>
        <time>2018-09-16T08:29:20Z</time>
      </trkpt>
      <trkpt lat="45.22241" lon="3.77583">
        <ele>1022.98</ele>
        <time>2018-09-16T08:29:05Z</time>
      </trkpt>
      <trkpt lat="45.22253" lon="3.77592">
        <ele>1021.54</ele>
        <time>2018-09-16T08:28:55Z</time>
      </trkpt>
      <trkpt lat="45.22266" lon="3.77603">
        <ele>1020.1</ele>
        <time>2018-09-16T08:28:44Z</time>
      </trkpt>
      <trkpt lat="45.22282" lon="3.77622">
        <ele>1019.62</ele>
        <time>2018-09-16T08:28:28Z</time>
      </trkpt>
      <trkpt lat="45.22297" lon="3.77639">
        <ele>1018.65</ele>
        <time>2018-09-16T08:28:14Z</time>
      </trkpt>
      <trkpt lat="45.22307" lon="3.77645">
        <ele>1019.13</ele>
        <time>2018-09-16T08:28:05Z</time>
      </trkpt>
      <trkpt lat="45.22322" lon="3.77647">
        <ele>1017.21</ele>
        <time>2018-09-16T08:27:54Z</time>
      </trkpt>
      <trkpt lat="45.22324" lon="3.77647">
        <ele>1017.21</ele>
        <time>2018-09-16T08:27:52Z</time>
      </trkpt>
      <trkpt lat="45.22341" lon="3.77653">
        <ele>1014.81</ele>
        <time>2018-09-16T08:27:38Z</time>
      </trkpt>
      <trkpt lat="45.22359" lon="3.77671">
        <ele>1014.33</ele>
        <time>2018-09-16T08:27:20Z</time>
      </trkpt>
      <trkpt lat="45.22362" lon="3.77676">
        <ele>1015.29</ele>
        <time>2018-09-16T08:27:09Z</time>
      </trkpt>
      <trkpt lat="45.22372" lon="3.77684">
        <ele>1014.33</ele>
        <time>2018-09-16T08:26:52Z</time>
      </trkpt>
      <trkpt lat="45.22373" lon="3.77685">
        <ele>1014.81</ele>
        <time>2018-09-16T08:26:50Z</time>
      </trkpt>
      <trkpt lat="45.22378" lon="3.77688">
        <ele>1014.33</ele>
        <time>2018-09-16T08:26:33Z</time>
      </trkpt>
      <trkpt lat="45.2238" lon="3.77689">
        <ele>1013.85</ele>
        <time>2018-09-16T08:26:20Z</time>
      </trkpt>
      <trkpt lat="45.22379" lon="3.777">
        <ele>1013.85</ele>
        <time>2018-09-16T08:26:06Z</time>
      </trkpt>
      <trkpt lat="45.22378" lon="3.77715">
        <ele>1013.85</ele>
        <time>2018-09-16T08:25:52Z</time>
      </trkpt>
      <trkpt lat="45.22376" lon="3.7772">
        <ele>1012.41</ele>
        <time>2018-09-16T08:25:41Z</time>
      </trkpt>
      <trkpt lat="45.22376" lon="3.77723">
        <ele>1011.93</ele>
        <time>2018-09-16T08:25:39Z</time>
      </trkpt>
      <trkpt lat="45.22366" lon="3.77732">
        <ele>1010.48</ele>
        <time>2018-09-16T08:25:28Z</time>
      </trkpt>
      <trkpt lat="45.22359" lon="3.77744">
        <ele>1009.04</ele>
        <time>2018-09-16T08:25:18Z</time>
      </trkpt>
      <trkpt lat="45.22355" lon="3.77748">
        <ele>1009.04</ele>
        <time>2018-09-16T08:25:14Z</time>
      </trkpt>
      <trkpt lat="45.22346" lon="3.77745">
        <ele>1011.44</ele>
        <time>2018-09-16T08:25:06Z</time>
      </trkpt>
      <trkpt lat="45.22341" lon="3.77751">
        <ele>1010.48</ele>
        <time>2018-09-16T08:25:00Z</time>
      </trkpt>
      <trkpt lat="45.22335" lon="3.77762">
        <ele>1008.56</ele>
        <time>2018-09-16T08:24:52Z</time>
      </trkpt>
      <trkpt lat="45.22318" lon="3.77763">
        <ele>1007.6</ele>
        <time>2018-09-16T08:24:36Z</time>
      </trkpt>
      <trkpt lat="45.22316" lon="3.77763">
        <ele>1007.6</ele>
        <time>2018-09-16T08:24:34Z</time>
      </trkpt>
      <trkpt lat="45.22313" lon="3.7777">
        <ele>1007.12</ele>
        <time>2018-09-16T08:24:28Z</time>
      </trkpt>
      <trkpt lat="45.22315" lon="3.77774">
        <ele>1008.08</ele>
        <time>2018-09-16T08:24:17Z</time>
      </trkpt>
      <trkpt lat="45.22317" lon="3.77796">
        <ele>1007.6</ele>
        <time>2018-09-16T08:24:00Z</time>
      </trkpt>
      <trkpt lat="45.22317" lon="3.77799">
        <ele>1007.12</ele>
        <time>2018-09-16T08:23:58Z</time>
      </trkpt>
      <trkpt lat="45.22316" lon="3.7781">
        <ele>1006.64</ele>
        <time>2018-09-16T08:23:51Z</time>
      </trkpt>
      <trkpt lat="45.22311" lon="3.77836">
        <ele>1004.72</ele>
        <time>2018-09-16T08:23:35Z</time>
      </trkpt>
      <trkpt lat="45.22305" lon="3.77861">
        <ele>1002.79</ele>
        <time>2018-09-16T08:23:20Z</time>
      </trkpt>
      <trkpt lat="45.22303" lon="3.77889">
        <ele>1001.35</ele>
        <time>2018-09-16T08:23:04Z</time>
      </trkpt>
      <trkpt lat="45.2231" lon="3.77916">
        <ele>997.99</ele>
        <time>2018-09-16T08:22:50Z</time>
      </trkpt>
      <trkpt lat="45.22312" lon="3.77941">
        <ele>997.51</ele>
        <time>2018-09-16T08:22:37Z</time>
      </trkpt>
      <trkpt lat="45.22311" lon="3.77966">
        <ele>998.47</ele>
        <time>2018-09-16T08:22:22Z</time>
      </trkpt>
      <trkpt lat="45.22312" lon="3.77993">
        <ele>1001.83</ele>
        <time>2018-09-16T08:22:07Z</time>
      </trkpt>
      <trkpt lat="45.22313" lon="3.78023">
        <ele>1003.75</ele>
        <time>2018-09-16T08:21:53Z</time>
      </trkpt>
      <trkpt lat="45.22312" lon="3.7805">
        <ele>1001.35</ele>
        <time>2018-09-16T08:21:39Z</time>
      </trkpt>
      <trkpt lat="45.22312" lon="3.78069">
        <ele>999.91</ele>
        <time>2018-09-16T08:21:26Z</time>
      </trkpt>
      <trkpt lat="45.22312" lon="3.78101">
        <ele>998.95</ele>
        <time>2018-09-16T08:21:08Z</time>
      </trkpt>
      <trkpt lat="45.22315" lon="3.78135">
        <ele>997.99</ele>
        <time>2018-09-16T08:20:50Z</time>
      </trkpt>
      <trkpt lat="45.2232" lon="3.7817">
        <ele>997.02</ele>
        <time>2018-09-16T08:20:32Z</time>
      </trkpt>
      <trkpt lat="45.22322" lon="3.78204">
        <ele>994.62</ele>
        <time>2018-09-16T08:20:14Z</time>
      </trkpt>
      <trkpt lat="45.22324" lon="3.78225">
        <ele>992.7</ele>
        <time>2018-09-16T08:20:01Z</time>
      </trkpt>
      <trkpt lat="45.22329" lon="3.78249">
        <ele>990.78</ele>
        <time>2018-09-16T08:19:47Z</time>
      </trkpt>
      <trkpt lat="45.22334" lon="3.78282">
        <ele>989.81</ele>
        <time>2018-09-16T08:19:29Z</time>
      </trkpt>
      <trkpt lat="45.22337" lon="3.78302">
        <ele>989.81</ele>
        <time>2018-09-16T08:19:18Z</time>
      </trkpt>
      <trkpt lat="45.22338" lon="3.78311">
        <ele>989.81</ele>
        <time>2018-09-16T08:19:13Z</time>
      </trkpt>
      <trkpt lat="45.2234" lon="3.78325">
        <ele>989.33</ele>
        <time>2018-09-16T08:19:06Z</time>
      </trkpt>
      <trkpt lat="45.22346" lon="3.7836">
        <ele>989.81</ele>
        <time>2018-09-16T08:18:48Z</time>
      </trkpt>
      <trkpt lat="45.22346" lon="3.78391">
        <ele>990.3</ele>
        <time>2018-09-16T08:18:32Z</time>
      </trkpt>
      <trkpt lat="45.22349" lon="3.78423">
        <ele>987.89</ele>
        <time>2018-09-16T08:18:15Z</time>
      </trkpt>
      <trkpt lat="45.22349" lon="3.78431">
        <ele>987.41</ele>
        <time>2018-09-16T08:18:11Z</time>
      </trkpt>
      <trkpt lat="45.22347" lon="3.78461">
        <ele>985.49</ele>
        <time>2018-09-16T08:17:55Z</time>
      </trkpt>
      <trkpt lat="45.22345" lon="3.78489">
        <ele>983.09</ele>
        <time>2018-09-16T08:17:39Z</time>
      </trkpt>
      <trkpt lat="45.22343" lon="3.78506">
        <ele>982.12</ele>
        <time>2018-09-16T08:17:30Z</time>
      </trkpt>
      <trkpt lat="45.22342" lon="3.78533">
        <ele>977.8</ele>
        <time>2018-09-16T08:17:14Z</time>
      </trkpt>
      <trkpt lat="45.22341" lon="3.78545">
        <ele>975.88</ele>
        <time>2018-09-16T08:17:07Z</time>
      </trkpt>
      <trkpt lat="45.2234" lon="3.78577">
        <ele>973.95</ele>
        <time>2018-09-16T08:16:50Z</time>
      </trkpt>
      <trkpt lat="45.2234" lon="3.78586">
        <ele>974.43</ele>
        <time>2018-09-16T08:16:45Z</time>
      </trkpt>
      <trkpt lat="45.22339" lon="3.78603">
        <ele>973.47</ele>
        <time>2018-09-16T08:16:36Z</time>
      </trkpt>
      <trkpt lat="45.2234" lon="3.78632">
        <ele>971.07</ele>
        <time>2018-09-16T08:16:20Z</time>
      </trkpt>
      <trkpt lat="45.2234" lon="3.78641">
        <ele>970.59</ele>
        <time>2018-09-16T08:16:15Z</time>
      </trkpt>
      <trkpt lat="45.22342" lon="3.78658">
        <ele>969.15</ele>
        <time>2018-09-16T08:16:05Z</time>
      </trkpt>
      <trkpt lat="45.22343" lon="3.78687">
        <ele>967.22</ele>
        <time>2018-09-16T08:15:49Z</time>
      </trkpt>
      <trkpt lat="45.2234" lon="3.78714">
        <ele>967.22</ele>
        <time>2018-09-16T08:15:33Z</time>
      </trkpt>
      <trkpt lat="45.22334" lon="3.78744">
        <ele>968.18</ele>
        <time>2018-09-16T08:15:16Z</time>
      </trkpt>
      <trkpt lat="45.22329" lon="3.7877">
        <ele>968.67</ele>
        <time>2018-09-16T08:15:02Z</time>
      </trkpt>
      <trkpt lat="45.22324" lon="3.78801">
        <ele>966.74</ele>
        <time>2018-09-16T08:14:45Z</time>
      </trkpt>
      <trkpt lat="45.22318" lon="3.7883">
        <ele>965.3</ele>
        <time>2018-09-16T08:14:29Z</time>
      </trkpt>
      <trkpt lat="45.2231" lon="3.78859">
        <ele>965.78</ele>
        <time>2018-09-16T08:14:13Z</time>
      </trkpt>
      <trkpt lat="45.22304" lon="3.78888">
        <ele>964.34</ele>
        <time>2018-09-16T08:13:56Z</time>
      </trkpt>
      <trkpt lat="45.22304" lon="3.78893">
        <ele>963.38</ele>
        <time>2018-09-16T08:13:52Z</time>
      </trkpt>
      <trkpt lat="45.2231" lon="3.78902">
        <ele>962.42</ele>
        <time>2018-09-16T08:13:45Z</time>
      </trkpt>
      <trkpt lat="45.22328" lon="3.78894">
        <ele>962.42</ele>
        <time>2018-09-16T08:13:28Z</time>
      </trkpt>
      <trkpt lat="45.22348" lon="3.78876">
        <ele>962.9</ele>
        <time>2018-09-16T08:13:11Z</time>
      </trkpt>
      <trkpt lat="45.2237" lon="3.78857">
        <ele>962.9</ele>
        <time>2018-09-16T08:12:52Z</time>
      </trkpt>
      <trkpt lat="45.22391" lon="3.78835">
        <ele>962.9</ele>
        <time>2018-09-16T08:12:33Z</time>
      </trkpt>
      <trkpt lat="45.22412" lon="3.78814">
        <ele>963.86</ele>
        <time>2018-09-16T08:12:14Z</time>
      </trkpt>
      <trkpt lat="45.22434" lon="3.78793">
        <ele>964.82</ele>
        <time>2018-09-16T08:11:55Z</time>
      </trkpt>
      <trkpt lat="45.22456" lon="3.78771">
        <ele>965.78</ele>
        <time>2018-09-16T08:11:36Z</time>
      </trkpt>
      <trkpt lat="45.22479" lon="3.78746">
        <ele>966.74</ele>
        <time>2018-09-16T08:11:15Z</time>
      </trkpt>
      <trkpt lat="45.22505" lon="3.78717">
        <ele>966.74</ele>
        <time>2018-09-16T08:10:53Z</time>
      </trkpt>
      <trkpt lat="45.22514" lon="3.78712">
        <ele>966.74</ele>
        <time>2018-09-16T08:10:44Z</time>
      </trkpt>
      <trkpt lat="45.22539" lon="3.78708">
        <ele>970.11</ele>
        <time>2018-09-16T08:10:27Z</time>
      </trkpt>
      <trkpt lat="45.22561" lon="3.78696">
        <ele>974.43</ele>
        <time>2018-09-16T08:10:11Z</time>
      </trkpt>
      <trkpt lat="45.22582" lon="3.7869">
        <ele>972.03</ele>
        <time>2018-09-16T08:09:56Z</time>
      </trkpt>
      <trkpt lat="45.22596" lon="3.78682">
        <ele>968.18</ele>
        <time>2018-09-16T08:09:41Z</time>
      </trkpt>
      <trkpt lat="45.22617" lon="3.78668">
        <ele>964.82</ele>
        <time>2018-09-16T08:09:23Z</time>
      </trkpt>
      <trkpt lat="45.22633" lon="3.78659">
        <ele>963.38</ele>
        <time>2018-09-16T08:09:10Z</time>
      </trkpt>
      <trkpt lat="45.2265" lon="3.7865">
        <ele>964.34</ele>
        <time>2018-09-16T08:08:56Z</time>
      </trkpt>
      <trkpt lat="45.22671" lon="3.78632">
        <ele>965.3</ele>
        <time>2018-09-16T08:08:38Z</time>
      </trkpt>
      <trkpt lat="45.22689" lon="3.78606">
        <ele>966.74</ele>
        <time>2018-09-16T08:08:19Z</time>
      </trkpt>
      <trkpt lat="45.22701" lon="3.7858">
        <ele>968.18</ele>
        <time>2018-09-16T08:08:00Z</time>
      </trkpt>
      <trkpt lat="45.22702" lon="3.78579">
        <ele>967.7</ele>
        <time>2018-09-16T08:07:58Z</time>
      </trkpt>
      <trkpt lat="45.22699" lon="3.78579">
        <ele>970.6</ele>
      </trkpt>
      <trkpt lat="45.22699" lon="3.78595">
        <ele>969.5</ele>
      </trkpt>
      <trkpt lat="45.227" lon="3.78637">
        <ele>968.9</ele>
      </trkpt>
      <trkpt lat="45.22702" lon="3.78671">
        <ele>967.2</ele>
      </trkpt>
      <trkpt lat="45.22705" lon="3.78698">
        <ele>966.9</ele>
      </trkpt>
      <trkpt lat="45.22709" lon="3.78722">
        <ele>966.6</ele>
      </trkpt>
      <trkpt lat="45.22711" lon="3.78739">
        <ele>966.4</ele>
      </trkpt>
      <trkpt lat="45.22711" lon="3.78755">
        <ele>965.2</ele>
      </trkpt>
      <trkpt lat="45.22711" lon="3.78769">
        <ele>965.2</ele>
      </trkpt>
      <trkpt lat="45.22711" lon="3.78784">
        <ele>965.1</ele>
      </trkpt>
      <trkpt lat="45.22713" lon="3.788">
        <ele>965</ele>
      </trkpt>
      <trkpt lat="45.22715" lon="3.78827">
        <ele>965</ele>
      </trkpt>
      <trkpt lat="45.22719" lon="3.78876">
        <ele>963.4</ele>
      </trkpt>
      <trkpt lat="45.22721" lon="3.78926">
        <ele>962.8</ele>
      </trkpt>
      <trkpt lat="45.22721" lon="3.78946">
        <ele>962.9</ele>
      </trkpt>
      <trkpt lat="45.22719" lon="3.78968">
        <ele>963</ele>
      </trkpt>
      <trkpt lat="45.22718" lon="3.78975">
        <ele>963</ele>
      </trkpt>
      <trkpt lat="45.22717" lon="3.78984">
        <ele>963.1</ele>
      </trkpt>
      <trkpt lat="45.22717" lon="3.78995">
        <ele>963.1</ele>
      </trkpt>
      <trkpt lat="45.22718" lon="3.79006">
        <ele>964.9</ele>
      </trkpt>
      <trkpt lat="45.22719" lon="3.79024">
        <ele>965.2</ele>
      </trkpt>
      <trkpt lat="45.22719" lon="3.79035">
        <ele>965.5</ele>
      </trkpt>
      <trkpt lat="45.22718" lon="3.79058">
        <ele>966.1</ele>
      </trkpt>
      <trkpt lat="45.22716" lon="3.79076">
        <ele>966.3</ele>
      </trkpt>
      <trkpt lat="45.22716" lon="3.79085">
        <ele>967.6</ele>
      </trkpt>
      <trkpt lat="45.22715" lon="3.79105">
        <ele>967.7</ele>
      </trkpt>
      <trkpt lat="45.22712" lon="3.7912">
        <ele>967.9</ele>
      </trkpt>
      <trkpt lat="45.22707" lon="3.7915">
        <ele>968</ele>
      </trkpt>
      <trkpt lat="45.227" lon="3.79175">
        <ele>967.3</ele>
      </trkpt>
      <trkpt lat="45.22697" lon="3.79195">
        <ele>967</ele>
      </trkpt>
      <trkpt lat="45.22695" lon="3.79222">
        <ele>966.3</ele>
      </trkpt>
      <trkpt lat="45.22693" lon="3.79236">
        <ele>966</ele>
      </trkpt>
      <trkpt lat="45.22689" lon="3.79247">
        <ele>965.8</ele>
      </trkpt>
      <trkpt lat="45.2268" lon="3.79259">
        <ele>965.8</ele>
      </trkpt>
      <trkpt lat="45.22665" lon="3.7928">
        <ele>963.5</ele>
      </trkpt>
      <trkpt lat="45.2265" lon="3.79303">
        <ele>963.3</ele>
      </trkpt>
      <trkpt lat="45.22634" lon="3.79323">
        <ele>963</ele>
      </trkpt>
      <trkpt lat="45.22622" lon="3.79336">
        <ele>965.2</ele>
      </trkpt>
      <trkpt lat="45.22612" lon="3.79348">
        <ele>964.9</ele>
      </trkpt>
      <trkpt lat="45.22599" lon="3.79365">
        <ele>965.2</ele>
      </trkpt>
      <trkpt lat="45.22583" lon="3.79388">
        <ele>963.3</ele>
      </trkpt>
      <trkpt lat="45.22571" lon="3.79405">
        <ele>964.3</ele>
      </trkpt>
      <trkpt lat="45.22561" lon="3.7942">
        <ele>967.5</ele>
      </trkpt>
      <trkpt lat="45.22549" lon="3.79437">
        <ele>967.7</ele>
      </trkpt>
      <trkpt lat="45.22537" lon="3.79458">
        <ele>968</ele>
      </trkpt>
      <trkpt lat="45.22526" lon="3.79472">
        <ele>968.1</ele>
      </trkpt>
      <trkpt lat="45.22522" lon="3.79477">
        <ele>968</ele>
      </trkpt>
      <trkpt lat="45.22514" lon="3.79486">
        <ele>967.8</ele>
      </trkpt>
      <trkpt lat="45.22509" lon="3.79495">
        <ele>967.5</ele>
      </trkpt>
      <trkpt lat="45.22501" lon="3.79507">
        <ele>969.1</ele>
      </trkpt>
      <trkpt lat="45.22493" lon="3.79524">
        <ele>968</ele>
      </trkpt>
      <trkpt lat="45.22479" lon="3.79553">
        <ele>969.2</ele>
      </trkpt>
      <trkpt lat="45.22469" lon="3.79574">
        <ele>969.7</ele>
      </trkpt>
      <trkpt lat="45.22456" lon="3.79597">
        <ele>971.2</ele>
      </trkpt>
      <trkpt lat="45.22407" lon="3.79675">
        <ele>964.9</ele>
      </trkpt>
      <trkpt lat="45.22385" lon="3.79711">
        <ele>962.6</ele>
      </trkpt>
      <trkpt lat="45.22366" lon="3.79741">
        <ele>962</ele>
      </trkpt>
      <trkpt lat="45.22351" lon="3.79761">
        <ele>963.8</ele>
      </trkpt>
      <trkpt lat="45.22336" lon="3.79781">
        <ele>964.6</ele>
      </trkpt>
      <trkpt lat="45.22322" lon="3.79799">
        <ele>963.2</ele>
      </trkpt>
      <trkpt lat="45.2231" lon="3.79819">
        <ele>963.9</ele>
      </trkpt>
      <trkpt lat="45.22297" lon="3.79841">
        <ele>967.1</ele>
      </trkpt>
      <trkpt lat="45.22291" lon="3.79853">
        <ele>967.2</ele>
      </trkpt>
      <trkpt lat="45.22284" lon="3.79871">
        <ele>967.4</ele>
      </trkpt>
      <trkpt lat="45.22277" lon="3.79892">
        <ele>967.7</ele>
      </trkpt>
      <trkpt lat="45.22267" lon="3.79931">
        <ele>968.6</ele>
      </trkpt>
      <trkpt lat="45.2226" lon="3.79956">
        <ele>968.7</ele>
      </trkpt>
      <trkpt lat="45.22253" lon="3.79982">
        <ele>967.8</ele>
      </trkpt>
      <trkpt lat="45.22243" lon="3.80015">
        <ele>963.6</ele>
      </trkpt>
      <trkpt lat="45.22242" lon="3.8002">
        <ele>963.2</ele>
      </trkpt>
      <trkpt lat="45.22236" lon="3.80043">
        <ele>962</ele>
      </trkpt>
      <trkpt lat="45.22231" lon="3.80068">
        <ele>961.8</ele>
      </trkpt>
      <trkpt lat="45.22229" lon="3.80082">
        <ele>961.7</ele>
      </trkpt>
      <trkpt lat="45.22225" lon="3.80099">
        <ele>959.4</ele>
      </trkpt>
      <trkpt lat="45.22219" lon="3.8013">
        <ele>958.2</ele>
      </trkpt>
      <trkpt lat="45.22213" lon="3.80157">
        <ele>957.5</ele>
      </trkpt>
      <trkpt lat="45.2221" lon="3.80172">
        <ele>957.5</ele>
      </trkpt>
      <trkpt lat="45.22209" lon="3.80184">
        <ele>957.7</ele>
      </trkpt>
      <trkpt lat="45.22208" lon="3.80192">
        <ele>957.8</ele>
      </trkpt>
      <trkpt lat="45.22208" lon="3.80195">
        <ele>957.9</ele>
      </trkpt>
      <trkpt lat="45.22208" lon="3.80219">
        <ele>958.5</ele>
      </trkpt>
      <trkpt lat="45.22205" lon="3.80234">
        <ele>958.8</ele>
      </trkpt>
      <trkpt lat="45.22199" lon="3.80249">
        <ele>959</ele>
      </trkpt>
      <trkpt lat="45.22185" lon="3.80272">
        <ele>963.2</ele>
      </trkpt>
      <trkpt lat="45.22175" lon="3.80291">
        <ele>964.3</ele>
      </trkpt>
      <trkpt lat="45.22173" lon="3.80302">
        <ele>965</ele>
      </trkpt>
      <trkpt lat="45.22172" lon="3.80319">
        <ele>965.9</ele>
      </trkpt>
      <trkpt lat="45.22172" lon="3.80358">
        <ele>969.9</ele>
      </trkpt>
      <trkpt lat="45.2217" lon="3.80388">
        <ele>971.4</ele>
      </trkpt>
      <trkpt lat="45.22167" lon="3.80409">
        <ele>971.9</ele>
      </trkpt>
      <trkpt lat="45.22159" lon="3.80435">
        <ele>973.6</ele>
      </trkpt>
      <trkpt lat="45.22147" lon="3.80463">
        <ele>974.8</ele>
      </trkpt>
      <trkpt lat="45.2214" lon="3.80483">
        <ele>975.4</ele>
      </trkpt>
      <trkpt lat="45.22135" lon="3.8051">
        <ele>977.8</ele>
      </trkpt>
      <trkpt lat="45.22134" lon="3.80535">
        <ele>978.3</ele>
      </trkpt>
      <trkpt lat="45.22133" lon="3.80559">
        <ele>979</ele>
      </trkpt>
      <trkpt lat="45.22129" lon="3.80583">
        <ele>982.2</ele>
      </trkpt>
      <trkpt lat="45.22116" lon="3.80625">
        <ele>982.7</ele>
      </trkpt>
      <trkpt lat="45.22115" lon="3.80628">
        <ele>982.8</ele>
      </trkpt>
      <trkpt lat="45.22107" lon="3.80652">
        <ele>983.2</ele>
      </trkpt>
      <trkpt lat="45.22104" lon="3.80671">
        <ele>985.7</ele>
      </trkpt>
      <trkpt lat="45.22103" lon="3.80698">
        <ele>986.7</ele>
      </trkpt>
      <trkpt lat="45.22101" lon="3.80711">
        <ele>987.1</ele>
      </trkpt>
      <trkpt lat="45.22096" lon="3.80719">
        <ele>987.2</ele>
      </trkpt>
      <trkpt lat="45.22091" lon="3.80727">
        <ele>987.2</ele>
      </trkpt>
      <trkpt lat="45.22074" lon="3.8074">
        <ele>984.4</ele>
      </trkpt>
      <trkpt lat="45.22069" lon="3.80749">
        <ele>984.4</ele>
      </trkpt>
      <trkpt lat="45.22066" lon="3.80767">
        <ele>983.9</ele>
      </trkpt>
      <trkpt lat="45.22063" lon="3.80832">
        <ele>983</ele>
      </trkpt>
      <trkpt lat="45.22062" lon="3.80869">
        <ele>982.8</ele>
      </trkpt>
      <trkpt lat="45.22067" lon="3.80917">
        <ele>983.8</ele>
      </trkpt>
      <trkpt lat="45.22067" lon="3.80946">
        <ele>984</ele>
      </trkpt>
      <trkpt lat="45.22066" lon="3.81009">
        <ele>986.1</ele>
      </trkpt>
      <trkpt lat="45.22067" lon="3.81059">
        <ele>987.4</ele>
      </trkpt>
      <trkpt lat="45.22068" lon="3.81099">
        <ele>989.5</ele>
      </trkpt>
      <trkpt lat="45.22067" lon="3.81116">
        <ele>989.5</ele>
      </trkpt>
      <trkpt lat="45.22059" lon="3.81173">
        <ele>990.9</ele>
      </trkpt>
      <trkpt lat="45.22052" lon="3.81222">
        <ele>991.2</ele>
      </trkpt>
      <trkpt lat="45.22045" lon="3.81256">
        <ele>991.5</ele>
      </trkpt>
      <trkpt lat="45.22045" lon="3.81252">
        <ele>991.5</ele>
      </trkpt>
      <trkpt lat="45.22045" lon="3.81256">
        <ele>991.5</ele>
      </trkpt>
      <trkpt lat="45.22046" lon="3.81275">
        <ele>991.5</ele>
      </trkpt>
      <trkpt lat="45.22049" lon="3.81332">
        <ele>991.4</ele>
      </trkpt>
      <trkpt lat="45.22052" lon="3.81383">
        <ele>990.3</ele>
      </trkpt>
      <trkpt lat="45.22053" lon="3.81408">
        <ele>990</ele>
      </trkpt>
      <trkpt lat="45.22055" lon="3.81447">
        <ele>988.6</ele>
      </trkpt>
      <trkpt lat="45.22058" lon="3.81497">
        <ele>988.2</ele>
      </trkpt>
      <trkpt lat="45.2206" lon="3.81549">
        <ele>986.9</ele>
      </trkpt>
      <trkpt lat="45.22064" lon="3.81598">
        <ele>985.3</ele>
      </trkpt>
      <trkpt lat="45.2206" lon="3.81606">
        <ele>985</ele>
      </trkpt>
      <trkpt lat="45.2206" lon="3.81637">
        <ele>984.1</ele>
      </trkpt>
      <trkpt lat="45.22056" lon="3.81686">
        <ele>981.7</ele>
      </trkpt>
      <trkpt lat="45.22052" lon="3.81728">
        <ele>981.1</ele>
      </trkpt>
      <trkpt lat="45.22049" lon="3.81752">
        <ele>979.4</ele>
      </trkpt>
      <trkpt lat="45.22044" lon="3.8179">
        <ele>978.8</ele>
      </trkpt>
      <trkpt lat="45.22039" lon="3.81809">
        <ele>978.5</ele>
      </trkpt>
      <trkpt lat="45.22034" lon="3.81833">
        <ele>978.1</ele>
      </trkpt>
      <trkpt lat="45.22023" lon="3.81878">
        <ele>977.5</ele>
      </trkpt>
      <trkpt lat="45.22017" lon="3.81902">
        <ele>977.4</ele>
      </trkpt>
      <trkpt lat="45.22016" lon="3.81901">
        <ele>977.4</ele>
      </trkpt>
      <trkpt lat="45.22011" lon="3.819">
        <ele>977.4</ele>
      </trkpt>
      <trkpt lat="45.22002" lon="3.81901">
        <ele>977.3</ele>
      </trkpt>
      <trkpt lat="45.21999" lon="3.81901">
        <ele>975.4</ele>
      </trkpt>
      <trkpt lat="45.22001" lon="3.81914">
        <ele>977.1</ele>
      </trkpt>
      <trkpt lat="45.22" lon="3.81943">
        <ele>975</ele>
      </trkpt>
      <trkpt lat="45.22002" lon="3.81963">
        <ele>976.5</ele>
      </trkpt>
      <trkpt lat="45.22002" lon="3.81964">
        <ele>976.5</ele>
      </trkpt>
      <trkpt lat="45.22004" lon="3.8197">
        <ele>976.4</ele>
      </trkpt>
      <trkpt lat="45.22007" lon="3.81981">
        <ele>976.1</ele>
      </trkpt>
      <trkpt lat="45.22008" lon="3.81983">
        <ele>976.1</ele>
      </trkpt>
      <trkpt lat="45.22015" lon="3.81992">
        <ele>976</ele>
      </trkpt>
    </trkseg>
  </trk>
</gpx>